<?xml version="1.0" encoding="UTF-8" standalone="no" ?>
<gpx xmlns="http://www.topografix.com/GPX/1/1" xmlns:xsi="http://www.w3.org/2001/XMLSchema-instance" xsi:schemaLocation="http://www.topografix.com/GPX/1/1 http://www.topografix.com/GPX/1/1/gpx.xsd" version="1.1" creator="VisuGPX - https://www.visugpx.com">
  <metadata>
    <name>Le tour des ballastières de Nouvion</name>
  </metadata>
  <trk>
    <name><![CDATA[vélo clara faillon.gpx]]></name>
    <trkseg>
      <trkpt lat="49.69903" lon="4.79297">
        <ele>149.43651</ele>
        <time>2021-04-22T12:27:28Z</time>
      </trkpt>
      <trkpt lat="49.69901" lon="4.79294">
        <ele>149.61557</ele>
        <time>2021-04-22T12:27:29Z</time>
      </trkpt>
      <trkpt lat="49.69898" lon="4.79291">
        <ele>149.75775</ele>
        <time>2021-04-22T12:27:30Z</time>
      </trkpt>
      <trkpt lat="49.69896" lon="4.79288">
        <ele>149.89468</ele>
        <time>2021-04-22T12:27:31Z</time>
      </trkpt>
      <trkpt lat="49.69894" lon="4.79284">
        <ele>150.0158</ele>
        <time>2021-04-22T12:27:32Z</time>
      </trkpt>
      <trkpt lat="49.69893" lon="4.7928">
        <ele>150.26859</ele>
        <time>2021-04-22T12:27:33Z</time>
      </trkpt>
      <trkpt lat="49.69891" lon="4.79276">
        <ele>150.34758</ele>
        <time>2021-04-22T12:27:34Z</time>
      </trkpt>
      <trkpt lat="49.69888" lon="4.79272">
        <ele>150.61617</ele>
        <time>2021-04-22T12:27:35Z</time>
      </trkpt>
      <trkpt lat="49.69886" lon="4.79269">
        <ele>150.55823</ele>
        <time>2021-04-22T12:27:36Z</time>
      </trkpt>
      <trkpt lat="49.69883" lon="4.79266">
        <ele>150.64249</ele>
        <time>2021-04-22T12:27:37Z</time>
      </trkpt>
      <trkpt lat="49.6988" lon="4.79264">
        <ele>150.52136</ele>
        <time>2021-04-22T12:27:38Z</time>
      </trkpt>
      <trkpt lat="49.69877" lon="4.79263">
        <ele>150.5635</ele>
        <time>2021-04-22T12:27:39Z</time>
      </trkpt>
      <trkpt lat="49.69874" lon="4.79262">
        <ele>150.70569</ele>
        <time>2021-04-22T12:27:40Z</time>
      </trkpt>
      <trkpt lat="49.69871" lon="4.79261">
        <ele>150.90054</ele>
        <time>2021-04-22T12:27:41Z</time>
      </trkpt>
      <trkpt lat="49.69868" lon="4.7926">
        <ele>150.85315</ele>
        <time>2021-04-22T12:27:42Z</time>
      </trkpt>
      <trkpt lat="49.69864" lon="4.7926">
        <ele>150.9532</ele>
        <time>2021-04-22T12:27:43Z</time>
      </trkpt>
      <trkpt lat="49.69861" lon="4.79259">
        <ele>151.14279</ele>
        <time>2021-04-22T12:27:44Z</time>
      </trkpt>
      <trkpt lat="49.69858" lon="4.79258">
        <ele>151.23232</ele>
        <time>2021-04-22T12:27:45Z</time>
      </trkpt>
      <trkpt lat="49.69855" lon="4.79256">
        <ele>151.21126</ele>
        <time>2021-04-22T12:27:46Z</time>
      </trkpt>
      <trkpt lat="49.69852" lon="4.79254">
        <ele>151.21652</ele>
        <time>2021-04-22T12:27:47Z</time>
      </trkpt>
      <trkpt lat="49.69849" lon="4.79251">
        <ele>151.41138</ele>
        <time>2021-04-22T12:27:48Z</time>
      </trkpt>
      <trkpt lat="49.69846" lon="4.79248">
        <ele>151.56937</ele>
        <time>2021-04-22T12:27:49Z</time>
      </trkpt>
      <trkpt lat="49.69843" lon="4.79246">
        <ele>151.60097</ele>
        <time>2021-04-22T12:27:50Z</time>
      </trkpt>
      <trkpt lat="49.6984" lon="4.79243">
        <ele>152.01173</ele>
        <time>2021-04-22T12:27:51Z</time>
      </trkpt>
      <trkpt lat="49.69838" lon="4.79242">
        <ele>152.25398</ele>
        <time>2021-04-22T12:27:52Z</time>
      </trkpt>
      <trkpt lat="49.69835" lon="4.79241">
        <ele>152.5647</ele>
        <time>2021-04-22T12:27:53Z</time>
      </trkpt>
      <trkpt lat="49.69833" lon="4.79239">
        <ele>152.91754</ele>
        <time>2021-04-22T12:27:54Z</time>
      </trkpt>
      <trkpt lat="49.6983" lon="4.79237">
        <ele>153.13872</ele>
        <time>2021-04-22T12:27:55Z</time>
      </trkpt>
      <trkpt lat="49.69828" lon="4.79236">
        <ele>153.32831</ele>
        <time>2021-04-22T12:27:56Z</time>
      </trkpt>
      <trkpt lat="49.69825" lon="4.79234">
        <ele>153.91287</ele>
        <time>2021-04-22T12:27:57Z</time>
      </trkpt>
      <trkpt lat="49.69823" lon="4.79232">
        <ele>154.12352</ele>
        <time>2021-04-22T12:27:58Z</time>
      </trkpt>
      <trkpt lat="49.6982" lon="4.7923">
        <ele>154.36049</ele>
        <time>2021-04-22T12:27:59Z</time>
      </trkpt>
      <trkpt lat="49.69817" lon="4.79227">
        <ele>154.60803</ele>
        <time>2021-04-22T12:28:00Z</time>
      </trkpt>
      <trkpt lat="49.69814" lon="4.79225">
        <ele>154.67647</ele>
        <time>2021-04-22T12:28:01Z</time>
      </trkpt>
      <trkpt lat="49.69811" lon="4.79223">
        <ele>155.07146</ele>
        <time>2021-04-22T12:28:02Z</time>
      </trkpt>
      <trkpt lat="49.69808" lon="4.79222">
        <ele>155.42957</ele>
        <time>2021-04-22T12:28:03Z</time>
      </trkpt>
      <trkpt lat="49.69805" lon="4.79219">
        <ele>155.49803</ele>
        <time>2021-04-22T12:28:04Z</time>
      </trkpt>
      <trkpt lat="49.69803" lon="4.79217">
        <ele>155.81926</ele>
        <time>2021-04-22T12:28:05Z</time>
      </trkpt>
      <trkpt lat="49.698" lon="4.79215">
        <ele>155.96672</ele>
        <time>2021-04-22T12:28:06Z</time>
      </trkpt>
      <trkpt lat="49.69797" lon="4.79213">
        <ele>156.06152</ele>
        <time>2021-04-22T12:28:07Z</time>
      </trkpt>
      <trkpt lat="49.69795" lon="4.79212">
        <ele>156.23004</ele>
        <time>2021-04-22T12:28:08Z</time>
      </trkpt>
      <trkpt lat="49.69793" lon="4.7921">
        <ele>156.22478</ele>
        <time>2021-04-22T12:28:09Z</time>
      </trkpt>
      <trkpt lat="49.6979" lon="4.79208">
        <ele>156.04045</ele>
        <time>2021-04-22T12:28:10Z</time>
      </trkpt>
      <trkpt lat="49.69788" lon="4.79206">
        <ele>156.0773</ele>
        <time>2021-04-22T12:28:11Z</time>
      </trkpt>
      <trkpt lat="49.69786" lon="4.79204">
        <ele>156.47229</ele>
        <time>2021-04-22T12:28:12Z</time>
      </trkpt>
      <trkpt lat="49.69783" lon="4.79202">
        <ele>156.18263</ele>
        <time>2021-04-22T12:28:13Z</time>
      </trkpt>
      <trkpt lat="49.69781" lon="4.79201">
        <ele>156.06679</ele>
        <time>2021-04-22T12:28:14Z</time>
      </trkpt>
      <trkpt lat="49.69778" lon="4.79199">
        <ele>156.05626</ele>
        <time>2021-04-22T12:28:15Z</time>
      </trkpt>
      <trkpt lat="49.69776" lon="4.79196">
        <ele>155.8456</ele>
        <time>2021-04-22T12:28:16Z</time>
      </trkpt>
      <trkpt lat="49.69773" lon="4.79194">
        <ele>155.6244</ele>
        <time>2021-04-22T12:28:17Z</time>
      </trkpt>
      <trkpt lat="49.6977" lon="4.79191">
        <ele>155.18732</ele>
        <time>2021-04-22T12:28:18Z</time>
      </trkpt>
      <trkpt lat="49.69767" lon="4.79189">
        <ele>154.98718</ele>
        <time>2021-04-22T12:28:19Z</time>
      </trkpt>
      <trkpt lat="49.69764" lon="4.79187">
        <ele>154.55536</ele>
        <time>2021-04-22T12:28:20Z</time>
      </trkpt>
      <trkpt lat="49.6976" lon="4.79185">
        <ele>154.27098</ele>
        <time>2021-04-22T12:28:21Z</time>
      </trkpt>
      <trkpt lat="49.69754" lon="4.79186">
        <ele>154.04979</ele>
        <time>2021-04-22T12:28:22Z</time>
      </trkpt>
      <trkpt lat="49.69748" lon="4.79187">
        <ele>153.83388</ele>
        <time>2021-04-22T12:28:23Z</time>
      </trkpt>
      <trkpt lat="49.69741" lon="4.79189">
        <ele>153.64955</ele>
        <time>2021-04-22T12:28:24Z</time>
      </trkpt>
      <trkpt lat="49.69735" lon="4.7919">
        <ele>153.34937</ele>
        <time>2021-04-22T12:28:25Z</time>
      </trkpt>
      <trkpt lat="49.6973" lon="4.7919">
        <ele>153.3441</ele>
        <time>2021-04-22T12:28:26Z</time>
      </trkpt>
      <trkpt lat="49.69724" lon="4.79191">
        <ele>152.75955</ele>
        <time>2021-04-22T12:28:27Z</time>
      </trkpt>
      <trkpt lat="49.69717" lon="4.79192">
        <ele>152.52257</ele>
        <time>2021-04-22T12:28:28Z</time>
      </trkpt>
      <trkpt lat="49.69711" lon="4.79193">
        <ele>152.82802</ele>
        <time>2021-04-22T12:28:29Z</time>
      </trkpt>
      <trkpt lat="49.69704" lon="4.79196">
        <ele>152.58049</ele>
        <time>2021-04-22T12:28:30Z</time>
      </trkpt>
      <trkpt lat="49.69698" lon="4.79198">
        <ele>151.84848</ele>
        <time>2021-04-22T12:28:31Z</time>
      </trkpt>
      <trkpt lat="49.69692" lon="4.79201">
        <ele>151.29552</ele>
        <time>2021-04-22T12:28:32Z</time>
      </trkpt>
      <trkpt lat="49.69686" lon="4.79204">
        <ele>151.127</ele>
        <time>2021-04-22T12:28:33Z</time>
      </trkpt>
      <trkpt lat="49.6968" lon="4.79207">
        <ele>150.73203</ele>
        <time>2021-04-22T12:28:34Z</time>
      </trkpt>
      <trkpt lat="49.69674" lon="4.7921">
        <ele>150.47923</ele>
        <time>2021-04-22T12:28:35Z</time>
      </trkpt>
      <trkpt lat="49.69667" lon="4.79213">
        <ele>150.40552</ele>
        <time>2021-04-22T12:28:36Z</time>
      </trkpt>
      <trkpt lat="49.6966" lon="4.79215">
        <ele>150.33705</ele>
        <time>2021-04-22T12:28:37Z</time>
      </trkpt>
      <trkpt lat="49.69654" lon="4.79215">
        <ele>149.8894</ele>
        <time>2021-04-22T12:28:38Z</time>
      </trkpt>
      <trkpt lat="49.69648" lon="4.79214">
        <ele>149.60503</ele>
        <time>2021-04-22T12:28:39Z</time>
      </trkpt>
      <trkpt lat="49.69643" lon="4.79213">
        <ele>149.74196</ele>
        <time>2021-04-22T12:28:40Z</time>
      </trkpt>
      <trkpt lat="49.69638" lon="4.7921">
        <ele>150.03688</ele>
        <time>2021-04-22T12:28:41Z</time>
      </trkpt>
      <trkpt lat="49.69634" lon="4.79208">
        <ele>149.921</ele>
        <time>2021-04-22T12:28:42Z</time>
      </trkpt>
      <trkpt lat="49.69629" lon="4.79205">
        <ele>150.13693</ele>
        <time>2021-04-22T12:28:43Z</time>
      </trkpt>
      <trkpt lat="49.69625" lon="4.79202">
        <ele>150.33705</ele>
        <time>2021-04-22T12:28:44Z</time>
      </trkpt>
      <trkpt lat="49.69621" lon="4.79199">
        <ele>150.19485</ele>
        <time>2021-04-22T12:28:45Z</time>
      </trkpt>
      <trkpt lat="49.69617" lon="4.79197">
        <ele>150.38445</ele>
        <time>2021-04-22T12:28:46Z</time>
      </trkpt>
      <trkpt lat="49.69613" lon="4.79194">
        <ele>150.5319</ele>
        <time>2021-04-22T12:28:47Z</time>
      </trkpt>
      <trkpt lat="49.6961" lon="4.79191">
        <ele>150.58456</ele>
        <time>2021-04-22T12:28:48Z</time>
      </trkpt>
      <trkpt lat="49.69607" lon="4.79189">
        <ele>150.71095</ele>
        <time>2021-04-22T12:28:49Z</time>
      </trkpt>
      <trkpt lat="49.69604" lon="4.79186">
        <ele>150.77415</ele>
        <time>2021-04-22T12:28:50Z</time>
      </trkpt>
      <trkpt lat="49.69601" lon="4.79184">
        <ele>150.84789</ele>
        <time>2021-04-22T12:28:51Z</time>
      </trkpt>
      <trkpt lat="49.69597" lon="4.79181">
        <ele>151.0322</ele>
        <time>2021-04-22T12:28:52Z</time>
      </trkpt>
      <trkpt lat="49.69594" lon="4.79179">
        <ele>151.04274</ele>
        <time>2021-04-22T12:28:53Z</time>
      </trkpt>
      <trkpt lat="49.69592" lon="4.79176">
        <ele>150.96901</ele>
        <time>2021-04-22T12:28:54Z</time>
      </trkpt>
      <trkpt lat="49.69589" lon="4.79174">
        <ele>150.86894</ele>
        <time>2021-04-22T12:28:55Z</time>
      </trkpt>
      <trkpt lat="49.69587" lon="4.79172">
        <ele>150.91635</ele>
        <time>2021-04-22T12:28:56Z</time>
      </trkpt>
      <trkpt lat="49.69584" lon="4.7917">
        <ele>150.82681</ele>
        <time>2021-04-22T12:28:57Z</time>
      </trkpt>
      <trkpt lat="49.69581" lon="4.79167">
        <ele>150.52136</ele>
        <time>2021-04-22T12:28:58Z</time>
      </trkpt>
      <trkpt lat="49.69578" lon="4.79166">
        <ele>151.11646</ele>
        <time>2021-04-22T12:28:59Z</time>
      </trkpt>
      <trkpt lat="49.69576" lon="4.79164">
        <ele>150.4845</ele>
        <time>2021-04-22T12:29:00Z</time>
      </trkpt>
      <trkpt lat="49.69572" lon="4.79162">
        <ele>150.30545</ele>
        <time>2021-04-22T12:29:01Z</time>
      </trkpt>
      <trkpt lat="49.6957" lon="4.7916">
        <ele>150.40024</ele>
        <time>2021-04-22T12:29:02Z</time>
      </trkpt>
      <trkpt lat="49.69567" lon="4.79158">
        <ele>150.34758</ele>
        <time>2021-04-22T12:29:03Z</time>
      </trkpt>
      <trkpt lat="49.69564" lon="4.79157">
        <ele>150.34758</ele>
        <time>2021-04-22T12:29:04Z</time>
      </trkpt>
      <trkpt lat="49.69561" lon="4.79155">
        <ele>150.25279</ele>
        <time>2021-04-22T12:29:05Z</time>
      </trkpt>
      <trkpt lat="49.69558" lon="4.79153">
        <ele>150.079</ele>
        <time>2021-04-22T12:29:06Z</time>
      </trkpt>
      <trkpt lat="49.69555" lon="4.7915">
        <ele>150.39497</ele>
        <time>2021-04-22T12:29:07Z</time>
      </trkpt>
      <trkpt lat="49.69552" lon="4.79148">
        <ele>150.20538</ele>
        <time>2021-04-22T12:29:08Z</time>
      </trkpt>
      <trkpt lat="49.69548" lon="4.79145">
        <ele>150.18959</ele>
        <time>2021-04-22T12:29:09Z</time>
      </trkpt>
      <trkpt lat="49.69544" lon="4.79142">
        <ele>150.03688</ele>
        <time>2021-04-22T12:29:10Z</time>
      </trkpt>
      <trkpt lat="49.69539" lon="4.7914">
        <ele>149.56818</ele>
        <time>2021-04-22T12:29:11Z</time>
      </trkpt>
      <trkpt lat="49.69534" lon="4.79137">
        <ele>149.34172</ele>
        <time>2021-04-22T12:29:12Z</time>
      </trkpt>
      <trkpt lat="49.69528" lon="4.79134">
        <ele>149.031</ele>
        <time>2021-04-22T12:29:13Z</time>
      </trkpt>
      <trkpt lat="49.69524" lon="4.79131">
        <ele>148.80455</ele>
        <time>2021-04-22T12:29:14Z</time>
      </trkpt>
      <trkpt lat="49.6952" lon="4.7913">
        <ele>148.58337</ele>
        <time>2021-04-22T12:29:15Z</time>
      </trkpt>
      <trkpt lat="49.69517" lon="4.79131">
        <ele>148.39378</ele>
        <time>2021-04-22T12:29:16Z</time>
      </trkpt>
      <trkpt lat="49.69516" lon="4.79134">
        <ele>148.0462</ele>
        <time>2021-04-22T12:29:17Z</time>
      </trkpt>
      <trkpt lat="49.69516" lon="4.79137">
        <ele>147.80396</ele>
        <time>2021-04-22T12:29:18Z</time>
      </trkpt>
      <trkpt lat="49.69516" lon="4.79139">
        <ele>147.64597</ele>
        <time>2021-04-22T12:29:19Z</time>
      </trkpt>
      <trkpt lat="49.69516" lon="4.79142">
        <ele>147.55118</ele>
        <time>2021-04-22T12:29:20Z</time>
      </trkpt>
      <trkpt lat="49.69516" lon="4.79144">
        <ele>147.66176</ele>
        <time>2021-04-22T12:29:21Z</time>
      </trkpt>
      <trkpt lat="49.69517" lon="4.79146">
        <ele>147.76183</ele>
        <time>2021-04-22T12:29:22Z</time>
      </trkpt>
      <trkpt lat="49.69518" lon="4.79148">
        <ele>147.87242</ele>
        <time>2021-04-22T12:29:23Z</time>
      </trkpt>
      <trkpt lat="49.69519" lon="4.79151">
        <ele>147.54063</ele>
        <time>2021-04-22T12:29:24Z</time>
      </trkpt>
      <trkpt lat="49.69521" lon="4.79153">
        <ele>147.84082</ele>
        <time>2021-04-22T12:29:25Z</time>
      </trkpt>
      <trkpt lat="49.69522" lon="4.79156">
        <ele>148.52545</ele>
        <time>2021-04-22T12:29:26Z</time>
      </trkpt>
      <trkpt lat="49.69523" lon="4.79159">
        <ele>147.7829</ele>
        <time>2021-04-22T12:29:27Z</time>
      </trkpt>
      <trkpt lat="49.69525" lon="4.79162">
        <ele>147.57751</ele>
        <time>2021-04-22T12:29:28Z</time>
      </trkpt>
      <trkpt lat="49.69528" lon="4.79163">
        <ele>147.11934</ele>
        <time>2021-04-22T12:29:29Z</time>
      </trkpt>
      <trkpt lat="49.69531" lon="4.79166">
        <ele>146.78757</ele>
        <time>2021-04-22T12:29:30Z</time>
      </trkpt>
      <trkpt lat="49.69533" lon="4.79168">
        <ele>146.6243</ele>
        <time>2021-04-22T12:29:31Z</time>
      </trkpt>
      <trkpt lat="49.69536" lon="4.7917">
        <ele>146.33467</ele>
        <time>2021-04-22T12:29:32Z</time>
      </trkpt>
      <trkpt lat="49.69538" lon="4.79171">
        <ele>146.4558</ele>
        <time>2021-04-22T12:29:33Z</time>
      </trkpt>
      <trkpt lat="49.6954" lon="4.79173">
        <ele>146.27673</ele>
        <time>2021-04-22T12:29:34Z</time>
      </trkpt>
      <trkpt lat="49.69542" lon="4.79174">
        <ele>146.34518</ele>
        <time>2021-04-22T12:29:35Z</time>
      </trkpt>
      <trkpt lat="49.69544" lon="4.79176">
        <ele>145.94496</ele>
        <time>2021-04-22T12:29:36Z</time>
      </trkpt>
      <trkpt lat="49.69546" lon="4.79178">
        <ele>145.36566</ele>
        <time>2021-04-22T12:29:37Z</time>
      </trkpt>
      <trkpt lat="49.69547" lon="4.7918">
        <ele>145.5921</ele>
        <time>2021-04-22T12:29:38Z</time>
      </trkpt>
      <trkpt lat="49.69549" lon="4.79181">
        <ele>145.43411</ele>
        <time>2021-04-22T12:29:39Z</time>
      </trkpt>
      <trkpt lat="49.69551" lon="4.79182">
        <ele>145.32353</ele>
        <time>2021-04-22T12:29:40Z</time>
      </trkpt>
      <trkpt lat="49.69552" lon="4.79183">
        <ele>145.3288</ele>
        <time>2021-04-22T12:29:41Z</time>
      </trkpt>
      <trkpt lat="49.69553" lon="4.79183">
        <ele>145.38145</ele>
        <time>2021-04-22T12:29:42Z</time>
      </trkpt>
      <trkpt lat="49.69552" lon="4.79183">
        <ele>142.69038</ele>
        <time>2021-04-22T12:29:43Z</time>
      </trkpt>
      <trkpt lat="49.69553" lon="4.79183">
        <ele>147.014</ele>
        <time>2021-04-22T12:29:44Z</time>
      </trkpt>
      <trkpt lat="49.69554" lon="4.79183">
        <ele>146.00815</ele>
        <time>2021-04-22T12:29:45Z</time>
      </trkpt>
      <trkpt lat="49.69554" lon="4.79183">
        <ele>146.00815</ele>
        <time>2021-04-22T12:29:45Z</time>
      </trkpt>
      <trkpt lat="49.69554" lon="4.79183">
        <ele>146.00815</ele>
        <time>2021-04-22T12:29:45Z</time>
      </trkpt>
      <trkpt lat="49.69554" lon="4.79183">
        <ele>146.14508</ele>
        <time>2021-04-22T12:30:08Z</time>
      </trkpt>
      <trkpt lat="49.69554" lon="4.79183">
        <ele>145.45518</ele>
        <time>2021-04-22T12:30:09Z</time>
      </trkpt>
      <trkpt lat="49.69554" lon="4.79183">
        <ele>145.02861</ele>
        <time>2021-04-22T12:30:10Z</time>
      </trkpt>
      <trkpt lat="49.69555" lon="4.79183">
        <ele>145.34459</ele>
        <time>2021-04-22T12:30:11Z</time>
      </trkpt>
      <trkpt lat="49.69555" lon="4.79184">
        <ele>145.1866</ele>
        <time>2021-04-22T12:30:12Z</time>
      </trkpt>
      <trkpt lat="49.69557" lon="4.79184">
        <ele>145.05495</ele>
        <time>2021-04-22T12:30:13Z</time>
      </trkpt>
      <trkpt lat="49.69559" lon="4.79183">
        <ele>145.38673</ele>
        <time>2021-04-22T12:30:14Z</time>
      </trkpt>
      <trkpt lat="49.6956" lon="4.79182">
        <ele>145.62898</ele>
        <time>2021-04-22T12:30:15Z</time>
      </trkpt>
      <trkpt lat="49.69561" lon="4.79179">
        <ele>145.34987</ele>
        <time>2021-04-22T12:30:16Z</time>
      </trkpt>
      <trkpt lat="49.69562" lon="4.79175">
        <ele>145.88176</ele>
        <time>2021-04-22T12:30:17Z</time>
      </trkpt>
      <trkpt lat="49.69563" lon="4.79172">
        <ele>145.91862</ele>
        <time>2021-04-22T12:30:18Z</time>
      </trkpt>
      <trkpt lat="49.69563" lon="4.79169">
        <ele>145.5921</ele>
        <time>2021-04-22T12:30:19Z</time>
      </trkpt>
      <trkpt lat="49.69563" lon="4.79166">
        <ele>145.50258</ele>
        <time>2021-04-22T12:30:20Z</time>
      </trkpt>
      <trkpt lat="49.69563" lon="4.79163">
        <ele>145.10236</ele>
        <time>2021-04-22T12:30:21Z</time>
      </trkpt>
      <trkpt lat="49.69564" lon="4.79159">
        <ele>144.53885</ele>
        <time>2021-04-22T12:30:22Z</time>
      </trkpt>
      <trkpt lat="49.69564" lon="4.79155">
        <ele>144.91277</ele>
        <time>2021-04-22T12:30:23Z</time>
      </trkpt>
      <trkpt lat="49.69565" lon="4.79151">
        <ele>144.97595</ele>
        <time>2021-04-22T12:30:24Z</time>
      </trkpt>
      <trkpt lat="49.69565" lon="4.79146">
        <ele>145.01282</ele>
        <time>2021-04-22T12:30:25Z</time>
      </trkpt>
      <trkpt lat="49.69566" lon="4.7914">
        <ele>145.17607</ele>
        <time>2021-04-22T12:30:26Z</time>
      </trkpt>
      <trkpt lat="49.69566" lon="4.79135">
        <ele>145.12341</ele>
        <time>2021-04-22T12:30:27Z</time>
      </trkpt>
      <trkpt lat="49.69566" lon="4.7913">
        <ele>145.26561</ele>
        <time>2021-04-22T12:30:28Z</time>
      </trkpt>
      <trkpt lat="49.69567" lon="4.79124">
        <ele>145.37619</ele>
        <time>2021-04-22T12:30:29Z</time>
      </trkpt>
      <trkpt lat="49.69567" lon="4.79119">
        <ele>145.48679</ele>
        <time>2021-04-22T12:30:30Z</time>
      </trkpt>
      <trkpt lat="49.69567" lon="4.79114">
        <ele>145.49731</ele>
        <time>2021-04-22T12:30:31Z</time>
      </trkpt>
      <trkpt lat="49.69567" lon="4.7911">
        <ele>145.60265</ele>
        <time>2021-04-22T12:30:32Z</time>
      </trkpt>
      <trkpt lat="49.69567" lon="4.79105">
        <ele>145.5921</ele>
        <time>2021-04-22T12:30:33Z</time>
      </trkpt>
      <trkpt lat="49.69567" lon="4.79101">
        <ele>145.78697</ele>
        <time>2021-04-22T12:30:34Z</time>
      </trkpt>
      <trkpt lat="49.69568" lon="4.79097">
        <ele>145.80803</ele>
        <time>2021-04-22T12:30:35Z</time>
      </trkpt>
      <trkpt lat="49.69568" lon="4.79092">
        <ele>145.80276</ele>
        <time>2021-04-22T12:30:36Z</time>
      </trkpt>
      <trkpt lat="49.69568" lon="4.79088">
        <ele>145.96075</ele>
        <time>2021-04-22T12:30:37Z</time>
      </trkpt>
      <trkpt lat="49.69568" lon="4.79085">
        <ele>145.67111</ele>
        <time>2021-04-22T12:30:38Z</time>
      </trkpt>
      <trkpt lat="49.69568" lon="4.7908">
        <ele>146.2978</ele>
        <time>2021-04-22T12:30:39Z</time>
      </trkpt>
      <trkpt lat="49.69568" lon="4.79076">
        <ele>146.09767</ele>
        <time>2021-04-22T12:30:40Z</time>
      </trkpt>
      <trkpt lat="49.69568" lon="4.79072">
        <ele>145.79224</ele>
        <time>2021-04-22T12:30:41Z</time>
      </trkpt>
      <trkpt lat="49.69568" lon="4.79068">
        <ele>146.07661</ele>
        <time>2021-04-22T12:30:42Z</time>
      </trkpt>
      <trkpt lat="49.69568" lon="4.79064">
        <ele>146.58218</ele>
        <time>2021-04-22T12:30:43Z</time>
      </trkpt>
      <trkpt lat="49.69568" lon="4.7906">
        <ele>146.45052</ele>
        <time>2021-04-22T12:30:44Z</time>
      </trkpt>
      <trkpt lat="49.69568" lon="4.79057">
        <ele>146.2978</ele>
        <time>2021-04-22T12:30:45Z</time>
      </trkpt>
      <trkpt lat="49.69569" lon="4.79053">
        <ele>146.19247</ele>
        <time>2021-04-22T12:30:46Z</time>
      </trkpt>
      <trkpt lat="49.69569" lon="4.79049">
        <ele>146.22934</ele>
        <time>2021-04-22T12:30:47Z</time>
      </trkpt>
      <trkpt lat="49.69569" lon="4.79044">
        <ele>146.10295</ele>
        <time>2021-04-22T12:30:48Z</time>
      </trkpt>
      <trkpt lat="49.6957" lon="4.7904">
        <ele>146.05028</ele>
        <time>2021-04-22T12:30:49Z</time>
      </trkpt>
      <trkpt lat="49.6957" lon="4.79036">
        <ele>146.30833</ele>
        <time>2021-04-22T12:30:50Z</time>
      </trkpt>
      <trkpt lat="49.69571" lon="4.79032">
        <ele>145.93968</ele>
        <time>2021-04-22T12:30:51Z</time>
      </trkpt>
      <trkpt lat="49.69571" lon="4.79028">
        <ele>145.80803</ele>
        <time>2021-04-22T12:30:52Z</time>
      </trkpt>
      <trkpt lat="49.69572" lon="4.79024">
        <ele>146.12927</ele>
        <time>2021-04-22T12:30:53Z</time>
      </trkpt>
      <trkpt lat="49.69573" lon="4.7902">
        <ele>146.11874</ele>
        <time>2021-04-22T12:30:54Z</time>
      </trkpt>
      <trkpt lat="49.69573" lon="4.79015">
        <ele>146.22934</ele>
        <time>2021-04-22T12:30:55Z</time>
      </trkpt>
      <trkpt lat="49.69574" lon="4.79011">
        <ele>145.83437</ele>
        <time>2021-04-22T12:30:56Z</time>
      </trkpt>
      <trkpt lat="49.69574" lon="4.79006">
        <ele>145.80276</ele>
        <time>2021-04-22T12:30:57Z</time>
      </trkpt>
      <trkpt lat="49.69574" lon="4.79002">
        <ele>145.8765</ele>
        <time>2021-04-22T12:30:58Z</time>
      </trkpt>
      <trkpt lat="49.69575" lon="4.78997">
        <ele>145.92915</ele>
        <time>2021-04-22T12:30:59Z</time>
      </trkpt>
      <trkpt lat="49.69575" lon="4.78992">
        <ele>145.91336</ele>
        <time>2021-04-22T12:31:00Z</time>
      </trkpt>
      <trkpt lat="49.69576" lon="4.78988">
        <ele>145.91336</ele>
        <time>2021-04-22T12:31:01Z</time>
      </trkpt>
      <trkpt lat="49.69576" lon="4.78984">
        <ele>146.0924</ele>
        <time>2021-04-22T12:31:02Z</time>
      </trkpt>
      <trkpt lat="49.69576" lon="4.78979">
        <ele>146.02396</ele>
        <time>2021-04-22T12:31:03Z</time>
      </trkpt>
      <trkpt lat="49.69576" lon="4.78975">
        <ele>145.98709</ele>
        <time>2021-04-22T12:31:04Z</time>
      </trkpt>
      <trkpt lat="49.69577" lon="4.78971">
        <ele>145.92915</ele>
        <time>2021-04-22T12:31:05Z</time>
      </trkpt>
      <trkpt lat="49.69577" lon="4.78966">
        <ele>145.8923</ele>
        <time>2021-04-22T12:31:06Z</time>
      </trkpt>
      <trkpt lat="49.69578" lon="4.78962">
        <ele>145.7975</ele>
        <time>2021-04-22T12:31:07Z</time>
      </trkpt>
      <trkpt lat="49.69579" lon="4.78958">
        <ele>145.83437</ele>
        <time>2021-04-22T12:31:08Z</time>
      </trkpt>
      <trkpt lat="49.69579" lon="4.78954">
        <ele>145.7817</ele>
        <time>2021-04-22T12:31:09Z</time>
      </trkpt>
      <trkpt lat="49.69579" lon="4.78951">
        <ele>145.82384</ele>
        <time>2021-04-22T12:31:10Z</time>
      </trkpt>
      <trkpt lat="49.6958" lon="4.78947">
        <ele>146.14508</ele>
        <time>2021-04-22T12:31:11Z</time>
      </trkpt>
      <trkpt lat="49.6958" lon="4.78943">
        <ele>146.01341</ele>
        <time>2021-04-22T12:31:12Z</time>
      </trkpt>
      <trkpt lat="49.6958" lon="4.7894">
        <ele>146.27673</ele>
        <time>2021-04-22T12:31:13Z</time>
      </trkpt>
      <trkpt lat="49.69581" lon="4.78936">
        <ele>146.2346</ele>
        <time>2021-04-22T12:31:14Z</time>
      </trkpt>
      <trkpt lat="49.69581" lon="4.78932">
        <ele>146.10822</ele>
        <time>2021-04-22T12:31:15Z</time>
      </trkpt>
      <trkpt lat="49.69582" lon="4.78929">
        <ele>145.42886</ele>
        <time>2021-04-22T12:31:16Z</time>
      </trkpt>
      <trkpt lat="49.69583" lon="4.78925">
        <ele>146.03448</ele>
        <time>2021-04-22T12:31:17Z</time>
      </trkpt>
      <trkpt lat="49.69583" lon="4.78921">
        <ele>145.85542</ele>
        <time>2021-04-22T12:31:18Z</time>
      </trkpt>
      <trkpt lat="49.69584" lon="4.78918">
        <ele>145.90282</ele>
        <time>2021-04-22T12:31:19Z</time>
      </trkpt>
      <trkpt lat="49.69585" lon="4.78914">
        <ele>145.79224</ele>
        <time>2021-04-22T12:31:20Z</time>
      </trkpt>
      <trkpt lat="49.69585" lon="4.78911">
        <ele>145.77116</ele>
        <time>2021-04-22T12:31:21Z</time>
      </trkpt>
      <trkpt lat="49.69585" lon="4.78908">
        <ele>145.90282</ele>
        <time>2021-04-22T12:31:22Z</time>
      </trkpt>
      <trkpt lat="49.69586" lon="4.78904">
        <ele>145.73431</ele>
        <time>2021-04-22T12:31:23Z</time>
      </trkpt>
      <trkpt lat="49.69587" lon="4.789">
        <ele>146.03975</ele>
        <time>2021-04-22T12:31:24Z</time>
      </trkpt>
      <trkpt lat="49.69588" lon="4.78895">
        <ele>145.87123</ele>
        <time>2021-04-22T12:31:25Z</time>
      </trkpt>
      <trkpt lat="49.69589" lon="4.78891">
        <ele>145.67638</ele>
        <time>2021-04-22T12:31:26Z</time>
      </trkpt>
      <trkpt lat="49.6959" lon="4.78886">
        <ele>146.03975</ele>
        <time>2021-04-22T12:31:27Z</time>
      </trkpt>
      <trkpt lat="49.6959" lon="4.78882">
        <ele>145.85542</ele>
        <time>2021-04-22T12:31:28Z</time>
      </trkpt>
      <trkpt lat="49.69591" lon="4.78878">
        <ele>145.83963</ele>
        <time>2021-04-22T12:31:29Z</time>
      </trkpt>
      <trkpt lat="49.69592" lon="4.78874">
        <ele>146.0608</ele>
        <time>2021-04-22T12:31:30Z</time>
      </trkpt>
      <trkpt lat="49.69592" lon="4.78869">
        <ele>146.08714</ele>
        <time>2021-04-22T12:31:31Z</time>
      </trkpt>
      <trkpt lat="49.69593" lon="4.78864">
        <ele>145.8291</ele>
        <time>2021-04-22T12:31:32Z</time>
      </trkpt>
      <trkpt lat="49.69594" lon="4.7886">
        <ele>145.83437</ele>
        <time>2021-04-22T12:31:33Z</time>
      </trkpt>
      <trkpt lat="49.69595" lon="4.78856">
        <ele>145.8449</ele>
        <time>2021-04-22T12:31:34Z</time>
      </trkpt>
      <trkpt lat="49.69596" lon="4.78853">
        <ele>146.00815</ele>
        <time>2021-04-22T12:31:35Z</time>
      </trkpt>
      <trkpt lat="49.69597" lon="4.78848">
        <ele>146.09767</ele>
        <time>2021-04-22T12:31:36Z</time>
      </trkpt>
      <trkpt lat="49.69597" lon="4.78844">
        <ele>146.04501</ele>
        <time>2021-04-22T12:31:37Z</time>
      </trkpt>
      <trkpt lat="49.69598" lon="4.7884">
        <ele>145.90282</ele>
        <time>2021-04-22T12:31:38Z</time>
      </trkpt>
      <trkpt lat="49.69599" lon="4.78836">
        <ele>146.18193</ele>
        <time>2021-04-22T12:31:39Z</time>
      </trkpt>
      <trkpt lat="49.696" lon="4.78831">
        <ele>145.75537</ele>
        <time>2021-04-22T12:31:40Z</time>
      </trkpt>
      <trkpt lat="49.696" lon="4.78827">
        <ele>145.61317</ele>
        <time>2021-04-22T12:31:41Z</time>
      </trkpt>
      <trkpt lat="49.696" lon="4.78824">
        <ele>145.43939</ele>
        <time>2021-04-22T12:31:42Z</time>
      </trkpt>
      <trkpt lat="49.696" lon="4.78821">
        <ele>145.68164</ele>
        <time>2021-04-22T12:31:43Z</time>
      </trkpt>
      <trkpt lat="49.69601" lon="4.78817">
        <ele>145.66585</ele>
        <time>2021-04-22T12:31:44Z</time>
      </trkpt>
      <trkpt lat="49.69601" lon="4.78812">
        <ele>145.53944</ele>
        <time>2021-04-22T12:31:45Z</time>
      </trkpt>
      <trkpt lat="49.69602" lon="4.78808">
        <ele>145.7975</ele>
        <time>2021-04-22T12:31:46Z</time>
      </trkpt>
      <trkpt lat="49.69603" lon="4.78804">
        <ele>145.72377</ele>
        <time>2021-04-22T12:31:47Z</time>
      </trkpt>
      <trkpt lat="49.69603" lon="4.78799">
        <ele>145.44466</ele>
        <time>2021-04-22T12:31:48Z</time>
      </trkpt>
      <trkpt lat="49.69605" lon="4.78794">
        <ele>145.67111</ele>
        <time>2021-04-22T12:31:49Z</time>
      </trkpt>
      <trkpt lat="49.69605" lon="4.78789">
        <ele>145.77116</ele>
        <time>2021-04-22T12:31:50Z</time>
      </trkpt>
      <trkpt lat="49.69606" lon="4.78785">
        <ele>145.44992</ele>
        <time>2021-04-22T12:31:51Z</time>
      </trkpt>
      <trkpt lat="49.69607" lon="4.78781">
        <ele>145.51312</ele>
        <time>2021-04-22T12:31:52Z</time>
      </trkpt>
      <trkpt lat="49.69608" lon="4.78777">
        <ele>145.66057</ele>
        <time>2021-04-22T12:31:53Z</time>
      </trkpt>
      <trkpt lat="49.69608" lon="4.78773">
        <ele>145.6237</ele>
        <time>2021-04-22T12:31:54Z</time>
      </trkpt>
      <trkpt lat="49.69609" lon="4.78769">
        <ele>145.35513</ele>
        <time>2021-04-22T12:31:55Z</time>
      </trkpt>
      <trkpt lat="49.69609" lon="4.78765">
        <ele>145.12341</ele>
        <time>2021-04-22T12:31:56Z</time>
      </trkpt>
      <trkpt lat="49.6961" lon="4.78761">
        <ele>145.40253</ele>
        <time>2021-04-22T12:31:57Z</time>
      </trkpt>
      <trkpt lat="49.6961" lon="4.78757">
        <ele>145.27087</ele>
        <time>2021-04-22T12:31:58Z</time>
      </trkpt>
      <trkpt lat="49.69611" lon="4.78754">
        <ele>145.29193</ele>
        <time>2021-04-22T12:31:59Z</time>
      </trkpt>
      <trkpt lat="49.69611" lon="4.7875">
        <ele>145.16554</ele>
        <time>2021-04-22T12:32:00Z</time>
      </trkpt>
      <trkpt lat="49.69611" lon="4.78747">
        <ele>145.10236</ele>
        <time>2021-04-22T12:32:01Z</time>
      </trkpt>
      <trkpt lat="49.69611" lon="4.78743">
        <ele>145.22874</ele>
        <time>2021-04-22T12:32:02Z</time>
      </trkpt>
      <trkpt lat="49.69611" lon="4.78739">
        <ele>145.20767</ele>
        <time>2021-04-22T12:32:03Z</time>
      </trkpt>
      <trkpt lat="49.69612" lon="4.78735">
        <ele>145.56052</ele>
        <time>2021-04-22T12:32:04Z</time>
      </trkpt>
      <trkpt lat="49.69613" lon="4.78731">
        <ele>145.36566</ele>
        <time>2021-04-22T12:32:05Z</time>
      </trkpt>
      <trkpt lat="49.69613" lon="4.78727">
        <ele>145.11815</ele>
        <time>2021-04-22T12:32:06Z</time>
      </trkpt>
      <trkpt lat="49.69613" lon="4.78723">
        <ele>145.23927</ele>
        <time>2021-04-22T12:32:07Z</time>
      </trkpt>
      <trkpt lat="49.69614" lon="4.78719">
        <ele>144.99702</ele>
        <time>2021-04-22T12:32:08Z</time>
      </trkpt>
      <trkpt lat="49.69615" lon="4.78715">
        <ele>145.11815</ele>
        <time>2021-04-22T12:32:09Z</time>
      </trkpt>
      <trkpt lat="49.69616" lon="4.78711">
        <ele>145.20241</ele>
        <time>2021-04-22T12:32:10Z</time>
      </trkpt>
      <trkpt lat="49.69616" lon="4.78707">
        <ele>144.99174</ele>
        <time>2021-04-22T12:32:11Z</time>
      </trkpt>
      <trkpt lat="49.69616" lon="4.78704">
        <ele>145.3604</ele>
        <time>2021-04-22T12:32:12Z</time>
      </trkpt>
      <trkpt lat="49.69617" lon="4.787">
        <ele>145.18134</ele>
        <time>2021-04-22T12:32:13Z</time>
      </trkpt>
      <trkpt lat="49.69618" lon="4.78698">
        <ele>145.40253</ele>
        <time>2021-04-22T12:32:14Z</time>
      </trkpt>
      <trkpt lat="49.69618" lon="4.78695">
        <ele>145.50786</ele>
        <time>2021-04-22T12:32:15Z</time>
      </trkpt>
      <trkpt lat="49.69619" lon="4.78691">
        <ele>145.35513</ele>
        <time>2021-04-22T12:32:16Z</time>
      </trkpt>
      <trkpt lat="49.6962" lon="4.78688">
        <ele>145.46571</ele>
        <time>2021-04-22T12:32:17Z</time>
      </trkpt>
      <trkpt lat="49.6962" lon="4.78683">
        <ele>145.48679</ele>
        <time>2021-04-22T12:32:18Z</time>
      </trkpt>
      <trkpt lat="49.6962" lon="4.78679">
        <ele>145.75537</ele>
        <time>2021-04-22T12:32:19Z</time>
      </trkpt>
      <trkpt lat="49.69621" lon="4.78676">
        <ele>145.83963</ele>
        <time>2021-04-22T12:32:20Z</time>
      </trkpt>
      <trkpt lat="49.69622" lon="4.78672">
        <ele>145.72377</ele>
        <time>2021-04-22T12:32:21Z</time>
      </trkpt>
      <trkpt lat="49.69622" lon="4.78668">
        <ele>145.8449</ele>
        <time>2021-04-22T12:32:22Z</time>
      </trkpt>
      <trkpt lat="49.69622" lon="4.78665">
        <ele>145.80803</ele>
        <time>2021-04-22T12:32:23Z</time>
      </trkpt>
      <trkpt lat="49.69622" lon="4.78661">
        <ele>145.67638</ele>
        <time>2021-04-22T12:32:24Z</time>
      </trkpt>
      <trkpt lat="49.69623" lon="4.78656">
        <ele>145.62898</ele>
        <time>2021-04-22T12:32:25Z</time>
      </trkpt>
      <trkpt lat="49.69624" lon="4.78651">
        <ele>145.78697</ele>
        <time>2021-04-22T12:32:26Z</time>
      </trkpt>
      <trkpt lat="49.69624" lon="4.78647">
        <ele>145.7817</ele>
        <time>2021-04-22T12:32:27Z</time>
      </trkpt>
      <trkpt lat="49.69624" lon="4.78643">
        <ele>145.56578</ele>
        <time>2021-04-22T12:32:28Z</time>
      </trkpt>
      <trkpt lat="49.69625" lon="4.7864">
        <ele>145.65004</ele>
        <time>2021-04-22T12:32:29Z</time>
      </trkpt>
      <trkpt lat="49.69626" lon="4.78635">
        <ele>146.03975</ele>
        <time>2021-04-22T12:32:30Z</time>
      </trkpt>
      <trkpt lat="49.69627" lon="4.78631">
        <ele>146.1714</ele>
        <time>2021-04-22T12:32:31Z</time>
      </trkpt>
      <trkpt lat="49.69627" lon="4.78627">
        <ele>146.02396</ele>
        <time>2021-04-22T12:32:32Z</time>
      </trkpt>
      <trkpt lat="49.69628" lon="4.78624">
        <ele>145.75009</ele>
        <time>2021-04-22T12:32:33Z</time>
      </trkpt>
      <trkpt lat="49.69629" lon="4.7862">
        <ele>145.66585</ele>
        <time>2021-04-22T12:32:34Z</time>
      </trkpt>
      <trkpt lat="49.69629" lon="4.78616">
        <ele>145.63425</ele>
        <time>2021-04-22T12:32:35Z</time>
      </trkpt>
      <trkpt lat="49.6963" lon="4.78612">
        <ele>145.64478</ele>
        <time>2021-04-22T12:32:36Z</time>
      </trkpt>
      <trkpt lat="49.69632" lon="4.78609">
        <ele>145.69217</ele>
        <time>2021-04-22T12:32:37Z</time>
      </trkpt>
      <trkpt lat="49.69633" lon="4.78605">
        <ele>145.68164</ele>
        <time>2021-04-22T12:32:38Z</time>
      </trkpt>
      <trkpt lat="49.69635" lon="4.78602">
        <ele>145.7817</ele>
        <time>2021-04-22T12:32:39Z</time>
      </trkpt>
      <trkpt lat="49.69636" lon="4.78597">
        <ele>145.80276</ele>
        <time>2021-04-22T12:32:40Z</time>
      </trkpt>
      <trkpt lat="49.69638" lon="4.78594">
        <ele>145.87123</ele>
        <time>2021-04-22T12:32:41Z</time>
      </trkpt>
      <trkpt lat="49.6964" lon="4.78591">
        <ele>145.75537</ele>
        <time>2021-04-22T12:32:42Z</time>
      </trkpt>
      <trkpt lat="49.69641" lon="4.78587">
        <ele>145.88176</ele>
        <time>2021-04-22T12:32:43Z</time>
      </trkpt>
      <trkpt lat="49.69643" lon="4.78584">
        <ele>145.88702</ele>
        <time>2021-04-22T12:32:44Z</time>
      </trkpt>
      <trkpt lat="49.69644" lon="4.7858">
        <ele>145.88702</ele>
        <time>2021-04-22T12:32:45Z</time>
      </trkpt>
      <trkpt lat="49.69646" lon="4.78576">
        <ele>146.10822</ele>
        <time>2021-04-22T12:32:46Z</time>
      </trkpt>
      <trkpt lat="49.69647" lon="4.78571">
        <ele>146.15034</ele>
        <time>2021-04-22T12:32:47Z</time>
      </trkpt>
      <trkpt lat="49.69648" lon="4.78568">
        <ele>146.36626</ele>
        <time>2021-04-22T12:32:48Z</time>
      </trkpt>
      <trkpt lat="49.6965" lon="4.78564">
        <ele>146.70331</ele>
        <time>2021-04-22T12:32:49Z</time>
      </trkpt>
      <trkpt lat="49.69651" lon="4.7856">
        <ele>146.3926</ele>
        <time>2021-04-22T12:32:50Z</time>
      </trkpt>
      <trkpt lat="49.69652" lon="4.78556">
        <ele>145.88176</ele>
        <time>2021-04-22T12:32:51Z</time>
      </trkpt>
      <trkpt lat="49.69653" lon="4.78552">
        <ele>145.7975</ele>
        <time>2021-04-22T12:32:52Z</time>
      </trkpt>
      <trkpt lat="49.69654" lon="4.78548">
        <ele>145.85542</ele>
        <time>2021-04-22T12:32:53Z</time>
      </trkpt>
      <trkpt lat="49.69656" lon="4.78544">
        <ele>145.69217</ele>
        <time>2021-04-22T12:32:54Z</time>
      </trkpt>
      <trkpt lat="49.69657" lon="4.7854">
        <ele>145.70271</ele>
        <time>2021-04-22T12:32:55Z</time>
      </trkpt>
      <trkpt lat="49.69658" lon="4.78535">
        <ele>145.92915</ele>
        <time>2021-04-22T12:32:56Z</time>
      </trkpt>
      <trkpt lat="49.69659" lon="4.78532">
        <ele>145.52365</ele>
        <time>2021-04-22T12:32:57Z</time>
      </trkpt>
      <trkpt lat="49.6966" lon="4.78528">
        <ele>145.91862</ele>
        <time>2021-04-22T12:32:58Z</time>
      </trkpt>
      <trkpt lat="49.69661" lon="4.78524">
        <ele>146.04501</ele>
        <time>2021-04-22T12:32:59Z</time>
      </trkpt>
      <trkpt lat="49.69662" lon="4.7852">
        <ele>146.01869</ele>
        <time>2021-04-22T12:33:00Z</time>
      </trkpt>
      <trkpt lat="49.69663" lon="4.78516">
        <ele>145.7975</ele>
        <time>2021-04-22T12:33:01Z</time>
      </trkpt>
      <trkpt lat="49.69665" lon="4.78513">
        <ele>145.7975</ele>
        <time>2021-04-22T12:33:02Z</time>
      </trkpt>
      <trkpt lat="49.69666" lon="4.78509">
        <ele>145.7975</ele>
        <time>2021-04-22T12:33:03Z</time>
      </trkpt>
      <trkpt lat="49.69667" lon="4.78505">
        <ele>145.6869</ele>
        <time>2021-04-22T12:33:04Z</time>
      </trkpt>
      <trkpt lat="49.69667" lon="4.78502">
        <ele>145.70271</ele>
        <time>2021-04-22T12:33:05Z</time>
      </trkpt>
      <trkpt lat="49.69669" lon="4.78497">
        <ele>145.72377</ele>
        <time>2021-04-22T12:33:06Z</time>
      </trkpt>
      <trkpt lat="49.69669" lon="4.78493">
        <ele>145.57632</ele>
        <time>2021-04-22T12:33:07Z</time>
      </trkpt>
      <trkpt lat="49.69671" lon="4.78489">
        <ele>145.54472</ele>
        <time>2021-04-22T12:33:08Z</time>
      </trkpt>
      <trkpt lat="49.69672" lon="4.78486">
        <ele>145.51312</ele>
        <time>2021-04-22T12:33:09Z</time>
      </trkpt>
      <trkpt lat="49.69673" lon="4.78482">
        <ele>145.53418</ele>
        <time>2021-04-22T12:33:10Z</time>
      </trkpt>
      <trkpt lat="49.69674" lon="4.78478">
        <ele>145.42886</ele>
        <time>2021-04-22T12:33:11Z</time>
      </trkpt>
      <trkpt lat="49.69674" lon="4.78474">
        <ele>145.54472</ele>
        <time>2021-04-22T12:33:12Z</time>
      </trkpt>
      <trkpt lat="49.69675" lon="4.7847">
        <ele>145.6237</ele>
        <time>2021-04-22T12:33:13Z</time>
      </trkpt>
      <trkpt lat="49.69676" lon="4.78466">
        <ele>145.65004</ele>
        <time>2021-04-22T12:33:14Z</time>
      </trkpt>
      <trkpt lat="49.69677" lon="4.78462">
        <ele>145.65004</ele>
        <time>2021-04-22T12:33:15Z</time>
      </trkpt>
      <trkpt lat="49.69678" lon="4.78457">
        <ele>145.83437</ele>
        <time>2021-04-22T12:33:16Z</time>
      </trkpt>
      <trkpt lat="49.69679" lon="4.78454">
        <ele>145.74483</ele>
        <time>2021-04-22T12:33:17Z</time>
      </trkpt>
      <trkpt lat="49.6968" lon="4.7845">
        <ele>145.65004</ele>
        <time>2021-04-22T12:33:18Z</time>
      </trkpt>
      <trkpt lat="49.69681" lon="4.78447">
        <ele>145.65004</ele>
        <time>2021-04-22T12:33:19Z</time>
      </trkpt>
      <trkpt lat="49.69682" lon="4.78444">
        <ele>145.50786</ele>
        <time>2021-04-22T12:33:20Z</time>
      </trkpt>
      <trkpt lat="49.69684" lon="4.78441">
        <ele>145.40779</ele>
        <time>2021-04-22T12:33:21Z</time>
      </trkpt>
      <trkpt lat="49.69685" lon="4.78438">
        <ele>145.392</ele>
        <time>2021-04-22T12:33:22Z</time>
      </trkpt>
      <trkpt lat="49.69685" lon="4.78434">
        <ele>145.48679</ele>
        <time>2021-04-22T12:33:23Z</time>
      </trkpt>
      <trkpt lat="49.69687" lon="4.7843">
        <ele>145.42886</ele>
        <time>2021-04-22T12:33:24Z</time>
      </trkpt>
      <trkpt lat="49.69687" lon="4.78427">
        <ele>145.313</ele>
        <time>2021-04-22T12:33:25Z</time>
      </trkpt>
      <trkpt lat="49.69688" lon="4.78424">
        <ele>145.471</ele>
        <time>2021-04-22T12:33:26Z</time>
      </trkpt>
      <trkpt lat="49.6969" lon="4.7842">
        <ele>145.3288</ele>
        <time>2021-04-22T12:33:27Z</time>
      </trkpt>
      <trkpt lat="49.6969" lon="4.78416">
        <ele>145.2182</ele>
        <time>2021-04-22T12:33:28Z</time>
      </trkpt>
      <trkpt lat="49.69692" lon="4.78412">
        <ele>145.61317</ele>
        <time>2021-04-22T12:33:29Z</time>
      </trkpt>
      <trkpt lat="49.69693" lon="4.78408">
        <ele>145.92389</ele>
        <time>2021-04-22T12:33:30Z</time>
      </trkpt>
      <trkpt lat="49.69694" lon="4.78405">
        <ele>145.6237</ele>
        <time>2021-04-22T12:33:31Z</time>
      </trkpt>
      <trkpt lat="49.69695" lon="4.78401">
        <ele>145.33932</ele>
        <time>2021-04-22T12:33:32Z</time>
      </trkpt>
      <trkpt lat="49.69696" lon="4.78396">
        <ele>145.19188</ele>
        <time>2021-04-22T12:33:33Z</time>
      </trkpt>
      <trkpt lat="49.69697" lon="4.78393">
        <ele>145.17607</ele>
        <time>2021-04-22T12:33:34Z</time>
      </trkpt>
      <trkpt lat="49.69698" lon="4.78388">
        <ele>145.1866</ele>
        <time>2021-04-22T12:33:35Z</time>
      </trkpt>
      <trkpt lat="49.697" lon="4.78384">
        <ele>145.32353</ele>
        <time>2021-04-22T12:33:36Z</time>
      </trkpt>
      <trkpt lat="49.69701" lon="4.7838">
        <ele>145.18134</ele>
        <time>2021-04-22T12:33:37Z</time>
      </trkpt>
      <trkpt lat="49.69701" lon="4.78377">
        <ele>144.98123</ele>
        <time>2021-04-22T12:33:38Z</time>
      </trkpt>
      <trkpt lat="49.69703" lon="4.78374">
        <ele>145.10236</ele>
        <time>2021-04-22T12:33:39Z</time>
      </trkpt>
      <trkpt lat="49.69703" lon="4.7837">
        <ele>144.88116</ele>
        <time>2021-04-22T12:33:40Z</time>
      </trkpt>
      <trkpt lat="49.69704" lon="4.78366">
        <ele>144.93909</ele>
        <time>2021-04-22T12:33:41Z</time>
      </trkpt>
      <trkpt lat="49.69705" lon="4.78362">
        <ele>144.96016</ele>
        <time>2021-04-22T12:33:42Z</time>
      </trkpt>
      <trkpt lat="49.69706" lon="4.78359">
        <ele>144.90749</ele>
        <time>2021-04-22T12:33:43Z</time>
      </trkpt>
      <trkpt lat="49.69708" lon="4.78354">
        <ele>144.92856</ele>
        <time>2021-04-22T12:33:44Z</time>
      </trkpt>
      <trkpt lat="49.69709" lon="4.78351">
        <ele>144.8443</ele>
        <time>2021-04-22T12:33:45Z</time>
      </trkpt>
      <trkpt lat="49.69709" lon="4.78347">
        <ele>144.78638</ele>
        <time>2021-04-22T12:33:46Z</time>
      </trkpt>
      <trkpt lat="49.6971" lon="4.78343">
        <ele>144.92856</ele>
        <time>2021-04-22T12:33:47Z</time>
      </trkpt>
      <trkpt lat="49.69711" lon="4.78339">
        <ele>144.96016</ele>
        <time>2021-04-22T12:33:48Z</time>
      </trkpt>
      <trkpt lat="49.69712" lon="4.78336">
        <ele>145.03915</ele>
        <time>2021-04-22T12:33:49Z</time>
      </trkpt>
      <trkpt lat="49.69713" lon="4.78332">
        <ele>145.28667</ele>
        <time>2021-04-22T12:33:50Z</time>
      </trkpt>
      <trkpt lat="49.69714" lon="4.78328">
        <ele>144.96016</ele>
        <time>2021-04-22T12:33:51Z</time>
      </trkpt>
      <trkpt lat="49.69715" lon="4.78324">
        <ele>145.16554</ele>
        <time>2021-04-22T12:33:52Z</time>
      </trkpt>
      <trkpt lat="49.69717" lon="4.7832">
        <ele>145.14973</ele>
        <time>2021-04-22T12:33:53Z</time>
      </trkpt>
      <trkpt lat="49.69718" lon="4.78317">
        <ele>145.3288</ele>
        <time>2021-04-22T12:33:54Z</time>
      </trkpt>
      <trkpt lat="49.6972" lon="4.78313">
        <ele>145.19188</ele>
        <time>2021-04-22T12:33:55Z</time>
      </trkpt>
      <trkpt lat="49.69721" lon="4.78309">
        <ele>145.12341</ele>
        <time>2021-04-22T12:33:56Z</time>
      </trkpt>
      <trkpt lat="49.69722" lon="4.78305">
        <ele>145.36566</ele>
        <time>2021-04-22T12:33:57Z</time>
      </trkpt>
      <trkpt lat="49.69723" lon="4.78301">
        <ele>145.58684</ele>
        <time>2021-04-22T12:33:58Z</time>
      </trkpt>
      <trkpt lat="49.69724" lon="4.78297">
        <ele>145.49731</ele>
        <time>2021-04-22T12:33:59Z</time>
      </trkpt>
      <trkpt lat="49.69726" lon="4.78292">
        <ele>145.46571</ele>
        <time>2021-04-22T12:34:00Z</time>
      </trkpt>
      <trkpt lat="49.69727" lon="4.78288">
        <ele>145.27087</ele>
        <time>2021-04-22T12:34:01Z</time>
      </trkpt>
      <trkpt lat="49.69729" lon="4.78284">
        <ele>145.28667</ele>
        <time>2021-04-22T12:34:02Z</time>
      </trkpt>
      <trkpt lat="49.69729" lon="4.78281">
        <ele>145.29721</ele>
        <time>2021-04-22T12:34:03Z</time>
      </trkpt>
      <trkpt lat="49.6973" lon="4.78277">
        <ele>145.18134</ele>
        <time>2021-04-22T12:34:04Z</time>
      </trkpt>
      <trkpt lat="49.69731" lon="4.78273">
        <ele>145.15501</ele>
        <time>2021-04-22T12:34:05Z</time>
      </trkpt>
      <trkpt lat="49.69732" lon="4.7827">
        <ele>145.16554</ele>
        <time>2021-04-22T12:34:06Z</time>
      </trkpt>
      <trkpt lat="49.69733" lon="4.78266">
        <ele>145.07602</ele>
        <time>2021-04-22T12:34:07Z</time>
      </trkpt>
      <trkpt lat="49.69735" lon="4.78263">
        <ele>145.09181</ele>
        <time>2021-04-22T12:34:08Z</time>
      </trkpt>
      <trkpt lat="49.69735" lon="4.78259">
        <ele>145.03389</ele>
        <time>2021-04-22T12:34:09Z</time>
      </trkpt>
      <trkpt lat="49.69737" lon="4.78256">
        <ele>144.88643</ele>
        <time>2021-04-22T12:34:10Z</time>
      </trkpt>
      <trkpt lat="49.69738" lon="4.78253">
        <ele>144.93909</ele>
        <time>2021-04-22T12:34:11Z</time>
      </trkpt>
      <trkpt lat="49.69739" lon="4.7825">
        <ele>144.96542</ele>
        <time>2021-04-22T12:34:12Z</time>
      </trkpt>
      <trkpt lat="49.6974" lon="4.78246">
        <ele>144.86536</ele>
        <time>2021-04-22T12:34:13Z</time>
      </trkpt>
      <trkpt lat="49.69741" lon="4.78243">
        <ele>145.2182</ele>
        <time>2021-04-22T12:34:14Z</time>
      </trkpt>
      <trkpt lat="49.69742" lon="4.78239">
        <ele>145.52365</ele>
        <time>2021-04-22T12:34:15Z</time>
      </trkpt>
      <trkpt lat="49.69743" lon="4.78235">
        <ele>145.37093</ele>
        <time>2021-04-22T12:34:16Z</time>
      </trkpt>
      <trkpt lat="49.69745" lon="4.7823">
        <ele>145.46571</ele>
        <time>2021-04-22T12:34:17Z</time>
      </trkpt>
      <trkpt lat="49.69746" lon="4.78227">
        <ele>144.7495</ele>
        <time>2021-04-22T12:34:18Z</time>
      </trkpt>
      <trkpt lat="49.69747" lon="4.78223">
        <ele>145.392</ele>
        <time>2021-04-22T12:34:19Z</time>
      </trkpt>
      <trkpt lat="49.69748" lon="4.7822">
        <ele>145.51839</ele>
        <time>2021-04-22T12:34:20Z</time>
      </trkpt>
      <trkpt lat="49.6975" lon="4.78216">
        <ele>145.3288</ele>
        <time>2021-04-22T12:34:21Z</time>
      </trkpt>
      <trkpt lat="49.69751" lon="4.78212">
        <ele>145.10236</ele>
        <time>2021-04-22T12:34:22Z</time>
      </trkpt>
      <trkpt lat="49.69752" lon="4.78209">
        <ele>145.07076</ele>
        <time>2021-04-22T12:34:23Z</time>
      </trkpt>
      <trkpt lat="49.69754" lon="4.78205">
        <ele>144.8917</ele>
        <time>2021-04-22T12:34:24Z</time>
      </trkpt>
      <trkpt lat="49.69756" lon="4.78202">
        <ele>144.93909</ele>
        <time>2021-04-22T12:34:25Z</time>
      </trkpt>
      <trkpt lat="49.69757" lon="4.78198">
        <ele>145.19714</ele>
        <time>2021-04-22T12:34:26Z</time>
      </trkpt>
      <trkpt lat="49.69758" lon="4.78195">
        <ele>145.09708</ele>
        <time>2021-04-22T12:34:27Z</time>
      </trkpt>
      <trkpt lat="49.6976" lon="4.7819">
        <ele>144.8759</ele>
        <time>2021-04-22T12:34:28Z</time>
      </trkpt>
      <trkpt lat="49.69761" lon="4.78187">
        <ele>145.12868</ele>
        <time>2021-04-22T12:34:29Z</time>
      </trkpt>
      <trkpt lat="49.69762" lon="4.78182">
        <ele>144.99702</ele>
        <time>2021-04-22T12:34:30Z</time>
      </trkpt>
      <trkpt lat="49.69764" lon="4.78179">
        <ele>144.68105</ele>
        <time>2021-04-22T12:34:31Z</time>
      </trkpt>
      <trkpt lat="49.69764" lon="4.78175">
        <ele>144.50198</ele>
        <time>2021-04-22T12:34:32Z</time>
      </trkpt>
      <trkpt lat="49.69766" lon="4.78171">
        <ele>144.47566</ele>
        <time>2021-04-22T12:34:33Z</time>
      </trkpt>
      <trkpt lat="49.69767" lon="4.78167">
        <ele>144.36507</ele>
        <time>2021-04-22T12:34:34Z</time>
      </trkpt>
      <trkpt lat="49.69768" lon="4.78163">
        <ele>144.47566</ele>
        <time>2021-04-22T12:34:35Z</time>
      </trkpt>
      <trkpt lat="49.6977" lon="4.7816">
        <ele>144.47566</ele>
        <time>2021-04-22T12:34:36Z</time>
      </trkpt>
      <trkpt lat="49.69771" lon="4.78157">
        <ele>144.41774</ele>
        <time>2021-04-22T12:34:37Z</time>
      </trkpt>
      <trkpt lat="49.69773" lon="4.78153">
        <ele>144.31767</ele>
        <time>2021-04-22T12:34:38Z</time>
      </trkpt>
      <trkpt lat="49.69775" lon="4.7815">
        <ele>144.4704</ele>
        <time>2021-04-22T12:34:39Z</time>
      </trkpt>
      <trkpt lat="49.69776" lon="4.78146">
        <ele>144.52306</ele>
        <time>2021-04-22T12:34:40Z</time>
      </trkpt>
      <trkpt lat="49.69777" lon="4.78142">
        <ele>144.55992</ele>
        <time>2021-04-22T12:34:41Z</time>
      </trkpt>
      <trkpt lat="49.69778" lon="4.78137">
        <ele>144.57045</ele>
        <time>2021-04-22T12:34:42Z</time>
      </trkpt>
      <trkpt lat="49.6978" lon="4.78133">
        <ele>144.83377</ele>
        <time>2021-04-22T12:34:43Z</time>
      </trkpt>
      <trkpt lat="49.69781" lon="4.78129">
        <ele>144.60205</ele>
        <time>2021-04-22T12:34:44Z</time>
      </trkpt>
      <trkpt lat="49.69782" lon="4.78126">
        <ele>144.48619</ele>
        <time>2021-04-22T12:34:45Z</time>
      </trkpt>
      <trkpt lat="49.69782" lon="4.78123">
        <ele>144.53885</ele>
        <time>2021-04-22T12:34:46Z</time>
      </trkpt>
      <trkpt lat="49.69783" lon="4.7812">
        <ele>144.3598</ele>
        <time>2021-04-22T12:34:47Z</time>
      </trkpt>
      <trkpt lat="49.69785" lon="4.78117">
        <ele>144.3756</ele>
        <time>2021-04-22T12:34:48Z</time>
      </trkpt>
      <trkpt lat="49.69786" lon="4.78114">
        <ele>144.44933</ele>
        <time>2021-04-22T12:34:49Z</time>
      </trkpt>
      <trkpt lat="49.69787" lon="4.7811">
        <ele>144.42825</ele>
        <time>2021-04-22T12:34:50Z</time>
      </trkpt>
      <trkpt lat="49.69788" lon="4.78106">
        <ele>144.42299</ele>
        <time>2021-04-22T12:34:51Z</time>
      </trkpt>
      <trkpt lat="49.6979" lon="4.78101">
        <ele>144.60205</ele>
        <time>2021-04-22T12:34:52Z</time>
      </trkpt>
      <trkpt lat="49.69791" lon="4.78097">
        <ele>144.40193</ele>
        <time>2021-04-22T12:34:53Z</time>
      </trkpt>
      <trkpt lat="49.69793" lon="4.78093">
        <ele>144.41246</ele>
        <time>2021-04-22T12:34:54Z</time>
      </trkpt>
      <trkpt lat="49.69795" lon="4.7809">
        <ele>144.25447</ele>
        <time>2021-04-22T12:34:55Z</time>
      </trkpt>
      <trkpt lat="49.69796" lon="4.78086">
        <ele>144.59679</ele>
        <time>2021-04-22T12:34:56Z</time>
      </trkpt>
      <trkpt lat="49.69798" lon="4.78083">
        <ele>144.72318</ele>
        <time>2021-04-22T12:34:57Z</time>
      </trkpt>
      <trkpt lat="49.69799" lon="4.7808">
        <ele>144.5915</ele>
        <time>2021-04-22T12:34:58Z</time>
      </trkpt>
      <trkpt lat="49.698" lon="4.78077">
        <ele>144.75478</ele>
        <time>2021-04-22T12:34:59Z</time>
      </trkpt>
      <trkpt lat="49.69801" lon="4.78074">
        <ele>144.49672</ele>
        <time>2021-04-22T12:35:00Z</time>
      </trkpt>
      <trkpt lat="49.69803" lon="4.78071">
        <ele>144.69157</ele>
        <time>2021-04-22T12:35:01Z</time>
      </trkpt>
      <trkpt lat="49.69804" lon="4.78067">
        <ele>144.64944</ele>
        <time>2021-04-22T12:35:02Z</time>
      </trkpt>
      <trkpt lat="49.69805" lon="4.78064">
        <ele>144.61258</ele>
        <time>2021-04-22T12:35:03Z</time>
      </trkpt>
      <trkpt lat="49.69806" lon="4.78061">
        <ele>144.68105</ele>
        <time>2021-04-22T12:35:04Z</time>
      </trkpt>
      <trkpt lat="49.69807" lon="4.78058">
        <ele>144.48619</ele>
        <time>2021-04-22T12:35:05Z</time>
      </trkpt>
      <trkpt lat="49.69809" lon="4.78055">
        <ele>144.77583</ele>
        <time>2021-04-22T12:35:06Z</time>
      </trkpt>
      <trkpt lat="49.6981" lon="4.78051">
        <ele>144.69157</ele>
        <time>2021-04-22T12:35:07Z</time>
      </trkpt>
      <trkpt lat="49.69811" lon="4.78048">
        <ele>144.5915</ele>
        <time>2021-04-22T12:35:08Z</time>
      </trkpt>
      <trkpt lat="49.69812" lon="4.78045">
        <ele>144.4388</ele>
        <time>2021-04-22T12:35:09Z</time>
      </trkpt>
      <trkpt lat="49.69813" lon="4.78042">
        <ele>144.28607</ele>
        <time>2021-04-22T12:35:10Z</time>
      </trkpt>
      <trkpt lat="49.69815" lon="4.7804">
        <ele>144.32294</ele>
        <time>2021-04-22T12:35:11Z</time>
      </trkpt>
      <trkpt lat="49.69816" lon="4.78037">
        <ele>144.3282</ele>
        <time>2021-04-22T12:35:12Z</time>
      </trkpt>
      <trkpt lat="49.69817" lon="4.78034">
        <ele>144.52832</ele>
        <time>2021-04-22T12:35:13Z</time>
      </trkpt>
      <trkpt lat="49.69818" lon="4.78031">
        <ele>144.51779</ele>
        <time>2021-04-22T12:35:14Z</time>
      </trkpt>
      <trkpt lat="49.69819" lon="4.78028">
        <ele>144.44933</ele>
        <time>2021-04-22T12:35:15Z</time>
      </trkpt>
      <trkpt lat="49.6982" lon="4.78023">
        <ele>144.39665</ele>
        <time>2021-04-22T12:35:16Z</time>
      </trkpt>
      <trkpt lat="49.69821" lon="4.7802">
        <ele>144.38614</ele>
        <time>2021-04-22T12:35:17Z</time>
      </trkpt>
      <trkpt lat="49.69822" lon="4.78017">
        <ele>144.5494</ele>
        <time>2021-04-22T12:35:18Z</time>
      </trkpt>
      <trkpt lat="49.69824" lon="4.78013">
        <ele>144.59679</ele>
        <time>2021-04-22T12:35:19Z</time>
      </trkpt>
      <trkpt lat="49.69824" lon="4.7801">
        <ele>144.61258</ele>
        <time>2021-04-22T12:35:20Z</time>
      </trkpt>
      <trkpt lat="49.69825" lon="4.78006">
        <ele>144.71263</ele>
        <time>2021-04-22T12:35:21Z</time>
      </trkpt>
      <trkpt lat="49.69827" lon="4.78003">
        <ele>144.45459</ele>
        <time>2021-04-22T12:35:22Z</time>
      </trkpt>
      <trkpt lat="49.69828" lon="4.77999">
        <ele>144.5915</ele>
        <time>2021-04-22T12:35:23Z</time>
      </trkpt>
      <trkpt lat="49.69829" lon="4.77995">
        <ele>144.4388</ele>
        <time>2021-04-22T12:35:24Z</time>
      </trkpt>
      <trkpt lat="49.6983" lon="4.77992">
        <ele>144.57571</ele>
        <time>2021-04-22T12:35:25Z</time>
      </trkpt>
      <trkpt lat="49.69831" lon="4.77989">
        <ele>144.59679</ele>
        <time>2021-04-22T12:35:26Z</time>
      </trkpt>
      <trkpt lat="49.69832" lon="4.77986">
        <ele>144.57045</ele>
        <time>2021-04-22T12:35:27Z</time>
      </trkpt>
      <trkpt lat="49.69833" lon="4.77983">
        <ele>144.71791</ele>
        <time>2021-04-22T12:35:28Z</time>
      </trkpt>
      <trkpt lat="49.69834" lon="4.77979">
        <ele>144.60205</ele>
        <time>2021-04-22T12:35:29Z</time>
      </trkpt>
      <trkpt lat="49.69836" lon="4.77976">
        <ele>144.71791</ele>
        <time>2021-04-22T12:35:30Z</time>
      </trkpt>
      <trkpt lat="49.69837" lon="4.77972">
        <ele>144.52832</ele>
        <time>2021-04-22T12:35:31Z</time>
      </trkpt>
      <trkpt lat="49.69838" lon="4.77968">
        <ele>144.48093</ele>
        <time>2021-04-22T12:35:32Z</time>
      </trkpt>
      <trkpt lat="49.6984" lon="4.77965">
        <ele>144.62839</ele>
        <time>2021-04-22T12:35:33Z</time>
      </trkpt>
      <trkpt lat="49.69841" lon="4.77961">
        <ele>144.70737</ele>
        <time>2021-04-22T12:35:34Z</time>
      </trkpt>
      <trkpt lat="49.69843" lon="4.77958">
        <ele>144.59679</ele>
        <time>2021-04-22T12:35:35Z</time>
      </trkpt>
      <trkpt lat="49.69844" lon="4.77954">
        <ele>144.75478</ele>
        <time>2021-04-22T12:35:36Z</time>
      </trkpt>
      <trkpt lat="49.69846" lon="4.77951">
        <ele>144.87062</ele>
        <time>2021-04-22T12:35:37Z</time>
      </trkpt>
      <trkpt lat="49.69848" lon="4.77947">
        <ele>144.7337</ele>
        <time>2021-04-22T12:35:38Z</time>
      </trkpt>
      <trkpt lat="49.69849" lon="4.77943">
        <ele>145.00755</ele>
        <time>2021-04-22T12:35:39Z</time>
      </trkpt>
      <trkpt lat="49.6985" lon="4.7794">
        <ele>144.93909</ele>
        <time>2021-04-22T12:35:40Z</time>
      </trkpt>
      <trkpt lat="49.69852" lon="4.77937">
        <ele>145.07602</ele>
        <time>2021-04-22T12:35:41Z</time>
      </trkpt>
      <trkpt lat="49.69853" lon="4.77933">
        <ele>145.10762</ele>
        <time>2021-04-22T12:35:42Z</time>
      </trkpt>
      <trkpt lat="49.69854" lon="4.7793">
        <ele>145.09708</ele>
        <time>2021-04-22T12:35:43Z</time>
      </trkpt>
      <trkpt lat="49.69856" lon="4.77927">
        <ele>144.70737</ele>
        <time>2021-04-22T12:35:44Z</time>
      </trkpt>
      <trkpt lat="49.69857" lon="4.77924">
        <ele>144.86536</ele>
        <time>2021-04-22T12:35:45Z</time>
      </trkpt>
      <trkpt lat="49.69859" lon="4.77921">
        <ele>144.96542</ele>
        <time>2021-04-22T12:35:46Z</time>
      </trkpt>
      <trkpt lat="49.6986" lon="4.77917">
        <ele>144.77057</ele>
        <time>2021-04-22T12:35:47Z</time>
      </trkpt>
      <trkpt lat="49.69861" lon="4.77914">
        <ele>144.97069</ele>
        <time>2021-04-22T12:35:48Z</time>
      </trkpt>
      <trkpt lat="49.69863" lon="4.7791">
        <ele>144.87062</ele>
        <time>2021-04-22T12:35:49Z</time>
      </trkpt>
      <trkpt lat="49.69864" lon="4.77907">
        <ele>144.83904</ele>
        <time>2021-04-22T12:35:50Z</time>
      </trkpt>
      <trkpt lat="49.69865" lon="4.77904">
        <ele>145.3604</ele>
        <time>2021-04-22T12:35:51Z</time>
      </trkpt>
      <trkpt lat="49.69865" lon="4.77901">
        <ele>145.26035</ele>
        <time>2021-04-22T12:35:52Z</time>
      </trkpt>
      <trkpt lat="49.69867" lon="4.77898">
        <ele>145.67111</ele>
        <time>2021-04-22T12:35:53Z</time>
      </trkpt>
      <trkpt lat="49.69868" lon="4.77895">
        <ele>145.52892</ele>
        <time>2021-04-22T12:35:54Z</time>
      </trkpt>
      <trkpt lat="49.69869" lon="4.77891">
        <ele>145.61317</ele>
        <time>2021-04-22T12:35:55Z</time>
      </trkpt>
      <trkpt lat="49.69869" lon="4.77889">
        <ele>145.08128</ele>
        <time>2021-04-22T12:35:56Z</time>
      </trkpt>
      <trkpt lat="49.69869" lon="4.77889">
        <ele>144.52832</ele>
        <time>2021-04-22T12:35:57Z</time>
      </trkpt>
      <trkpt lat="49.69869" lon="4.77888">
        <ele>144.52832</ele>
        <time>2021-04-22T12:35:58Z</time>
      </trkpt>
      <trkpt lat="49.69869" lon="4.77888">
        <ele>144.3756</ele>
        <time>2021-04-22T12:35:59Z</time>
      </trkpt>
      <trkpt lat="49.69869" lon="4.77888">
        <ele>144.4704</ele>
        <time>2021-04-22T12:36:00Z</time>
      </trkpt>
      <trkpt lat="49.69869" lon="4.77888">
        <ele>144.4704</ele>
        <time>2021-04-22T12:36:00Z</time>
      </trkpt>
      <trkpt lat="49.69869" lon="4.77888">
        <ele>144.4704</ele>
        <time>2021-04-22T12:36:00Z</time>
      </trkpt>
      <trkpt lat="49.69877" lon="4.77865">
        <ele>144.3914</ele>
        <time>2021-04-22T12:36:48Z</time>
      </trkpt>
      <trkpt lat="49.69878" lon="4.77862">
        <ele>144.51779</ele>
        <time>2021-04-22T12:36:49Z</time>
      </trkpt>
      <trkpt lat="49.6988" lon="4.7786">
        <ele>144.56519</ele>
        <time>2021-04-22T12:36:50Z</time>
      </trkpt>
      <trkpt lat="49.69881" lon="4.77857">
        <ele>144.69684</ele>
        <time>2021-04-22T12:36:51Z</time>
      </trkpt>
      <trkpt lat="49.69883" lon="4.77855">
        <ele>144.70737</ele>
        <time>2021-04-22T12:36:52Z</time>
      </trkpt>
      <trkpt lat="49.69884" lon="4.77852">
        <ele>144.50198</ele>
        <time>2021-04-22T12:36:53Z</time>
      </trkpt>
      <trkpt lat="49.69886" lon="4.77849">
        <ele>144.99174</ele>
        <time>2021-04-22T12:36:54Z</time>
      </trkpt>
      <trkpt lat="49.69888" lon="4.77846">
        <ele>144.44933</ele>
        <time>2021-04-22T12:36:55Z</time>
      </trkpt>
      <trkpt lat="49.6989" lon="4.77842">
        <ele>144.67578</ele>
        <time>2021-04-22T12:36:56Z</time>
      </trkpt>
      <trkpt lat="49.69892" lon="4.77839">
        <ele>144.97069</ele>
        <time>2021-04-22T12:36:57Z</time>
      </trkpt>
      <trkpt lat="49.69893" lon="4.77836">
        <ele>145.07602</ele>
        <time>2021-04-22T12:36:58Z</time>
      </trkpt>
      <trkpt lat="49.69895" lon="4.77834">
        <ele>144.68105</ele>
        <time>2021-04-22T12:36:59Z</time>
      </trkpt>
      <trkpt lat="49.69897" lon="4.7783">
        <ele>145.10236</ele>
        <time>2021-04-22T12:37:00Z</time>
      </trkpt>
      <trkpt lat="49.69899" lon="4.77827">
        <ele>145.2814</ele>
        <time>2021-04-22T12:37:01Z</time>
      </trkpt>
      <trkpt lat="49.699" lon="4.77824">
        <ele>145.48152</ele>
        <time>2021-04-22T12:37:02Z</time>
      </trkpt>
      <trkpt lat="49.69902" lon="4.7782">
        <ele>145.64478</ele>
        <time>2021-04-22T12:37:03Z</time>
      </trkpt>
      <trkpt lat="49.69904" lon="4.77817">
        <ele>145.26035</ele>
        <time>2021-04-22T12:37:04Z</time>
      </trkpt>
      <trkpt lat="49.69906" lon="4.77814">
        <ele>145.01282</ele>
        <time>2021-04-22T12:37:05Z</time>
      </trkpt>
      <trkpt lat="49.69907" lon="4.77811">
        <ele>145.11815</ele>
        <time>2021-04-22T12:37:06Z</time>
      </trkpt>
      <trkpt lat="49.6991" lon="4.77808">
        <ele>145.09708</ele>
        <time>2021-04-22T12:37:07Z</time>
      </trkpt>
      <trkpt lat="49.69912" lon="4.77806">
        <ele>145.1866</ele>
        <time>2021-04-22T12:37:08Z</time>
      </trkpt>
      <trkpt lat="49.69914" lon="4.77803">
        <ele>144.91803</ele>
        <time>2021-04-22T12:37:09Z</time>
      </trkpt>
      <trkpt lat="49.69916" lon="4.77801">
        <ele>144.65997</ele>
        <time>2021-04-22T12:37:10Z</time>
      </trkpt>
      <trkpt lat="49.69918" lon="4.77798">
        <ele>144.71263</ele>
        <time>2021-04-22T12:37:11Z</time>
      </trkpt>
      <trkpt lat="49.6992" lon="4.77795">
        <ele>144.5915</ele>
        <time>2021-04-22T12:37:12Z</time>
      </trkpt>
      <trkpt lat="49.69923" lon="4.77792">
        <ele>144.41774</ele>
        <time>2021-04-22T12:37:13Z</time>
      </trkpt>
      <trkpt lat="49.69925" lon="4.77789">
        <ele>144.67578</ele>
        <time>2021-04-22T12:37:14Z</time>
      </trkpt>
      <trkpt lat="49.69927" lon="4.77787">
        <ele>144.83377</ele>
        <time>2021-04-22T12:37:15Z</time>
      </trkpt>
      <trkpt lat="49.69929" lon="4.77783">
        <ele>144.49672</ele>
        <time>2021-04-22T12:37:16Z</time>
      </trkpt>
      <trkpt lat="49.69931" lon="4.77779">
        <ele>144.58624</ele>
        <time>2021-04-22T12:37:17Z</time>
      </trkpt>
      <trkpt lat="49.69933" lon="4.77776">
        <ele>144.87062</ele>
        <time>2021-04-22T12:37:18Z</time>
      </trkpt>
      <trkpt lat="49.69936" lon="4.77772">
        <ele>144.72318</ele>
        <time>2021-04-22T12:37:19Z</time>
      </trkpt>
      <trkpt lat="49.69938" lon="4.77769">
        <ele>144.45459</ele>
        <time>2021-04-22T12:37:20Z</time>
      </trkpt>
      <trkpt lat="49.6994" lon="4.77765">
        <ele>144.77583</ele>
        <time>2021-04-22T12:37:21Z</time>
      </trkpt>
      <trkpt lat="49.69943" lon="4.77762">
        <ele>144.8917</ele>
        <time>2021-04-22T12:37:22Z</time>
      </trkpt>
      <trkpt lat="49.69944" lon="4.77759">
        <ele>144.8285</ele>
        <time>2021-04-22T12:37:23Z</time>
      </trkpt>
      <trkpt lat="49.69947" lon="4.77756">
        <ele>145.08655</ele>
        <time>2021-04-22T12:37:24Z</time>
      </trkpt>
      <trkpt lat="49.69948" lon="4.77753">
        <ele>144.99174</ele>
        <time>2021-04-22T12:37:25Z</time>
      </trkpt>
      <trkpt lat="49.6995" lon="4.7775">
        <ele>144.76004</ele>
        <time>2021-04-22T12:37:26Z</time>
      </trkpt>
      <trkpt lat="49.69952" lon="4.77747">
        <ele>144.8285</ele>
        <time>2021-04-22T12:37:27Z</time>
      </trkpt>
      <trkpt lat="49.69954" lon="4.77745">
        <ele>144.76004</ele>
        <time>2021-04-22T12:37:28Z</time>
      </trkpt>
      <trkpt lat="49.69957" lon="4.77742">
        <ele>144.7811</ele>
        <time>2021-04-22T12:37:29Z</time>
      </trkpt>
      <trkpt lat="49.69958" lon="4.7774">
        <ele>144.7969</ele>
        <time>2021-04-22T12:37:30Z</time>
      </trkpt>
      <trkpt lat="49.6996" lon="4.77737">
        <ele>144.86536</ele>
        <time>2021-04-22T12:37:31Z</time>
      </trkpt>
      <trkpt lat="49.69962" lon="4.77733">
        <ele>144.7811</ele>
        <time>2021-04-22T12:37:32Z</time>
      </trkpt>
      <trkpt lat="49.69964" lon="4.7773">
        <ele>144.92856</ele>
        <time>2021-04-22T12:37:33Z</time>
      </trkpt>
      <trkpt lat="49.69966" lon="4.77728">
        <ele>144.94437</ele>
        <time>2021-04-22T12:37:34Z</time>
      </trkpt>
      <trkpt lat="49.69968" lon="4.77725">
        <ele>144.77057</ele>
        <time>2021-04-22T12:37:35Z</time>
      </trkpt>
      <trkpt lat="49.6997" lon="4.77722">
        <ele>145.02335</ele>
        <time>2021-04-22T12:37:36Z</time>
      </trkpt>
      <trkpt lat="49.69972" lon="4.77719">
        <ele>144.93382</ele>
        <time>2021-04-22T12:37:37Z</time>
      </trkpt>
      <trkpt lat="49.69975" lon="4.77717">
        <ele>144.7811</ele>
        <time>2021-04-22T12:37:38Z</time>
      </trkpt>
      <trkpt lat="49.69977" lon="4.77714">
        <ele>145.06021</ele>
        <time>2021-04-22T12:37:39Z</time>
      </trkpt>
      <trkpt lat="49.69979" lon="4.77711">
        <ele>144.96542</ele>
        <time>2021-04-22T12:37:40Z</time>
      </trkpt>
      <trkpt lat="49.69981" lon="4.77708">
        <ele>144.96016</ele>
        <time>2021-04-22T12:37:41Z</time>
      </trkpt>
      <trkpt lat="49.69983" lon="4.77704">
        <ele>145.01282</ele>
        <time>2021-04-22T12:37:42Z</time>
      </trkpt>
      <trkpt lat="49.69986" lon="4.77701">
        <ele>145.17607</ele>
        <time>2021-04-22T12:37:43Z</time>
      </trkpt>
      <trkpt lat="49.69988" lon="4.77699">
        <ele>145.17607</ele>
        <time>2021-04-22T12:37:44Z</time>
      </trkpt>
      <trkpt lat="49.6999" lon="4.77695">
        <ele>144.97595</ele>
        <time>2021-04-22T12:37:45Z</time>
      </trkpt>
      <trkpt lat="49.69992" lon="4.77692">
        <ele>145.23401</ele>
        <time>2021-04-22T12:37:46Z</time>
      </trkpt>
      <trkpt lat="49.69994" lon="4.77689">
        <ele>144.34927</ele>
        <time>2021-04-22T12:37:47Z</time>
      </trkpt>
      <trkpt lat="49.69997" lon="4.77686">
        <ele>145.04442</ele>
        <time>2021-04-22T12:37:48Z</time>
      </trkpt>
      <trkpt lat="49.69999" lon="4.77683">
        <ele>145.51312</ele>
        <time>2021-04-22T12:37:49Z</time>
      </trkpt>
      <trkpt lat="49.70001" lon="4.7768">
        <ele>145.76064</ele>
        <time>2021-04-22T12:37:50Z</time>
      </trkpt>
      <trkpt lat="49.70003" lon="4.77677">
        <ele>145.61317</ele>
        <time>2021-04-22T12:37:51Z</time>
      </trkpt>
      <trkpt lat="49.70005" lon="4.77674">
        <ele>145.46571</ele>
        <time>2021-04-22T12:37:52Z</time>
      </trkpt>
      <trkpt lat="49.70006" lon="4.77671">
        <ele>145.79224</ele>
        <time>2021-04-22T12:37:53Z</time>
      </trkpt>
      <trkpt lat="49.70007" lon="4.77667">
        <ele>146.0292</ele>
        <time>2021-04-22T12:37:54Z</time>
      </trkpt>
      <trkpt lat="49.70008" lon="4.77663">
        <ele>146.16614</ele>
        <time>2021-04-22T12:37:55Z</time>
      </trkpt>
      <trkpt lat="49.70008" lon="4.77659">
        <ele>146.04501</ele>
        <time>2021-04-22T12:37:56Z</time>
      </trkpt>
      <trkpt lat="49.70008" lon="4.77654">
        <ele>146.6243</ele>
        <time>2021-04-22T12:37:57Z</time>
      </trkpt>
      <trkpt lat="49.70008" lon="4.77649">
        <ele>146.86656</ele>
        <time>2021-04-22T12:37:58Z</time>
      </trkpt>
      <trkpt lat="49.70009" lon="4.77645">
        <ele>146.91396</ele>
        <time>2021-04-22T12:37:59Z</time>
      </trkpt>
      <trkpt lat="49.70009" lon="4.77641">
        <ele>147.50377</ele>
        <time>2021-04-22T12:38:00Z</time>
      </trkpt>
      <trkpt lat="49.7001" lon="4.77637">
        <ele>147.79343</ele>
        <time>2021-04-22T12:38:01Z</time>
      </trkpt>
      <trkpt lat="49.7001" lon="4.77633">
        <ele>147.43532</ele>
        <time>2021-04-22T12:38:02Z</time>
      </trkpt>
      <trkpt lat="49.70011" lon="4.77629">
        <ele>148.10414</ele>
        <time>2021-04-22T12:38:03Z</time>
      </trkpt>
      <trkpt lat="49.70012" lon="4.77626">
        <ele>148.4833</ele>
        <time>2021-04-22T12:38:04Z</time>
      </trkpt>
      <trkpt lat="49.70013" lon="4.77623">
        <ele>148.24634</ele>
        <time>2021-04-22T12:38:05Z</time>
      </trkpt>
      <trkpt lat="49.70015" lon="4.7762">
        <ele>148.80455</ele>
        <time>2021-04-22T12:38:06Z</time>
      </trkpt>
      <trkpt lat="49.70018" lon="4.7762">
        <ele>148.96254</ele>
        <time>2021-04-22T12:38:07Z</time>
      </trkpt>
      <trkpt lat="49.70021" lon="4.77623">
        <ele>148.77296</ele>
        <time>2021-04-22T12:38:08Z</time>
      </trkpt>
      <trkpt lat="49.70023" lon="4.77628">
        <ele>148.93095</ele>
        <time>2021-04-22T12:38:09Z</time>
      </trkpt>
      <trkpt lat="49.70025" lon="4.77632">
        <ele>149.031</ele>
        <time>2021-04-22T12:38:10Z</time>
      </trkpt>
      <trkpt lat="49.70026" lon="4.77637">
        <ele>148.94675</ele>
        <time>2021-04-22T12:38:11Z</time>
      </trkpt>
      <trkpt lat="49.70028" lon="4.77642">
        <ele>149.18373</ele>
        <time>2021-04-22T12:38:12Z</time>
      </trkpt>
      <trkpt lat="49.7003" lon="4.77646">
        <ele>149.69983</ele>
        <time>2021-04-22T12:38:13Z</time>
      </trkpt>
      <trkpt lat="49.70031" lon="4.7765">
        <ele>149.46811</ele>
        <time>2021-04-22T12:38:14Z</time>
      </trkpt>
      <trkpt lat="49.70033" lon="4.77654">
        <ele>149.49445</ele>
        <time>2021-04-22T12:38:15Z</time>
      </trkpt>
      <trkpt lat="49.70034" lon="4.77658">
        <ele>149.63136</ele>
        <time>2021-04-22T12:38:16Z</time>
      </trkpt>
      <trkpt lat="49.70036" lon="4.77662">
        <ele>149.62083</ele>
        <time>2021-04-22T12:38:17Z</time>
      </trkpt>
      <trkpt lat="49.70037" lon="4.77667">
        <ele>149.46284</ele>
        <time>2021-04-22T12:38:18Z</time>
      </trkpt>
      <trkpt lat="49.70039" lon="4.7767">
        <ele>149.46811</ele>
        <time>2021-04-22T12:38:19Z</time>
      </trkpt>
      <trkpt lat="49.70041" lon="4.77674">
        <ele>149.41019</ele>
        <time>2021-04-22T12:38:20Z</time>
      </trkpt>
      <trkpt lat="49.70042" lon="4.77676">
        <ele>149.189</ele>
        <time>2021-04-22T12:38:21Z</time>
      </trkpt>
      <trkpt lat="49.70043" lon="4.77679">
        <ele>149.34172</ele>
        <time>2021-04-22T12:38:22Z</time>
      </trkpt>
      <trkpt lat="49.70045" lon="4.77682">
        <ele>149.22586</ele>
        <time>2021-04-22T12:38:23Z</time>
      </trkpt>
      <trkpt lat="49.70047" lon="4.77684">
        <ele>149.05208</ele>
        <time>2021-04-22T12:38:24Z</time>
      </trkpt>
      <trkpt lat="49.70049" lon="4.77688">
        <ele>149.17319</ele>
        <time>2021-04-22T12:38:25Z</time>
      </trkpt>
      <trkpt lat="49.7005" lon="4.77692">
        <ele>149.03627</ele>
        <time>2021-04-22T12:38:26Z</time>
      </trkpt>
      <trkpt lat="49.70051" lon="4.77696">
        <ele>148.94675</ele>
        <time>2021-04-22T12:38:27Z</time>
      </trkpt>
      <trkpt lat="49.70052" lon="4.77699">
        <ele>149.12053</ele>
        <time>2021-04-22T12:38:28Z</time>
      </trkpt>
      <trkpt lat="49.70054" lon="4.77702">
        <ele>149.00467</ele>
        <time>2021-04-22T12:38:29Z</time>
      </trkpt>
      <trkpt lat="49.70055" lon="4.77705">
        <ele>149.28905</ele>
        <time>2021-04-22T12:38:30Z</time>
      </trkpt>
      <trkpt lat="49.70056" lon="4.77709">
        <ele>149.29959</ele>
        <time>2021-04-22T12:38:31Z</time>
      </trkpt>
      <trkpt lat="49.70057" lon="4.77713">
        <ele>149.5471</ele>
        <time>2021-04-22T12:38:32Z</time>
      </trkpt>
      <trkpt lat="49.70058" lon="4.77716">
        <ele>149.66823</ele>
        <time>2021-04-22T12:38:33Z</time>
      </trkpt>
      <trkpt lat="49.7006" lon="4.7772">
        <ele>149.69983</ele>
        <time>2021-04-22T12:38:34Z</time>
      </trkpt>
      <trkpt lat="49.70061" lon="4.77724">
        <ele>149.81042</ele>
        <time>2021-04-22T12:38:35Z</time>
      </trkpt>
      <trkpt lat="49.70063" lon="4.77727">
        <ele>149.83675</ele>
        <time>2021-04-22T12:38:36Z</time>
      </trkpt>
      <trkpt lat="49.70065" lon="4.7773">
        <ele>149.74196</ele>
        <time>2021-04-22T12:38:37Z</time>
      </trkpt>
      <trkpt lat="49.70067" lon="4.77734">
        <ele>149.87361</ele>
        <time>2021-04-22T12:38:38Z</time>
      </trkpt>
      <trkpt lat="49.70069" lon="4.77737">
        <ele>149.86835</ele>
        <time>2021-04-22T12:38:39Z</time>
      </trkpt>
      <trkpt lat="49.70071" lon="4.77742">
        <ele>149.72617</ele>
        <time>2021-04-22T12:38:40Z</time>
      </trkpt>
      <trkpt lat="49.70073" lon="4.77746">
        <ele>149.53131</ele>
        <time>2021-04-22T12:38:41Z</time>
      </trkpt>
      <trkpt lat="49.70074" lon="4.77751">
        <ele>149.38385</ele>
        <time>2021-04-22T12:38:42Z</time>
      </trkpt>
      <trkpt lat="49.70075" lon="4.77755">
        <ele>149.13632</ele>
        <time>2021-04-22T12:38:43Z</time>
      </trkpt>
      <trkpt lat="49.70075" lon="4.77758">
        <ele>148.89935</ele>
        <time>2021-04-22T12:38:44Z</time>
      </trkpt>
      <trkpt lat="49.70077" lon="4.77762">
        <ele>148.51491</ele>
        <time>2021-04-22T12:38:45Z</time>
      </trkpt>
      <trkpt lat="49.70081" lon="4.77764">
        <ele>148.33586</ele>
        <time>2021-04-22T12:38:46Z</time>
      </trkpt>
      <trkpt lat="49.70085" lon="4.77764">
        <ele>148.08835</ele>
        <time>2021-04-22T12:38:47Z</time>
      </trkpt>
      <trkpt lat="49.70087" lon="4.77762">
        <ele>147.88821</ele>
        <time>2021-04-22T12:38:48Z</time>
      </trkpt>
      <trkpt lat="49.7009" lon="4.7776">
        <ele>147.75656</ele>
        <time>2021-04-22T12:38:49Z</time>
      </trkpt>
      <trkpt lat="49.70092" lon="4.77758">
        <ele>147.69336</ele>
        <time>2021-04-22T12:38:50Z</time>
      </trkpt>
      <trkpt lat="49.70096" lon="4.77755">
        <ele>147.54591</ele>
        <time>2021-04-22T12:38:51Z</time>
      </trkpt>
      <trkpt lat="49.70099" lon="4.77752">
        <ele>147.38792</ele>
        <time>2021-04-22T12:38:52Z</time>
      </trkpt>
      <trkpt lat="49.70101" lon="4.77749">
        <ele>147.172</ele>
        <time>2021-04-22T12:38:53Z</time>
      </trkpt>
      <trkpt lat="49.70104" lon="4.77746">
        <ele>147.03508</ele>
        <time>2021-04-22T12:38:54Z</time>
      </trkpt>
      <trkpt lat="49.70107" lon="4.77744">
        <ele>146.80336</ele>
        <time>2021-04-22T12:38:55Z</time>
      </trkpt>
      <trkpt lat="49.70109" lon="4.77742">
        <ele>146.57692</ele>
        <time>2021-04-22T12:38:56Z</time>
      </trkpt>
      <trkpt lat="49.70111" lon="4.77739">
        <ele>146.3136</ele>
        <time>2021-04-22T12:38:57Z</time>
      </trkpt>
      <trkpt lat="49.70114" lon="4.77737">
        <ele>146.2188</ele>
        <time>2021-04-22T12:38:58Z</time>
      </trkpt>
      <trkpt lat="49.70117" lon="4.77734">
        <ele>146.25566</ele>
        <time>2021-04-22T12:38:59Z</time>
      </trkpt>
      <trkpt lat="49.7012" lon="4.77731">
        <ele>146.13982</ele>
        <time>2021-04-22T12:39:00Z</time>
      </trkpt>
      <trkpt lat="49.70123" lon="4.77727">
        <ele>145.91862</ele>
        <time>2021-04-22T12:39:01Z</time>
      </trkpt>
      <trkpt lat="49.70127" lon="4.77723">
        <ele>145.66585</ele>
        <time>2021-04-22T12:39:02Z</time>
      </trkpt>
      <trkpt lat="49.70129" lon="4.77721">
        <ele>145.55525</ele>
        <time>2021-04-22T12:39:03Z</time>
      </trkpt>
      <trkpt lat="49.70133" lon="4.77717">
        <ele>145.34459</ele>
        <time>2021-04-22T12:39:04Z</time>
      </trkpt>
      <trkpt lat="49.70136" lon="4.77714">
        <ele>145.43411</ele>
        <time>2021-04-22T12:39:05Z</time>
      </trkpt>
      <trkpt lat="49.7014" lon="4.7771">
        <ele>145.22346</ele>
        <time>2021-04-22T12:39:06Z</time>
      </trkpt>
      <trkpt lat="49.70144" lon="4.77706">
        <ele>145.27087</ele>
        <time>2021-04-22T12:39:07Z</time>
      </trkpt>
      <trkpt lat="49.70147" lon="4.77702">
        <ele>145.18134</ele>
        <time>2021-04-22T12:39:08Z</time>
      </trkpt>
      <trkpt lat="49.7015" lon="4.77699">
        <ele>145.20767</ele>
        <time>2021-04-22T12:39:09Z</time>
      </trkpt>
      <trkpt lat="49.70153" lon="4.77695">
        <ele>144.96542</ele>
        <time>2021-04-22T12:39:10Z</time>
      </trkpt>
      <trkpt lat="49.70156" lon="4.77691">
        <ele>144.91277</ele>
        <time>2021-04-22T12:39:11Z</time>
      </trkpt>
      <trkpt lat="49.70158" lon="4.77687">
        <ele>145.00229</ele>
        <time>2021-04-22T12:39:12Z</time>
      </trkpt>
      <trkpt lat="49.70161" lon="4.77683">
        <ele>145.10236</ele>
        <time>2021-04-22T12:39:13Z</time>
      </trkpt>
      <trkpt lat="49.70162" lon="4.77678">
        <ele>145.00755</ele>
        <time>2021-04-22T12:39:14Z</time>
      </trkpt>
      <trkpt lat="49.70164" lon="4.77674">
        <ele>144.98123</ele>
        <time>2021-04-22T12:39:15Z</time>
      </trkpt>
      <trkpt lat="49.70166" lon="4.77672">
        <ele>145.09708</ele>
        <time>2021-04-22T12:39:16Z</time>
      </trkpt>
      <trkpt lat="49.70168" lon="4.7767">
        <ele>145.09708</ele>
        <time>2021-04-22T12:39:17Z</time>
      </trkpt>
      <trkpt lat="49.7017" lon="4.77669">
        <ele>145.49731</ele>
        <time>2021-04-22T12:39:18Z</time>
      </trkpt>
      <trkpt lat="49.70172" lon="4.77667">
        <ele>145.2182</ele>
        <time>2021-04-22T12:39:19Z</time>
      </trkpt>
      <trkpt lat="49.70173" lon="4.77666">
        <ele>145.10762</ele>
        <time>2021-04-22T12:39:20Z</time>
      </trkpt>
      <trkpt lat="49.70174" lon="4.77664">
        <ele>144.9865</ele>
        <time>2021-04-22T12:39:21Z</time>
      </trkpt>
      <trkpt lat="49.70176" lon="4.77663">
        <ele>145.10762</ele>
        <time>2021-04-22T12:39:22Z</time>
      </trkpt>
      <trkpt lat="49.70177" lon="4.77662">
        <ele>145.50258</ele>
        <time>2021-04-22T12:39:23Z</time>
      </trkpt>
      <trkpt lat="49.70179" lon="4.7766">
        <ele>145.14973</ele>
        <time>2021-04-22T12:39:24Z</time>
      </trkpt>
      <trkpt lat="49.70181" lon="4.77658">
        <ele>145.33406</ele>
        <time>2021-04-22T12:39:25Z</time>
      </trkpt>
      <trkpt lat="49.70183" lon="4.77657">
        <ele>145.27614</ele>
        <time>2021-04-22T12:39:26Z</time>
      </trkpt>
      <trkpt lat="49.70185" lon="4.77655">
        <ele>145.30246</ele>
        <time>2021-04-22T12:39:27Z</time>
      </trkpt>
      <trkpt lat="49.70187" lon="4.77653">
        <ele>145.1708</ele>
        <time>2021-04-22T12:39:28Z</time>
      </trkpt>
      <trkpt lat="49.70189" lon="4.77651">
        <ele>145.13394</ele>
        <time>2021-04-22T12:39:29Z</time>
      </trkpt>
      <trkpt lat="49.70192" lon="4.77649">
        <ele>145.17607</ele>
        <time>2021-04-22T12:39:30Z</time>
      </trkpt>
      <trkpt lat="49.70194" lon="4.77647">
        <ele>145.18134</ele>
        <time>2021-04-22T12:39:31Z</time>
      </trkpt>
      <trkpt lat="49.70197" lon="4.77645">
        <ele>145.09708</ele>
        <time>2021-04-22T12:39:32Z</time>
      </trkpt>
      <trkpt lat="49.70199" lon="4.77644">
        <ele>145.00755</ele>
        <time>2021-04-22T12:39:33Z</time>
      </trkpt>
      <trkpt lat="49.70201" lon="4.77643">
        <ele>145.1866</ele>
        <time>2021-04-22T12:39:34Z</time>
      </trkpt>
      <trkpt lat="49.70203" lon="4.77642">
        <ele>145.392</ele>
        <time>2021-04-22T12:39:35Z</time>
      </trkpt>
      <trkpt lat="49.70205" lon="4.77641">
        <ele>144.97595</ele>
        <time>2021-04-22T12:39:36Z</time>
      </trkpt>
      <trkpt lat="49.70208" lon="4.7764">
        <ele>144.94437</ele>
        <time>2021-04-22T12:39:37Z</time>
      </trkpt>
      <trkpt lat="49.7021" lon="4.77639">
        <ele>145.2182</ele>
        <time>2021-04-22T12:39:38Z</time>
      </trkpt>
      <trkpt lat="49.70213" lon="4.77637">
        <ele>145.20767</ele>
        <time>2021-04-22T12:39:39Z</time>
      </trkpt>
      <trkpt lat="49.70215" lon="4.77636">
        <ele>145.22346</ele>
        <time>2021-04-22T12:39:40Z</time>
      </trkpt>
      <trkpt lat="49.70217" lon="4.77635">
        <ele>145.27087</ele>
        <time>2021-04-22T12:39:41Z</time>
      </trkpt>
      <trkpt lat="49.70219" lon="4.77633">
        <ele>145.27614</ele>
        <time>2021-04-22T12:39:42Z</time>
      </trkpt>
      <trkpt lat="49.70221" lon="4.77632">
        <ele>145.27087</ele>
        <time>2021-04-22T12:39:43Z</time>
      </trkpt>
      <trkpt lat="49.70224" lon="4.7763">
        <ele>145.14973</ele>
        <time>2021-04-22T12:39:44Z</time>
      </trkpt>
      <trkpt lat="49.70226" lon="4.77629">
        <ele>145.09181</ele>
        <time>2021-04-22T12:39:45Z</time>
      </trkpt>
      <trkpt lat="49.70228" lon="4.77627">
        <ele>145.26561</ele>
        <time>2021-04-22T12:39:46Z</time>
      </trkpt>
      <trkpt lat="49.70231" lon="4.77626">
        <ele>145.14449</ele>
        <time>2021-04-22T12:39:47Z</time>
      </trkpt>
      <trkpt lat="49.70233" lon="4.77624">
        <ele>145.20767</ele>
        <time>2021-04-22T12:39:48Z</time>
      </trkpt>
      <trkpt lat="49.70235" lon="4.77623">
        <ele>145.2498</ele>
        <time>2021-04-22T12:39:49Z</time>
      </trkpt>
      <trkpt lat="49.70238" lon="4.77621">
        <ele>145.12868</ele>
        <time>2021-04-22T12:39:50Z</time>
      </trkpt>
      <trkpt lat="49.7024" lon="4.77619">
        <ele>145.27087</ele>
        <time>2021-04-22T12:39:51Z</time>
      </trkpt>
      <trkpt lat="49.70242" lon="4.77617">
        <ele>145.29721</ele>
        <time>2021-04-22T12:39:52Z</time>
      </trkpt>
      <trkpt lat="49.70245" lon="4.77615">
        <ele>145.38145</ele>
        <time>2021-04-22T12:39:53Z</time>
      </trkpt>
      <trkpt lat="49.70247" lon="4.77613">
        <ele>145.34459</ele>
        <time>2021-04-22T12:39:54Z</time>
      </trkpt>
      <trkpt lat="49.70249" lon="4.77611">
        <ele>145.16554</ele>
        <time>2021-04-22T12:39:55Z</time>
      </trkpt>
      <trkpt lat="49.70252" lon="4.77609">
        <ele>145.47626</ele>
        <time>2021-04-22T12:39:56Z</time>
      </trkpt>
      <trkpt lat="49.70254" lon="4.77608">
        <ele>145.64478</ele>
        <time>2021-04-22T12:39:57Z</time>
      </trkpt>
      <trkpt lat="49.70256" lon="4.77606">
        <ele>145.46571</ele>
        <time>2021-04-22T12:39:58Z</time>
      </trkpt>
      <trkpt lat="49.70258" lon="4.77604">
        <ele>145.8291</ele>
        <time>2021-04-22T12:39:59Z</time>
      </trkpt>
      <trkpt lat="49.7026" lon="4.77603">
        <ele>145.58684</ele>
        <time>2021-04-22T12:40:01Z</time>
      </trkpt>
      <trkpt lat="49.70263" lon="4.77601">
        <ele>145.7975</ele>
        <time>2021-04-22T12:40:02Z</time>
      </trkpt>
      <trkpt lat="49.70264" lon="4.77599">
        <ele>145.62898</ele>
        <time>2021-04-22T12:40:03Z</time>
      </trkpt>
      <trkpt lat="49.70267" lon="4.77597">
        <ele>145.49731</ele>
        <time>2021-04-22T12:40:04Z</time>
      </trkpt>
      <trkpt lat="49.70269" lon="4.77595">
        <ele>145.72377</ele>
        <time>2021-04-22T12:40:05Z</time>
      </trkpt>
      <trkpt lat="49.70271" lon="4.77592">
        <ele>145.50258</ele>
        <time>2021-04-22T12:40:06Z</time>
      </trkpt>
      <trkpt lat="49.70274" lon="4.77591">
        <ele>145.51839</ele>
        <time>2021-04-22T12:40:07Z</time>
      </trkpt>
      <trkpt lat="49.70276" lon="4.77589">
        <ele>145.471</ele>
        <time>2021-04-22T12:40:08Z</time>
      </trkpt>
      <trkpt lat="49.70278" lon="4.77588">
        <ele>145.42886</ele>
        <time>2021-04-22T12:40:09Z</time>
      </trkpt>
      <trkpt lat="49.70281" lon="4.77586">
        <ele>145.392</ele>
        <time>2021-04-22T12:40:10Z</time>
      </trkpt>
      <trkpt lat="49.70283" lon="4.77585">
        <ele>145.77116</ele>
        <time>2021-04-22T12:40:11Z</time>
      </trkpt>
      <trkpt lat="49.70285" lon="4.77583">
        <ele>145.96075</ele>
        <time>2021-04-22T12:40:12Z</time>
      </trkpt>
      <trkpt lat="49.70288" lon="4.77581">
        <ele>145.85016</ele>
        <time>2021-04-22T12:40:13Z</time>
      </trkpt>
      <trkpt lat="49.70292" lon="4.7758">
        <ele>145.95023</ele>
        <time>2021-04-22T12:40:14Z</time>
      </trkpt>
      <trkpt lat="49.70295" lon="4.77578">
        <ele>146.03448</ele>
        <time>2021-04-22T12:40:15Z</time>
      </trkpt>
      <trkpt lat="49.70298" lon="4.77576">
        <ele>146.1872</ele>
        <time>2021-04-22T12:40:16Z</time>
      </trkpt>
      <trkpt lat="49.70301" lon="4.77574">
        <ele>146.01869</ele>
        <time>2021-04-22T12:40:17Z</time>
      </trkpt>
      <trkpt lat="49.70304" lon="4.77573">
        <ele>145.76064</ele>
        <time>2021-04-22T12:40:18Z</time>
      </trkpt>
      <trkpt lat="49.70307" lon="4.7757">
        <ele>145.66585</ele>
        <time>2021-04-22T12:40:19Z</time>
      </trkpt>
      <trkpt lat="49.70309" lon="4.77568">
        <ele>145.44992</ele>
        <time>2021-04-22T12:40:20Z</time>
      </trkpt>
      <trkpt lat="49.70312" lon="4.77567">
        <ele>145.67111</ele>
        <time>2021-04-22T12:40:21Z</time>
      </trkpt>
      <trkpt lat="49.70314" lon="4.77565">
        <ele>145.71324</ele>
        <time>2021-04-22T12:40:22Z</time>
      </trkpt>
      <trkpt lat="49.70317" lon="4.77563">
        <ele>145.55525</ele>
        <time>2021-04-22T12:40:23Z</time>
      </trkpt>
      <trkpt lat="49.70319" lon="4.77561">
        <ele>145.63951</ele>
        <time>2021-04-22T12:40:24Z</time>
      </trkpt>
      <trkpt lat="49.70322" lon="4.77559">
        <ele>145.77643</ele>
        <time>2021-04-22T12:40:25Z</time>
      </trkpt>
      <trkpt lat="49.70325" lon="4.77557">
        <ele>145.72377</ele>
        <time>2021-04-22T12:40:26Z</time>
      </trkpt>
      <trkpt lat="49.70327" lon="4.77555">
        <ele>145.56052</ele>
        <time>2021-04-22T12:40:27Z</time>
      </trkpt>
      <trkpt lat="49.7033" lon="4.77554">
        <ele>145.8449</ele>
        <time>2021-04-22T12:40:28Z</time>
      </trkpt>
      <trkpt lat="49.70332" lon="4.77552">
        <ele>145.70271</ele>
        <time>2021-04-22T12:40:29Z</time>
      </trkpt>
      <trkpt lat="49.70334" lon="4.77551">
        <ele>145.46571</ele>
        <time>2021-04-22T12:40:30Z</time>
      </trkpt>
      <trkpt lat="49.70337" lon="4.7755">
        <ele>145.81856</ele>
        <time>2021-04-22T12:40:31Z</time>
      </trkpt>
      <trkpt lat="49.70339" lon="4.77549">
        <ele>146.10822</ele>
        <time>2021-04-22T12:40:32Z</time>
      </trkpt>
      <trkpt lat="49.70342" lon="4.77547">
        <ele>145.85016</ele>
        <time>2021-04-22T12:40:33Z</time>
      </trkpt>
      <trkpt lat="49.70344" lon="4.77545">
        <ele>146.10822</ele>
        <time>2021-04-22T12:40:34Z</time>
      </trkpt>
      <trkpt lat="49.70347" lon="4.77543">
        <ele>145.76064</ele>
        <time>2021-04-22T12:40:35Z</time>
      </trkpt>
      <trkpt lat="49.7035" lon="4.7754">
        <ele>145.86597</ele>
        <time>2021-04-22T12:40:36Z</time>
      </trkpt>
      <trkpt lat="49.70352" lon="4.77539">
        <ele>146.18193</ele>
        <time>2021-04-22T12:40:37Z</time>
      </trkpt>
      <trkpt lat="49.70355" lon="4.77538">
        <ele>146.53477</ele>
        <time>2021-04-22T12:40:38Z</time>
      </trkpt>
      <trkpt lat="49.70358" lon="4.77536">
        <ele>146.35573</ele>
        <time>2021-04-22T12:40:39Z</time>
      </trkpt>
      <trkpt lat="49.7036" lon="4.77534">
        <ele>146.35573</ele>
        <time>2021-04-22T12:40:40Z</time>
      </trkpt>
      <trkpt lat="49.70363" lon="4.77532">
        <ele>146.51372</ele>
        <time>2021-04-22T12:40:41Z</time>
      </trkpt>
      <trkpt lat="49.70365" lon="4.77531">
        <ele>146.54004</ele>
        <time>2021-04-22T12:40:42Z</time>
      </trkpt>
      <trkpt lat="49.70368" lon="4.7753">
        <ele>146.282</ele>
        <time>2021-04-22T12:40:43Z</time>
      </trkpt>
      <trkpt lat="49.70371" lon="4.77528">
        <ele>146.37679</ele>
        <time>2021-04-22T12:40:44Z</time>
      </trkpt>
      <trkpt lat="49.70373" lon="4.77527">
        <ele>146.24513</ele>
        <time>2021-04-22T12:40:45Z</time>
      </trkpt>
      <trkpt lat="49.70375" lon="4.77525">
        <ele>146.11348</ele>
        <time>2021-04-22T12:40:46Z</time>
      </trkpt>
      <trkpt lat="49.70378" lon="4.77523">
        <ele>146.32939</ele>
        <time>2021-04-22T12:40:47Z</time>
      </trkpt>
      <trkpt lat="49.70381" lon="4.77521">
        <ele>146.38205</ele>
        <time>2021-04-22T12:40:48Z</time>
      </trkpt>
      <trkpt lat="49.70383" lon="4.77519">
        <ele>146.30307</ele>
        <time>2021-04-22T12:40:49Z</time>
      </trkpt>
      <trkpt lat="49.70386" lon="4.77517">
        <ele>146.2504</ele>
        <time>2021-04-22T12:40:50Z</time>
      </trkpt>
      <trkpt lat="49.70388" lon="4.77515">
        <ele>146.12401</ele>
        <time>2021-04-22T12:40:51Z</time>
      </trkpt>
      <trkpt lat="49.70391" lon="4.77513">
        <ele>146.0292</ele>
        <time>2021-04-22T12:40:52Z</time>
      </trkpt>
      <trkpt lat="49.70393" lon="4.77511">
        <ele>146.0608</ele>
        <time>2021-04-22T12:40:53Z</time>
      </trkpt>
      <trkpt lat="49.70396" lon="4.77509">
        <ele>146.16614</ele>
        <time>2021-04-22T12:40:54Z</time>
      </trkpt>
      <trkpt lat="49.70398" lon="4.77507">
        <ele>146.33992</ele>
        <time>2021-04-22T12:40:55Z</time>
      </trkpt>
      <trkpt lat="49.70401" lon="4.77505">
        <ele>146.62958</ele>
        <time>2021-04-22T12:40:56Z</time>
      </trkpt>
      <trkpt lat="49.70404" lon="4.77503">
        <ele>146.73491</ele>
        <time>2021-04-22T12:40:57Z</time>
      </trkpt>
      <trkpt lat="49.70406" lon="4.77501">
        <ele>146.44525</ele>
        <time>2021-04-22T12:40:58Z</time>
      </trkpt>
      <trkpt lat="49.70409" lon="4.77499">
        <ele>146.1714</ele>
        <time>2021-04-22T12:40:59Z</time>
      </trkpt>
      <trkpt lat="49.70412" lon="4.77498">
        <ele>146.39786</ele>
        <time>2021-04-22T12:41:00Z</time>
      </trkpt>
      <trkpt lat="49.70414" lon="4.77496">
        <ele>146.54004</ele>
        <time>2021-04-22T12:41:01Z</time>
      </trkpt>
      <trkpt lat="49.70417" lon="4.77494">
        <ele>146.25566</ele>
        <time>2021-04-22T12:41:02Z</time>
      </trkpt>
      <trkpt lat="49.70419" lon="4.77493">
        <ele>146.50317</ele>
        <time>2021-04-22T12:41:03Z</time>
      </trkpt>
      <trkpt lat="49.70422" lon="4.77491">
        <ele>146.43999</ele>
        <time>2021-04-22T12:41:04Z</time>
      </trkpt>
      <trkpt lat="49.70424" lon="4.77489">
        <ele>146.10822</ele>
        <time>2021-04-22T12:41:05Z</time>
      </trkpt>
      <trkpt lat="49.70427" lon="4.77487">
        <ele>145.97655</ele>
        <time>2021-04-22T12:41:06Z</time>
      </trkpt>
      <trkpt lat="49.7043" lon="4.77485">
        <ele>145.69217</ele>
        <time>2021-04-22T12:41:07Z</time>
      </trkpt>
      <trkpt lat="49.70432" lon="4.77483">
        <ele>146.01869</ele>
        <time>2021-04-22T12:41:08Z</time>
      </trkpt>
      <trkpt lat="49.70435" lon="4.77481">
        <ele>145.88176</ele>
        <time>2021-04-22T12:41:09Z</time>
      </trkpt>
      <trkpt lat="49.70438" lon="4.77479">
        <ele>145.48679</ele>
        <time>2021-04-22T12:41:10Z</time>
      </trkpt>
      <trkpt lat="49.70441" lon="4.77477">
        <ele>145.62898</ele>
        <time>2021-04-22T12:41:11Z</time>
      </trkpt>
      <trkpt lat="49.70443" lon="4.77475">
        <ele>145.64478</ele>
        <time>2021-04-22T12:41:12Z</time>
      </trkpt>
      <trkpt lat="49.70446" lon="4.77472">
        <ele>145.37093</ele>
        <time>2021-04-22T12:41:13Z</time>
      </trkpt>
      <trkpt lat="49.70449" lon="4.77469">
        <ele>145.17607</ele>
        <time>2021-04-22T12:41:14Z</time>
      </trkpt>
      <trkpt lat="49.70451" lon="4.77466">
        <ele>145.3604</ele>
        <time>2021-04-22T12:41:15Z</time>
      </trkpt>
      <trkpt lat="49.70455" lon="4.77464">
        <ele>145.36566</ele>
        <time>2021-04-22T12:41:16Z</time>
      </trkpt>
      <trkpt lat="49.70458" lon="4.77463">
        <ele>145.31827</ele>
        <time>2021-04-22T12:41:17Z</time>
      </trkpt>
      <trkpt lat="49.70461" lon="4.77462">
        <ele>145.38673</ele>
        <time>2021-04-22T12:41:18Z</time>
      </trkpt>
      <trkpt lat="49.70464" lon="4.7746">
        <ele>145.29721</ele>
        <time>2021-04-22T12:41:19Z</time>
      </trkpt>
      <trkpt lat="49.70467" lon="4.77458">
        <ele>145.25507</ele>
        <time>2021-04-22T12:41:20Z</time>
      </trkpt>
      <trkpt lat="49.7047" lon="4.77455">
        <ele>145.22874</ele>
        <time>2021-04-22T12:41:21Z</time>
      </trkpt>
      <trkpt lat="49.70472" lon="4.77452">
        <ele>145.27614</ele>
        <time>2021-04-22T12:41:22Z</time>
      </trkpt>
      <trkpt lat="49.70475" lon="4.7745">
        <ele>145.40253</ele>
        <time>2021-04-22T12:41:23Z</time>
      </trkpt>
      <trkpt lat="49.70477" lon="4.77447">
        <ele>145.01808</ele>
        <time>2021-04-22T12:41:24Z</time>
      </trkpt>
      <trkpt lat="49.7048" lon="4.77445">
        <ele>144.80743</ele>
        <time>2021-04-22T12:41:25Z</time>
      </trkpt>
      <trkpt lat="49.70483" lon="4.77443">
        <ele>144.71263</ele>
        <time>2021-04-22T12:41:26Z</time>
      </trkpt>
      <trkpt lat="49.70485" lon="4.77442">
        <ele>144.83377</ele>
        <time>2021-04-22T12:41:27Z</time>
      </trkpt>
      <trkpt lat="49.70488" lon="4.7744">
        <ele>144.65997</ele>
        <time>2021-04-22T12:41:28Z</time>
      </trkpt>
      <trkpt lat="49.70491" lon="4.77439">
        <ele>144.72844</ele>
        <time>2021-04-22T12:41:29Z</time>
      </trkpt>
      <trkpt lat="49.70493" lon="4.77439">
        <ele>144.88643</ele>
        <time>2021-04-22T12:41:30Z</time>
      </trkpt>
      <trkpt lat="49.70496" lon="4.77438">
        <ele>144.83377</ele>
        <time>2021-04-22T12:41:31Z</time>
      </trkpt>
      <trkpt lat="49.70499" lon="4.77436">
        <ele>145.06548</ele>
        <time>2021-04-22T12:41:32Z</time>
      </trkpt>
      <trkpt lat="49.70502" lon="4.77434">
        <ele>145.06021</ele>
        <time>2021-04-22T12:41:33Z</time>
      </trkpt>
      <trkpt lat="49.70505" lon="4.77432">
        <ele>145.11815</ele>
        <time>2021-04-22T12:41:34Z</time>
      </trkpt>
      <trkpt lat="49.70508" lon="4.7743">
        <ele>145.06021</ele>
        <time>2021-04-22T12:41:35Z</time>
      </trkpt>
      <trkpt lat="49.70511" lon="4.77427">
        <ele>145.42886</ele>
        <time>2021-04-22T12:41:36Z</time>
      </trkpt>
      <trkpt lat="49.70514" lon="4.77423">
        <ele>145.35513</ele>
        <time>2021-04-22T12:41:37Z</time>
      </trkpt>
      <trkpt lat="49.70516" lon="4.7742">
        <ele>145.3604</ele>
        <time>2021-04-22T12:41:38Z</time>
      </trkpt>
      <trkpt lat="49.70519" lon="4.77417">
        <ele>145.21294</ele>
        <time>2021-04-22T12:41:39Z</time>
      </trkpt>
      <trkpt lat="49.70521" lon="4.77415">
        <ele>145.04442</ele>
        <time>2021-04-22T12:41:40Z</time>
      </trkpt>
      <trkpt lat="49.70524" lon="4.77414">
        <ele>144.91803</ele>
        <time>2021-04-22T12:41:41Z</time>
      </trkpt>
      <trkpt lat="49.70526" lon="4.77412">
        <ele>145.15501</ele>
        <time>2021-04-22T12:41:42Z</time>
      </trkpt>
      <trkpt lat="49.70528" lon="4.77411">
        <ele>145.05495</ele>
        <time>2021-04-22T12:41:43Z</time>
      </trkpt>
      <trkpt lat="49.70532" lon="4.77409">
        <ele>144.89696</ele>
        <time>2021-04-22T12:41:44Z</time>
      </trkpt>
      <trkpt lat="49.70534" lon="4.77407">
        <ele>144.8127</ele>
        <time>2021-04-22T12:41:45Z</time>
      </trkpt>
      <trkpt lat="49.70537" lon="4.77405">
        <ele>144.85483</ele>
        <time>2021-04-22T12:41:46Z</time>
      </trkpt>
      <trkpt lat="49.7054" lon="4.77403">
        <ele>145.05495</ele>
        <time>2021-04-22T12:41:47Z</time>
      </trkpt>
      <trkpt lat="49.70542" lon="4.77402">
        <ele>145.12341</ele>
        <time>2021-04-22T12:41:48Z</time>
      </trkpt>
      <trkpt lat="49.70544" lon="4.77401">
        <ele>145.05495</ele>
        <time>2021-04-22T12:41:49Z</time>
      </trkpt>
      <trkpt lat="49.70547" lon="4.774">
        <ele>144.91803</ele>
        <time>2021-04-22T12:41:50Z</time>
      </trkpt>
      <trkpt lat="49.7055" lon="4.77398">
        <ele>145.02861</ele>
        <time>2021-04-22T12:41:51Z</time>
      </trkpt>
      <trkpt lat="49.70552" lon="4.77396">
        <ele>144.99174</ele>
        <time>2021-04-22T12:41:52Z</time>
      </trkpt>
      <trkpt lat="49.70554" lon="4.77394">
        <ele>144.7969</ele>
        <time>2021-04-22T12:41:53Z</time>
      </trkpt>
      <trkpt lat="49.70557" lon="4.77392">
        <ele>144.73897</ele>
        <time>2021-04-22T12:41:54Z</time>
      </trkpt>
      <trkpt lat="49.70559" lon="4.7739">
        <ele>144.74423</ele>
        <time>2021-04-22T12:41:55Z</time>
      </trkpt>
      <trkpt lat="49.70562" lon="4.77389">
        <ele>144.57571</ele>
        <time>2021-04-22T12:41:56Z</time>
      </trkpt>
      <trkpt lat="49.70565" lon="4.77387">
        <ele>144.56519</ele>
        <time>2021-04-22T12:41:57Z</time>
      </trkpt>
      <trkpt lat="49.70567" lon="4.77385">
        <ele>144.85483</ele>
        <time>2021-04-22T12:41:58Z</time>
      </trkpt>
      <trkpt lat="49.7057" lon="4.77383">
        <ele>144.77057</ele>
        <time>2021-04-22T12:41:59Z</time>
      </trkpt>
      <trkpt lat="49.70573" lon="4.7738">
        <ele>144.85483</ele>
        <time>2021-04-22T12:42:00Z</time>
      </trkpt>
      <trkpt lat="49.70575" lon="4.77377">
        <ele>144.76004</ele>
        <time>2021-04-22T12:42:01Z</time>
      </trkpt>
      <trkpt lat="49.70578" lon="4.77375">
        <ele>144.5915</ele>
        <time>2021-04-22T12:42:02Z</time>
      </trkpt>
      <trkpt lat="49.70581" lon="4.77373">
        <ele>144.72844</ele>
        <time>2021-04-22T12:42:03Z</time>
      </trkpt>
      <trkpt lat="49.70584" lon="4.77372">
        <ele>144.87062</ele>
        <time>2021-04-22T12:42:04Z</time>
      </trkpt>
      <trkpt lat="49.70586" lon="4.77369">
        <ele>144.86536</ele>
        <time>2021-04-22T12:42:05Z</time>
      </trkpt>
      <trkpt lat="49.70589" lon="4.77367">
        <ele>145.07602</ele>
        <time>2021-04-22T12:42:06Z</time>
      </trkpt>
      <trkpt lat="49.70592" lon="4.77365">
        <ele>144.7337</ele>
        <time>2021-04-22T12:42:07Z</time>
      </trkpt>
      <trkpt lat="49.70594" lon="4.77364">
        <ele>144.4388</ele>
        <time>2021-04-22T12:42:08Z</time>
      </trkpt>
      <trkpt lat="49.70596" lon="4.77362">
        <ele>144.37033</ele>
        <time>2021-04-22T12:42:09Z</time>
      </trkpt>
      <trkpt lat="49.70599" lon="4.7736">
        <ele>144.34927</ele>
        <time>2021-04-22T12:42:10Z</time>
      </trkpt>
      <trkpt lat="49.70599" lon="4.7736">
        <ele>144.34927</ele>
        <time>2021-04-22T12:42:10Z</time>
      </trkpt>
      <trkpt lat="49.70604" lon="4.77358">
        <ele>144.43352</ele>
        <time>2021-04-22T12:42:12Z</time>
      </trkpt>
      <trkpt lat="49.70606" lon="4.77357">
        <ele>144.5915</ele>
        <time>2021-04-22T12:42:13Z</time>
      </trkpt>
      <trkpt lat="49.70609" lon="4.77356">
        <ele>144.48093</ele>
        <time>2021-04-22T12:42:14Z</time>
      </trkpt>
      <trkpt lat="49.7061" lon="4.77355">
        <ele>144.46512</ele>
        <time>2021-04-22T12:42:15Z</time>
      </trkpt>
      <trkpt lat="49.70612" lon="4.77354">
        <ele>144.3756</ele>
        <time>2021-04-22T12:42:16Z</time>
      </trkpt>
      <trkpt lat="49.70615" lon="4.77353">
        <ele>144.19128</ele>
        <time>2021-04-22T12:42:17Z</time>
      </trkpt>
      <trkpt lat="49.70617" lon="4.77351">
        <ele>144.36507</ele>
        <time>2021-04-22T12:42:18Z</time>
      </trkpt>
      <trkpt lat="49.70619" lon="4.77349">
        <ele>144.20708</ele>
        <time>2021-04-22T12:42:19Z</time>
      </trkpt>
      <trkpt lat="49.70622" lon="4.77347">
        <ele>144.10176</ele>
        <time>2021-04-22T12:42:20Z</time>
      </trkpt>
      <trkpt lat="49.70625" lon="4.77345">
        <ele>144.21234</ele>
        <time>2021-04-22T12:42:21Z</time>
      </trkpt>
      <trkpt lat="49.70627" lon="4.77343">
        <ele>144.14914</ele>
        <time>2021-04-22T12:42:22Z</time>
      </trkpt>
      <trkpt lat="49.7063" lon="4.77342">
        <ele>144.09122</ele>
        <time>2021-04-22T12:42:23Z</time>
      </trkpt>
      <trkpt lat="49.70633" lon="4.77339">
        <ele>144.2966</ele>
        <time>2021-04-22T12:42:24Z</time>
      </trkpt>
      <trkpt lat="49.70635" lon="4.77337">
        <ele>144.17021</ele>
        <time>2021-04-22T12:42:25Z</time>
      </trkpt>
      <trkpt lat="49.70638" lon="4.77335">
        <ele>144.17548</ele>
        <time>2021-04-22T12:42:26Z</time>
      </trkpt>
      <trkpt lat="49.70639" lon="4.77333">
        <ele>144.27026</ele>
        <time>2021-04-22T12:42:27Z</time>
      </trkpt>
      <trkpt lat="49.70642" lon="4.77331">
        <ele>144.27026</ele>
        <time>2021-04-22T12:42:28Z</time>
      </trkpt>
      <trkpt lat="49.70644" lon="4.77328">
        <ele>144.3756</ele>
        <time>2021-04-22T12:42:29Z</time>
      </trkpt>
      <trkpt lat="49.70647" lon="4.77326">
        <ele>144.3914</ele>
        <time>2021-04-22T12:42:30Z</time>
      </trkpt>
      <trkpt lat="49.70649" lon="4.77324">
        <ele>144.27026</ele>
        <time>2021-04-22T12:42:31Z</time>
      </trkpt>
      <trkpt lat="49.70651" lon="4.77322">
        <ele>144.3282</ele>
        <time>2021-04-22T12:42:32Z</time>
      </trkpt>
      <trkpt lat="49.70653" lon="4.7732">
        <ele>144.47566</ele>
        <time>2021-04-22T12:42:33Z</time>
      </trkpt>
      <trkpt lat="49.70655" lon="4.77318">
        <ele>144.32294</ele>
        <time>2021-04-22T12:42:34Z</time>
      </trkpt>
      <trkpt lat="49.70657" lon="4.77316">
        <ele>144.37033</ele>
        <time>2021-04-22T12:42:35Z</time>
      </trkpt>
      <trkpt lat="49.7066" lon="4.77314">
        <ele>144.2808</ele>
        <time>2021-04-22T12:42:36Z</time>
      </trkpt>
      <trkpt lat="49.70662" lon="4.77312">
        <ele>144.40193</ele>
        <time>2021-04-22T12:42:37Z</time>
      </trkpt>
      <trkpt lat="49.70664" lon="4.77311">
        <ele>144.24394</ele>
        <time>2021-04-22T12:42:38Z</time>
      </trkpt>
      <trkpt lat="49.70666" lon="4.7731">
        <ele>144.18074</ele>
        <time>2021-04-22T12:42:39Z</time>
      </trkpt>
      <trkpt lat="49.70668" lon="4.77309">
        <ele>144.186</ele>
        <time>2021-04-22T12:42:40Z</time>
      </trkpt>
      <trkpt lat="49.7067" lon="4.77308">
        <ele>144.29134</ele>
        <time>2021-04-22T12:42:41Z</time>
      </trkpt>
      <trkpt lat="49.70672" lon="4.77308">
        <ele>144.5915</ele>
        <time>2021-04-22T12:42:42Z</time>
      </trkpt>
      <trkpt lat="49.70674" lon="4.77307">
        <ele>144.265</ele>
        <time>2021-04-22T12:42:43Z</time>
      </trkpt>
      <trkpt lat="49.70677" lon="4.77305">
        <ele>144.53358</ele>
        <time>2021-04-22T12:42:44Z</time>
      </trkpt>
      <trkpt lat="49.70679" lon="4.77304">
        <ele>144.56519</ele>
        <time>2021-04-22T12:42:45Z</time>
      </trkpt>
      <trkpt lat="49.70681" lon="4.77302">
        <ele>144.55464</ele>
        <time>2021-04-22T12:42:46Z</time>
      </trkpt>
      <trkpt lat="49.70683" lon="4.773">
        <ele>144.60205</ele>
        <time>2021-04-22T12:42:47Z</time>
      </trkpt>
      <trkpt lat="49.70686" lon="4.77298">
        <ele>144.4072</ele>
        <time>2021-04-22T12:42:48Z</time>
      </trkpt>
      <trkpt lat="49.70689" lon="4.77297">
        <ele>144.58098</ele>
        <time>2021-04-22T12:42:49Z</time>
      </trkpt>
      <trkpt lat="49.70692" lon="4.77295">
        <ele>144.75478</ele>
        <time>2021-04-22T12:42:50Z</time>
      </trkpt>
      <trkpt lat="49.70694" lon="4.77293">
        <ele>144.65471</ele>
        <time>2021-04-22T12:42:51Z</time>
      </trkpt>
      <trkpt lat="49.70697" lon="4.77291">
        <ele>144.90749</ele>
        <time>2021-04-22T12:42:52Z</time>
      </trkpt>
      <trkpt lat="49.70699" lon="4.7729">
        <ele>144.80743</ele>
        <time>2021-04-22T12:42:53Z</time>
      </trkpt>
      <trkpt lat="49.70701" lon="4.77288">
        <ele>144.63892</ele>
        <time>2021-04-22T12:42:54Z</time>
      </trkpt>
      <trkpt lat="49.70703" lon="4.77286">
        <ele>144.80743</ele>
        <time>2021-04-22T12:42:55Z</time>
      </trkpt>
      <trkpt lat="49.70705" lon="4.77284">
        <ele>144.53358</ele>
        <time>2021-04-22T12:42:56Z</time>
      </trkpt>
      <trkpt lat="49.70707" lon="4.77282">
        <ele>144.7811</ele>
        <time>2021-04-22T12:42:57Z</time>
      </trkpt>
      <trkpt lat="49.7071" lon="4.77281">
        <ele>144.7811</ele>
        <time>2021-04-22T12:42:58Z</time>
      </trkpt>
      <trkpt lat="49.70713" lon="4.77279">
        <ele>144.7337</ele>
        <time>2021-04-22T12:42:59Z</time>
      </trkpt>
      <trkpt lat="49.70715" lon="4.77276">
        <ele>144.7811</ele>
        <time>2021-04-22T12:43:00Z</time>
      </trkpt>
      <trkpt lat="49.70717" lon="4.77274">
        <ele>144.92856</ele>
        <time>2021-04-22T12:43:01Z</time>
      </trkpt>
      <trkpt lat="49.70718" lon="4.77271">
        <ele>145.10762</ele>
        <time>2021-04-22T12:43:02Z</time>
      </trkpt>
      <trkpt lat="49.70721" lon="4.77269">
        <ele>145.58159</ele>
        <time>2021-04-22T12:43:03Z</time>
      </trkpt>
      <trkpt lat="49.70723" lon="4.77268">
        <ele>144.94963</ele>
        <time>2021-04-22T12:43:04Z</time>
      </trkpt>
      <trkpt lat="49.70725" lon="4.77266">
        <ele>145.03915</ele>
        <time>2021-04-22T12:43:05Z</time>
      </trkpt>
      <trkpt lat="49.70727" lon="4.77264">
        <ele>144.85483</ele>
        <time>2021-04-22T12:43:06Z</time>
      </trkpt>
      <trkpt lat="49.70729" lon="4.77262">
        <ele>145.03915</ele>
        <time>2021-04-22T12:43:07Z</time>
      </trkpt>
      <trkpt lat="49.70731" lon="4.77261">
        <ele>144.7969</ele>
        <time>2021-04-22T12:43:08Z</time>
      </trkpt>
      <trkpt lat="49.70732" lon="4.7726">
        <ele>144.42299</ele>
        <time>2021-04-22T12:43:09Z</time>
      </trkpt>
      <trkpt lat="49.70734" lon="4.77259">
        <ele>144.8759</ele>
        <time>2021-04-22T12:43:10Z</time>
      </trkpt>
      <trkpt lat="49.70736" lon="4.77258">
        <ele>145.02335</ele>
        <time>2021-04-22T12:43:11Z</time>
      </trkpt>
      <trkpt lat="49.70739" lon="4.77256">
        <ele>145.37619</ele>
        <time>2021-04-22T12:43:12Z</time>
      </trkpt>
      <trkpt lat="49.70742" lon="4.77254">
        <ele>145.26561</ele>
        <time>2021-04-22T12:43:13Z</time>
      </trkpt>
      <trkpt lat="49.70744" lon="4.77252">
        <ele>145.28667</ele>
        <time>2021-04-22T12:43:14Z</time>
      </trkpt>
      <trkpt lat="49.70746" lon="4.7725">
        <ele>145.49731</ele>
        <time>2021-04-22T12:43:15Z</time>
      </trkpt>
      <trkpt lat="49.70749" lon="4.77248">
        <ele>145.1708</ele>
        <time>2021-04-22T12:43:16Z</time>
      </trkpt>
      <trkpt lat="49.70751" lon="4.77246">
        <ele>145.14973</ele>
        <time>2021-04-22T12:43:17Z</time>
      </trkpt>
      <trkpt lat="49.70754" lon="4.77244">
        <ele>145.16028</ele>
        <time>2021-04-22T12:43:18Z</time>
      </trkpt>
      <trkpt lat="49.70756" lon="4.77242">
        <ele>144.93909</ele>
        <time>2021-04-22T12:43:19Z</time>
      </trkpt>
      <trkpt lat="49.70758" lon="4.7724">
        <ele>144.80743</ele>
        <time>2021-04-22T12:43:20Z</time>
      </trkpt>
      <trkpt lat="49.70761" lon="4.77237">
        <ele>145.2814</ele>
        <time>2021-04-22T12:43:21Z</time>
      </trkpt>
      <trkpt lat="49.70763" lon="4.77235">
        <ele>145.25507</ele>
        <time>2021-04-22T12:43:22Z</time>
      </trkpt>
      <trkpt lat="49.70765" lon="4.77232">
        <ele>145.32353</ele>
        <time>2021-04-22T12:43:23Z</time>
      </trkpt>
      <trkpt lat="49.70768" lon="4.7723">
        <ele>145.55525</ele>
        <time>2021-04-22T12:43:24Z</time>
      </trkpt>
      <trkpt lat="49.7077" lon="4.77228">
        <ele>145.23401</ele>
        <time>2021-04-22T12:43:25Z</time>
      </trkpt>
      <trkpt lat="49.70773" lon="4.77226">
        <ele>145.26035</ele>
        <time>2021-04-22T12:43:26Z</time>
      </trkpt>
      <trkpt lat="49.70775" lon="4.77224">
        <ele>145.42886</ele>
        <time>2021-04-22T12:43:27Z</time>
      </trkpt>
      <trkpt lat="49.70777" lon="4.7722">
        <ele>145.29193</ele>
        <time>2021-04-22T12:43:28Z</time>
      </trkpt>
      <trkpt lat="49.70779" lon="4.77218">
        <ele>145.29193</ele>
        <time>2021-04-22T12:43:29Z</time>
      </trkpt>
      <trkpt lat="49.70781" lon="4.77215">
        <ele>145.13922</ele>
        <time>2021-04-22T12:43:30Z</time>
      </trkpt>
      <trkpt lat="49.70784" lon="4.77213">
        <ele>145.16554</ele>
        <time>2021-04-22T12:43:31Z</time>
      </trkpt>
      <trkpt lat="49.70786" lon="4.77211">
        <ele>145.41306</ele>
        <time>2021-04-22T12:43:32Z</time>
      </trkpt>
      <trkpt lat="49.70788" lon="4.77208">
        <ele>145.3604</ele>
        <time>2021-04-22T12:43:33Z</time>
      </trkpt>
      <trkpt lat="49.7079" lon="4.77206">
        <ele>145.18134</ele>
        <time>2021-04-22T12:43:34Z</time>
      </trkpt>
      <trkpt lat="49.70792" lon="4.77203">
        <ele>145.51312</ele>
        <time>2021-04-22T12:43:35Z</time>
      </trkpt>
      <trkpt lat="49.70795" lon="4.77202">
        <ele>145.52892</ele>
        <time>2021-04-22T12:43:36Z</time>
      </trkpt>
      <trkpt lat="49.70797" lon="4.772">
        <ele>145.40253</ele>
        <time>2021-04-22T12:43:37Z</time>
      </trkpt>
      <trkpt lat="49.708" lon="4.77198">
        <ele>145.313</ele>
        <time>2021-04-22T12:43:38Z</time>
      </trkpt>
      <trkpt lat="49.70802" lon="4.77196">
        <ele>145.11815</ele>
        <time>2021-04-22T12:43:39Z</time>
      </trkpt>
      <trkpt lat="49.70805" lon="4.77194">
        <ele>144.99702</ele>
        <time>2021-04-22T12:43:40Z</time>
      </trkpt>
      <trkpt lat="49.70807" lon="4.77191">
        <ele>145.08128</ele>
        <time>2021-04-22T12:43:41Z</time>
      </trkpt>
      <trkpt lat="49.70809" lon="4.77189">
        <ele>145.01808</ele>
        <time>2021-04-22T12:43:42Z</time>
      </trkpt>
      <trkpt lat="49.70812" lon="4.77186">
        <ele>144.80217</ele>
        <time>2021-04-22T12:43:43Z</time>
      </trkpt>
      <trkpt lat="49.70814" lon="4.77184">
        <ele>145.23401</ele>
        <time>2021-04-22T12:43:44Z</time>
      </trkpt>
      <trkpt lat="49.70816" lon="4.77182">
        <ele>145.05495</ele>
        <time>2021-04-22T12:43:45Z</time>
      </trkpt>
      <trkpt lat="49.70818" lon="4.7718">
        <ele>145.08655</ele>
        <time>2021-04-22T12:43:46Z</time>
      </trkpt>
      <trkpt lat="49.7082" lon="4.77178">
        <ele>144.77057</ele>
        <time>2021-04-22T12:43:47Z</time>
      </trkpt>
      <trkpt lat="49.70822" lon="4.77176">
        <ele>144.02275</ele>
        <time>2021-04-22T12:43:48Z</time>
      </trkpt>
      <trkpt lat="49.70824" lon="4.77173">
        <ele>145.05495</ele>
        <time>2021-04-22T12:43:49Z</time>
      </trkpt>
      <trkpt lat="49.70826" lon="4.7717">
        <ele>145.03389</ele>
        <time>2021-04-22T12:43:50Z</time>
      </trkpt>
      <trkpt lat="49.70829" lon="4.77168">
        <ele>144.92856</ele>
        <time>2021-04-22T12:43:51Z</time>
      </trkpt>
      <trkpt lat="49.70831" lon="4.77165">
        <ele>144.68631</ele>
        <time>2021-04-22T12:43:52Z</time>
      </trkpt>
      <trkpt lat="49.70833" lon="4.77162">
        <ele>144.8127</ele>
        <time>2021-04-22T12:43:53Z</time>
      </trkpt>
      <trkpt lat="49.70835" lon="4.77159">
        <ele>144.97595</ele>
        <time>2021-04-22T12:43:54Z</time>
      </trkpt>
      <trkpt lat="49.70837" lon="4.77156">
        <ele>144.90222</ele>
        <time>2021-04-22T12:43:55Z</time>
      </trkpt>
      <trkpt lat="49.70839" lon="4.77153">
        <ele>144.90222</ele>
        <time>2021-04-22T12:43:56Z</time>
      </trkpt>
      <trkpt lat="49.70841" lon="4.77151">
        <ele>145.11815</ele>
        <time>2021-04-22T12:43:57Z</time>
      </trkpt>
      <trkpt lat="49.70843" lon="4.77148">
        <ele>145.16554</ele>
        <time>2021-04-22T12:43:58Z</time>
      </trkpt>
      <trkpt lat="49.70845" lon="4.77145">
        <ele>145.51839</ele>
        <time>2021-04-22T12:43:59Z</time>
      </trkpt>
      <trkpt lat="49.70847" lon="4.77142">
        <ele>145.43939</ele>
        <time>2021-04-22T12:44:00Z</time>
      </trkpt>
      <trkpt lat="49.70849" lon="4.7714">
        <ele>145.30772</ele>
        <time>2021-04-22T12:44:01Z</time>
      </trkpt>
      <trkpt lat="49.70851" lon="4.77136">
        <ele>145.35513</ele>
        <time>2021-04-22T12:44:02Z</time>
      </trkpt>
      <trkpt lat="49.70853" lon="4.77133">
        <ele>145.23401</ele>
        <time>2021-04-22T12:44:03Z</time>
      </trkpt>
      <trkpt lat="49.70855" lon="4.7713">
        <ele>145.47626</ele>
        <time>2021-04-22T12:44:04Z</time>
      </trkpt>
      <trkpt lat="49.70857" lon="4.77128">
        <ele>144.94437</ele>
        <time>2021-04-22T12:44:05Z</time>
      </trkpt>
      <trkpt lat="49.70858" lon="4.77126">
        <ele>144.93382</ele>
        <time>2021-04-22T12:44:06Z</time>
      </trkpt>
      <trkpt lat="49.7086" lon="4.77123">
        <ele>144.99174</ele>
        <time>2021-04-22T12:44:07Z</time>
      </trkpt>
      <trkpt lat="49.70861" lon="4.77121">
        <ele>144.96542</ele>
        <time>2021-04-22T12:44:08Z</time>
      </trkpt>
      <trkpt lat="49.70863" lon="4.77118">
        <ele>144.81796</ele>
        <time>2021-04-22T12:44:09Z</time>
      </trkpt>
      <trkpt lat="49.70865" lon="4.77116">
        <ele>145.11288</ele>
        <time>2021-04-22T12:44:10Z</time>
      </trkpt>
      <trkpt lat="49.70867" lon="4.77113">
        <ele>144.91277</ele>
        <time>2021-04-22T12:44:11Z</time>
      </trkpt>
      <trkpt lat="49.70869" lon="4.7711">
        <ele>144.88116</ele>
        <time>2021-04-22T12:44:12Z</time>
      </trkpt>
      <trkpt lat="49.70871" lon="4.77107">
        <ele>145.19714</ele>
        <time>2021-04-22T12:44:13Z</time>
      </trkpt>
      <trkpt lat="49.70873" lon="4.77104">
        <ele>145.26561</ele>
        <time>2021-04-22T12:44:14Z</time>
      </trkpt>
      <trkpt lat="49.70874" lon="4.771">
        <ele>145.46571</ele>
        <time>2021-04-22T12:44:15Z</time>
      </trkpt>
      <trkpt lat="49.70876" lon="4.77096">
        <ele>145.36566</ele>
        <time>2021-04-22T12:44:16Z</time>
      </trkpt>
      <trkpt lat="49.70878" lon="4.77093">
        <ele>144.83377</ele>
        <time>2021-04-22T12:44:17Z</time>
      </trkpt>
      <trkpt lat="49.7088" lon="4.7709">
        <ele>144.9549</ele>
        <time>2021-04-22T12:44:18Z</time>
      </trkpt>
      <trkpt lat="49.70881" lon="4.77087">
        <ele>145.13394</ele>
        <time>2021-04-22T12:44:19Z</time>
      </trkpt>
      <trkpt lat="49.70883" lon="4.77083">
        <ele>144.93382</ele>
        <time>2021-04-22T12:44:20Z</time>
      </trkpt>
      <trkpt lat="49.70885" lon="4.7708">
        <ele>145.16554</ele>
        <time>2021-04-22T12:44:21Z</time>
      </trkpt>
      <trkpt lat="49.70887" lon="4.77078">
        <ele>145.7185</ele>
        <time>2021-04-22T12:44:22Z</time>
      </trkpt>
      <trkpt lat="49.70889" lon="4.77075">
        <ele>145.41306</ele>
        <time>2021-04-22T12:44:23Z</time>
      </trkpt>
      <trkpt lat="49.70891" lon="4.77071">
        <ele>145.20767</ele>
        <time>2021-04-22T12:44:24Z</time>
      </trkpt>
      <trkpt lat="49.70892" lon="4.77068">
        <ele>145.1708</ele>
        <time>2021-04-22T12:44:25Z</time>
      </trkpt>
      <trkpt lat="49.70894" lon="4.77065">
        <ele>144.8759</ele>
        <time>2021-04-22T12:44:26Z</time>
      </trkpt>
      <trkpt lat="49.70896" lon="4.77061">
        <ele>145.10762</ele>
        <time>2021-04-22T12:44:27Z</time>
      </trkpt>
      <trkpt lat="49.70898" lon="4.77058">
        <ele>144.69684</ele>
        <time>2021-04-22T12:44:28Z</time>
      </trkpt>
      <trkpt lat="49.70899" lon="4.77054">
        <ele>144.55992</ele>
        <time>2021-04-22T12:44:29Z</time>
      </trkpt>
      <trkpt lat="49.709" lon="4.77051">
        <ele>144.67578</ele>
        <time>2021-04-22T12:44:30Z</time>
      </trkpt>
      <trkpt lat="49.70902" lon="4.77048">
        <ele>144.70212</ele>
        <time>2021-04-22T12:44:31Z</time>
      </trkpt>
      <trkpt lat="49.70903" lon="4.77045">
        <ele>144.93909</ele>
        <time>2021-04-22T12:44:32Z</time>
      </trkpt>
      <trkpt lat="49.70905" lon="4.77042">
        <ele>145.13394</ele>
        <time>2021-04-22T12:44:33Z</time>
      </trkpt>
      <trkpt lat="49.70906" lon="4.77038">
        <ele>144.69157</ele>
        <time>2021-04-22T12:44:34Z</time>
      </trkpt>
      <trkpt lat="49.70907" lon="4.77036">
        <ele>144.51253</ele>
        <time>2021-04-22T12:44:35Z</time>
      </trkpt>
      <trkpt lat="49.70908" lon="4.77034">
        <ele>144.41246</ele>
        <time>2021-04-22T12:44:36Z</time>
      </trkpt>
      <trkpt lat="49.7091" lon="4.77032">
        <ele>144.01222</ele>
        <time>2021-04-22T12:44:37Z</time>
      </trkpt>
      <trkpt lat="49.7091" lon="4.77029">
        <ele>144.7337</ele>
        <time>2021-04-22T12:44:38Z</time>
      </trkpt>
      <trkpt lat="49.70911" lon="4.77027">
        <ele>144.3282</ele>
        <time>2021-04-22T12:44:39Z</time>
      </trkpt>
      <trkpt lat="49.70912" lon="4.77024">
        <ele>144.65997</ele>
        <time>2021-04-22T12:44:40Z</time>
      </trkpt>
      <trkpt lat="49.70914" lon="4.77021">
        <ele>144.55464</ele>
        <time>2021-04-22T12:44:41Z</time>
      </trkpt>
      <trkpt lat="49.70915" lon="4.77017">
        <ele>144.7337</ele>
        <time>2021-04-22T12:44:42Z</time>
      </trkpt>
      <trkpt lat="49.70916" lon="4.77014">
        <ele>144.69684</ele>
        <time>2021-04-22T12:44:43Z</time>
      </trkpt>
      <trkpt lat="49.70917" lon="4.77011">
        <ele>144.7337</ele>
        <time>2021-04-22T12:44:44Z</time>
      </trkpt>
      <trkpt lat="49.70919" lon="4.77009">
        <ele>145.03915</ele>
        <time>2021-04-22T12:44:45Z</time>
      </trkpt>
      <trkpt lat="49.7092" lon="4.77006">
        <ele>144.83377</ele>
        <time>2021-04-22T12:44:46Z</time>
      </trkpt>
      <trkpt lat="49.70922" lon="4.77003">
        <ele>144.82324</ele>
        <time>2021-04-22T12:44:47Z</time>
      </trkpt>
      <trkpt lat="49.70924" lon="4.77">
        <ele>144.97069</ele>
        <time>2021-04-22T12:44:48Z</time>
      </trkpt>
      <trkpt lat="49.70925" lon="4.76997">
        <ele>144.75478</ele>
        <time>2021-04-22T12:44:49Z</time>
      </trkpt>
      <trkpt lat="49.70927" lon="4.76994">
        <ele>145.01808</ele>
        <time>2021-04-22T12:44:50Z</time>
      </trkpt>
      <trkpt lat="49.70928" lon="4.76991">
        <ele>145.02335</ele>
        <time>2021-04-22T12:44:51Z</time>
      </trkpt>
      <trkpt lat="49.7093" lon="4.76989">
        <ele>145.01282</ele>
        <time>2021-04-22T12:44:52Z</time>
      </trkpt>
      <trkpt lat="49.70932" lon="4.76985">
        <ele>145.07076</ele>
        <time>2021-04-22T12:44:53Z</time>
      </trkpt>
      <trkpt lat="49.70933" lon="4.76981">
        <ele>144.78638</ele>
        <time>2021-04-22T12:44:54Z</time>
      </trkpt>
      <trkpt lat="49.70935" lon="4.76977">
        <ele>144.30186</ele>
        <time>2021-04-22T12:44:55Z</time>
      </trkpt>
      <trkpt lat="49.70936" lon="4.76974">
        <ele>144.4388</ele>
        <time>2021-04-22T12:44:56Z</time>
      </trkpt>
      <trkpt lat="49.70938" lon="4.76971">
        <ele>144.50198</ele>
        <time>2021-04-22T12:44:57Z</time>
      </trkpt>
      <trkpt lat="49.7094" lon="4.76968">
        <ele>144.29134</ele>
        <time>2021-04-22T12:44:58Z</time>
      </trkpt>
      <trkpt lat="49.70942" lon="4.76965">
        <ele>144.59679</ele>
        <time>2021-04-22T12:44:59Z</time>
      </trkpt>
      <trkpt lat="49.70943" lon="4.76962">
        <ele>144.50198</ele>
        <time>2021-04-22T12:45:00Z</time>
      </trkpt>
      <trkpt lat="49.70945" lon="4.76959">
        <ele>144.33873</ele>
        <time>2021-04-22T12:45:01Z</time>
      </trkpt>
      <trkpt lat="49.70947" lon="4.76956">
        <ele>144.60732</ele>
        <time>2021-04-22T12:45:02Z</time>
      </trkpt>
      <trkpt lat="49.70948" lon="4.76953">
        <ele>144.50726</ele>
        <time>2021-04-22T12:45:03Z</time>
      </trkpt>
      <trkpt lat="49.7095" lon="4.76949">
        <ele>144.49146</ele>
        <time>2021-04-22T12:45:04Z</time>
      </trkpt>
      <trkpt lat="49.70952" lon="4.76945">
        <ele>144.57045</ele>
        <time>2021-04-22T12:45:05Z</time>
      </trkpt>
      <trkpt lat="49.70953" lon="4.76943">
        <ele>144.55464</ele>
        <time>2021-04-22T12:45:06Z</time>
      </trkpt>
      <trkpt lat="49.70955" lon="4.7694">
        <ele>144.42299</ele>
        <time>2021-04-22T12:45:07Z</time>
      </trkpt>
      <trkpt lat="49.70957" lon="4.76938">
        <ele>144.57571</ele>
        <time>2021-04-22T12:45:08Z</time>
      </trkpt>
      <trkpt lat="49.70958" lon="4.76935">
        <ele>144.2808</ele>
        <time>2021-04-22T12:45:09Z</time>
      </trkpt>
      <trkpt lat="49.7096" lon="4.76932">
        <ele>144.81796</ele>
        <time>2021-04-22T12:45:10Z</time>
      </trkpt>
      <trkpt lat="49.70961" lon="4.76929">
        <ele>144.61258</ele>
        <time>2021-04-22T12:45:11Z</time>
      </trkpt>
      <trkpt lat="49.70963" lon="4.76925">
        <ele>144.42299</ele>
        <time>2021-04-22T12:45:12Z</time>
      </trkpt>
      <trkpt lat="49.70965" lon="4.76922">
        <ele>144.68105</ele>
        <time>2021-04-22T12:45:13Z</time>
      </trkpt>
      <trkpt lat="49.70967" lon="4.76919">
        <ele>144.67578</ele>
        <time>2021-04-22T12:45:14Z</time>
      </trkpt>
      <trkpt lat="49.70968" lon="4.76916">
        <ele>144.44933</ele>
        <time>2021-04-22T12:45:15Z</time>
      </trkpt>
      <trkpt lat="49.7097" lon="4.76913">
        <ele>144.7653</ele>
        <time>2021-04-22T12:45:16Z</time>
      </trkpt>
      <trkpt lat="49.70972" lon="4.7691">
        <ele>144.82324</ele>
        <time>2021-04-22T12:45:17Z</time>
      </trkpt>
      <trkpt lat="49.70974" lon="4.76907">
        <ele>144.92856</ele>
        <time>2021-04-22T12:45:18Z</time>
      </trkpt>
      <trkpt lat="49.70976" lon="4.76904">
        <ele>144.63365</ele>
        <time>2021-04-22T12:45:19Z</time>
      </trkpt>
      <trkpt lat="49.70977" lon="4.76901">
        <ele>144.51779</ele>
        <time>2021-04-22T12:45:20Z</time>
      </trkpt>
      <trkpt lat="49.70979" lon="4.76898">
        <ele>144.49672</ele>
        <time>2021-04-22T12:45:21Z</time>
      </trkpt>
      <trkpt lat="49.70981" lon="4.76895">
        <ele>144.71791</ele>
        <time>2021-04-22T12:45:22Z</time>
      </trkpt>
      <trkpt lat="49.70982" lon="4.76891">
        <ele>144.63892</ele>
        <time>2021-04-22T12:45:23Z</time>
      </trkpt>
      <trkpt lat="49.70984" lon="4.76887">
        <ele>144.60205</ele>
        <time>2021-04-22T12:45:24Z</time>
      </trkpt>
      <trkpt lat="49.70985" lon="4.76884">
        <ele>144.45459</ele>
        <time>2021-04-22T12:45:25Z</time>
      </trkpt>
      <trkpt lat="49.70987" lon="4.76881">
        <ele>144.344</ele>
        <time>2021-04-22T12:45:26Z</time>
      </trkpt>
      <trkpt lat="49.70989" lon="4.76878">
        <ele>144.65997</ele>
        <time>2021-04-22T12:45:27Z</time>
      </trkpt>
      <trkpt lat="49.70991" lon="4.76875">
        <ele>144.60732</ele>
        <time>2021-04-22T12:45:28Z</time>
      </trkpt>
      <trkpt lat="49.70993" lon="4.76872">
        <ele>144.46512</ele>
        <time>2021-04-22T12:45:29Z</time>
      </trkpt>
      <trkpt lat="49.70995" lon="4.76869">
        <ele>144.39665</ele>
        <time>2021-04-22T12:45:30Z</time>
      </trkpt>
      <trkpt lat="49.70997" lon="4.76866">
        <ele>144.37033</ele>
        <time>2021-04-22T12:45:31Z</time>
      </trkpt>
      <trkpt lat="49.70998" lon="4.76863">
        <ele>144.63892</ele>
        <time>2021-04-22T12:45:32Z</time>
      </trkpt>
      <trkpt lat="49.71" lon="4.7686">
        <ele>144.67052</ele>
        <time>2021-04-22T12:45:33Z</time>
      </trkpt>
      <trkpt lat="49.71002" lon="4.76858">
        <ele>144.61258</ele>
        <time>2021-04-22T12:45:34Z</time>
      </trkpt>
      <trkpt lat="49.71003" lon="4.76855">
        <ele>144.3756</ele>
        <time>2021-04-22T12:45:35Z</time>
      </trkpt>
      <trkpt lat="49.71005" lon="4.76852">
        <ele>144.58098</ele>
        <time>2021-04-22T12:45:36Z</time>
      </trkpt>
      <trkpt lat="49.71007" lon="4.76849">
        <ele>144.56519</ele>
        <time>2021-04-22T12:45:37Z</time>
      </trkpt>
      <trkpt lat="49.71009" lon="4.76846">
        <ele>144.65471</ele>
        <time>2021-04-22T12:45:38Z</time>
      </trkpt>
      <trkpt lat="49.7101" lon="4.76843">
        <ele>144.90222</ele>
        <time>2021-04-22T12:45:39Z</time>
      </trkpt>
      <trkpt lat="49.71012" lon="4.76839">
        <ele>144.61258</ele>
        <time>2021-04-22T12:45:40Z</time>
      </trkpt>
      <trkpt lat="49.71014" lon="4.76836">
        <ele>144.53358</ele>
        <time>2021-04-22T12:45:41Z</time>
      </trkpt>
      <trkpt lat="49.71015" lon="4.76834">
        <ele>144.68631</ele>
        <time>2021-04-22T12:45:42Z</time>
      </trkpt>
      <trkpt lat="49.71017" lon="4.76831">
        <ele>144.8443</ele>
        <time>2021-04-22T12:45:43Z</time>
      </trkpt>
      <trkpt lat="49.71019" lon="4.76828">
        <ele>145.03389</ele>
        <time>2021-04-22T12:45:44Z</time>
      </trkpt>
      <trkpt lat="49.71021" lon="4.76826">
        <ele>144.77583</ele>
        <time>2021-04-22T12:45:45Z</time>
      </trkpt>
      <trkpt lat="49.71023" lon="4.76824">
        <ele>144.79164</ele>
        <time>2021-04-22T12:45:46Z</time>
      </trkpt>
      <trkpt lat="49.71025" lon="4.76822">
        <ele>144.5915</ele>
        <time>2021-04-22T12:45:47Z</time>
      </trkpt>
      <trkpt lat="49.71027" lon="4.7682">
        <ele>144.67052</ele>
        <time>2021-04-22T12:45:48Z</time>
      </trkpt>
      <trkpt lat="49.71029" lon="4.76819">
        <ele>144.81796</ele>
        <time>2021-04-22T12:45:49Z</time>
      </trkpt>
      <trkpt lat="49.71031" lon="4.76816">
        <ele>144.47566</ele>
        <time>2021-04-22T12:45:50Z</time>
      </trkpt>
      <trkpt lat="49.71033" lon="4.76815">
        <ele>144.60205</ele>
        <time>2021-04-22T12:45:51Z</time>
      </trkpt>
      <trkpt lat="49.71035" lon="4.76814">
        <ele>145.03915</ele>
        <time>2021-04-22T12:45:52Z</time>
      </trkpt>
      <trkpt lat="49.71037" lon="4.76813">
        <ele>144.64418</ele>
        <time>2021-04-22T12:45:53Z</time>
      </trkpt>
      <trkpt lat="49.7104" lon="4.76812">
        <ele>144.55992</ele>
        <time>2021-04-22T12:45:54Z</time>
      </trkpt>
      <trkpt lat="49.71042" lon="4.76811">
        <ele>144.93382</ele>
        <time>2021-04-22T12:45:55Z</time>
      </trkpt>
      <trkpt lat="49.71043" lon="4.76809">
        <ele>144.89696</ele>
        <time>2021-04-22T12:45:56Z</time>
      </trkpt>
      <trkpt lat="49.71045" lon="4.76807">
        <ele>144.86536</ele>
        <time>2021-04-22T12:45:57Z</time>
      </trkpt>
      <trkpt lat="49.71047" lon="4.76805">
        <ele>144.62311</ele>
        <time>2021-04-22T12:45:58Z</time>
      </trkpt>
      <trkpt lat="49.71049" lon="4.76803">
        <ele>144.54413</ele>
        <time>2021-04-22T12:45:59Z</time>
      </trkpt>
      <trkpt lat="49.71051" lon="4.76801">
        <ele>144.7811</ele>
        <time>2021-04-22T12:46:00Z</time>
      </trkpt>
      <trkpt lat="49.71053" lon="4.76799">
        <ele>144.77057</ele>
        <time>2021-04-22T12:46:01Z</time>
      </trkpt>
      <trkpt lat="49.71055" lon="4.76798">
        <ele>144.70737</ele>
        <time>2021-04-22T12:46:02Z</time>
      </trkpt>
      <trkpt lat="49.71057" lon="4.76797">
        <ele>145.04968</ele>
        <time>2021-04-22T12:46:03Z</time>
      </trkpt>
      <trkpt lat="49.71059" lon="4.76795">
        <ele>145.05495</ele>
        <time>2021-04-22T12:46:04Z</time>
      </trkpt>
      <trkpt lat="49.71061" lon="4.76793">
        <ele>145.02335</ele>
        <time>2021-04-22T12:46:05Z</time>
      </trkpt>
      <trkpt lat="49.71064" lon="4.7679">
        <ele>145.40779</ele>
        <time>2021-04-22T12:46:06Z</time>
      </trkpt>
      <trkpt lat="49.71066" lon="4.76789">
        <ele>145.33932</ele>
        <time>2021-04-22T12:46:07Z</time>
      </trkpt>
      <trkpt lat="49.71068" lon="4.76786">
        <ele>145.48152</ele>
        <time>2021-04-22T12:46:08Z</time>
      </trkpt>
      <trkpt lat="49.71071" lon="4.76785">
        <ele>145.07602</ele>
        <time>2021-04-22T12:46:09Z</time>
      </trkpt>
      <trkpt lat="49.71073" lon="4.76783">
        <ele>144.94963</ele>
        <time>2021-04-22T12:46:10Z</time>
      </trkpt>
      <trkpt lat="49.71075" lon="4.76781">
        <ele>144.90222</ele>
        <time>2021-04-22T12:46:11Z</time>
      </trkpt>
      <trkpt lat="49.71077" lon="4.76779">
        <ele>144.60732</ele>
        <time>2021-04-22T12:46:12Z</time>
      </trkpt>
      <trkpt lat="49.7108" lon="4.76777">
        <ele>144.55464</ele>
        <time>2021-04-22T12:46:13Z</time>
      </trkpt>
      <trkpt lat="49.71082" lon="4.76776">
        <ele>144.7653</ele>
        <time>2021-04-22T12:46:14Z</time>
      </trkpt>
      <trkpt lat="49.71085" lon="4.76775">
        <ele>144.5494</ele>
        <time>2021-04-22T12:46:15Z</time>
      </trkpt>
      <trkpt lat="49.71087" lon="4.76774">
        <ele>144.92856</ele>
        <time>2021-04-22T12:46:16Z</time>
      </trkpt>
      <trkpt lat="49.71089" lon="4.76773">
        <ele>144.88643</ele>
        <time>2021-04-22T12:46:17Z</time>
      </trkpt>
      <trkpt lat="49.71092" lon="4.76772">
        <ele>144.76004</ele>
        <time>2021-04-22T12:46:18Z</time>
      </trkpt>
      <trkpt lat="49.71095" lon="4.76771">
        <ele>144.75478</ele>
        <time>2021-04-22T12:46:19Z</time>
      </trkpt>
      <trkpt lat="49.71097" lon="4.7677">
        <ele>144.49146</ele>
        <time>2021-04-22T12:46:20Z</time>
      </trkpt>
      <trkpt lat="49.71099" lon="4.76769">
        <ele>144.67052</ele>
        <time>2021-04-22T12:46:21Z</time>
      </trkpt>
      <trkpt lat="49.71104" lon="4.76767">
        <ele>144.87062</ele>
        <time>2021-04-22T12:46:22Z</time>
      </trkpt>
      <trkpt lat="49.71104" lon="4.76767">
        <ele>144.87062</ele>
        <time>2021-04-22T12:46:22Z</time>
      </trkpt>
      <trkpt lat="49.71106" lon="4.76766">
        <ele>144.68105</ele>
        <time>2021-04-22T12:46:24Z</time>
      </trkpt>
      <trkpt lat="49.71108" lon="4.76764">
        <ele>144.86536</ele>
        <time>2021-04-22T12:46:25Z</time>
      </trkpt>
      <trkpt lat="49.71111" lon="4.76763">
        <ele>144.61258</ele>
        <time>2021-04-22T12:46:26Z</time>
      </trkpt>
      <trkpt lat="49.71113" lon="4.76762">
        <ele>144.55464</ele>
        <time>2021-04-22T12:46:27Z</time>
      </trkpt>
      <trkpt lat="49.71116" lon="4.76761">
        <ele>144.42299</ele>
        <time>2021-04-22T12:46:28Z</time>
      </trkpt>
      <trkpt lat="49.71121" lon="4.7676">
        <ele>144.11754</ele>
        <time>2021-04-22T12:46:29Z</time>
      </trkpt>
      <trkpt lat="49.71124" lon="4.7676">
        <ele>144.14914</ele>
        <time>2021-04-22T12:46:30Z</time>
      </trkpt>
      <trkpt lat="49.71127" lon="4.7676">
        <ele>144.03856</ele>
        <time>2021-04-22T12:46:31Z</time>
      </trkpt>
      <trkpt lat="49.7113" lon="4.76759">
        <ele>144.0333</ele>
        <time>2021-04-22T12:46:32Z</time>
      </trkpt>
      <trkpt lat="49.7113" lon="4.76759">
        <ele>144.0333</ele>
        <time>2021-04-22T12:46:32Z</time>
      </trkpt>
      <trkpt lat="49.71132" lon="4.76759">
        <ele>144.55992</ele>
        <time>2021-04-22T12:46:34Z</time>
      </trkpt>
      <trkpt lat="49.71135" lon="4.76759">
        <ele>144.22287</ele>
        <time>2021-04-22T12:46:35Z</time>
      </trkpt>
      <trkpt lat="49.7114" lon="4.76757">
        <ele>143.81737</ele>
        <time>2021-04-22T12:46:36Z</time>
      </trkpt>
      <trkpt lat="49.71143" lon="4.76757">
        <ele>143.9543</ele>
        <time>2021-04-22T12:46:37Z</time>
      </trkpt>
      <trkpt lat="49.71145" lon="4.76756">
        <ele>143.97536</ele>
        <time>2021-04-22T12:46:38Z</time>
      </trkpt>
      <trkpt lat="49.71147" lon="4.76756">
        <ele>144.00696</ele>
        <time>2021-04-22T12:46:39Z</time>
      </trkpt>
      <trkpt lat="49.71149" lon="4.76756">
        <ele>144.11227</ele>
        <time>2021-04-22T12:46:40Z</time>
      </trkpt>
      <trkpt lat="49.71151" lon="4.76756">
        <ele>144.08069</ele>
        <time>2021-04-22T12:46:41Z</time>
      </trkpt>
      <trkpt lat="49.71151" lon="4.76756">
        <ele>144.08069</ele>
        <time>2021-04-22T12:46:41Z</time>
      </trkpt>
      <trkpt lat="49.71155" lon="4.76755">
        <ele>144.80743</ele>
        <time>2021-04-22T12:46:43Z</time>
      </trkpt>
      <trkpt lat="49.71157" lon="4.76755">
        <ele>144.49146</ele>
        <time>2021-04-22T12:46:44Z</time>
      </trkpt>
      <trkpt lat="49.71159" lon="4.76754">
        <ele>144.48619</ele>
        <time>2021-04-22T12:46:45Z</time>
      </trkpt>
      <trkpt lat="49.71161" lon="4.76754">
        <ele>144.51779</ele>
        <time>2021-04-22T12:46:46Z</time>
      </trkpt>
      <trkpt lat="49.71163" lon="4.76753">
        <ele>144.62311</ele>
        <time>2021-04-22T12:46:47Z</time>
      </trkpt>
      <trkpt lat="49.71166" lon="4.76753">
        <ele>144.44933</ele>
        <time>2021-04-22T12:46:48Z</time>
      </trkpt>
      <trkpt lat="49.71168" lon="4.76752">
        <ele>144.4388</ele>
        <time>2021-04-22T12:46:49Z</time>
      </trkpt>
      <trkpt lat="49.7117" lon="4.76752">
        <ele>144.13861</ele>
        <time>2021-04-22T12:46:50Z</time>
      </trkpt>
      <trkpt lat="49.71173" lon="4.76752">
        <ele>144.29134</ele>
        <time>2021-04-22T12:46:51Z</time>
      </trkpt>
      <trkpt lat="49.71175" lon="4.76752">
        <ele>144.14914</ele>
        <time>2021-04-22T12:46:52Z</time>
      </trkpt>
      <trkpt lat="49.71177" lon="4.76751">
        <ele>144.23341</ele>
        <time>2021-04-22T12:46:53Z</time>
      </trkpt>
      <trkpt lat="49.7118" lon="4.76751">
        <ele>144.38086</ele>
        <time>2021-04-22T12:46:54Z</time>
      </trkpt>
      <trkpt lat="49.71182" lon="4.7675">
        <ele>144.64418</ele>
        <time>2021-04-22T12:46:55Z</time>
      </trkpt>
      <trkpt lat="49.71184" lon="4.7675">
        <ele>144.54413</ele>
        <time>2021-04-22T12:46:56Z</time>
      </trkpt>
      <trkpt lat="49.71187" lon="4.76749">
        <ele>144.41774</ele>
        <time>2021-04-22T12:46:57Z</time>
      </trkpt>
      <trkpt lat="49.7119" lon="4.76748">
        <ele>144.25447</ele>
        <time>2021-04-22T12:46:58Z</time>
      </trkpt>
      <trkpt lat="49.71192" lon="4.76748">
        <ele>144.24394</ele>
        <time>2021-04-22T12:46:59Z</time>
      </trkpt>
      <trkpt lat="49.71195" lon="4.76748">
        <ele>144.09122</ele>
        <time>2021-04-22T12:47:00Z</time>
      </trkpt>
      <trkpt lat="49.71197" lon="4.76748">
        <ele>144.2808</ele>
        <time>2021-04-22T12:47:01Z</time>
      </trkpt>
      <trkpt lat="49.71199" lon="4.76749">
        <ele>144.4072</ele>
        <time>2021-04-22T12:47:02Z</time>
      </trkpt>
      <trkpt lat="49.71201" lon="4.7675">
        <ele>144.4388</ele>
        <time>2021-04-22T12:47:03Z</time>
      </trkpt>
      <trkpt lat="49.71204" lon="4.7675">
        <ele>144.22815</ele>
        <time>2021-04-22T12:47:04Z</time>
      </trkpt>
      <trkpt lat="49.71206" lon="4.76751">
        <ele>144.13861</ele>
        <time>2021-04-22T12:47:05Z</time>
      </trkpt>
      <trkpt lat="49.71209" lon="4.76751">
        <ele>144.39665</ele>
        <time>2021-04-22T12:47:06Z</time>
      </trkpt>
      <trkpt lat="49.71212" lon="4.76751">
        <ele>144.34927</ele>
        <time>2021-04-22T12:47:07Z</time>
      </trkpt>
      <trkpt lat="49.71214" lon="4.76752">
        <ele>143.8595</ele>
        <time>2021-04-22T12:47:08Z</time>
      </trkpt>
      <trkpt lat="49.71217" lon="4.76753">
        <ele>143.99115</ele>
        <time>2021-04-22T12:47:09Z</time>
      </trkpt>
      <trkpt lat="49.71219" lon="4.76754">
        <ele>144.04909</ele>
        <time>2021-04-22T12:47:10Z</time>
      </trkpt>
      <trkpt lat="49.71222" lon="4.76756">
        <ele>143.9701</ele>
        <time>2021-04-22T12:47:11Z</time>
      </trkpt>
      <trkpt lat="49.71224" lon="4.76759">
        <ele>143.8121</ele>
        <time>2021-04-22T12:47:12Z</time>
      </trkpt>
      <trkpt lat="49.71227" lon="4.76762">
        <ele>143.6699</ele>
        <time>2021-04-22T12:47:13Z</time>
      </trkpt>
      <trkpt lat="49.71229" lon="4.76764">
        <ele>143.77524</ele>
        <time>2021-04-22T12:47:14Z</time>
      </trkpt>
      <trkpt lat="49.71231" lon="4.76765">
        <ele>143.65411</ele>
        <time>2021-04-22T12:47:15Z</time>
      </trkpt>
      <trkpt lat="49.71233" lon="4.76767">
        <ele>143.8121</ele>
        <time>2021-04-22T12:47:16Z</time>
      </trkpt>
      <trkpt lat="49.71236" lon="4.76769">
        <ele>143.85423</ele>
        <time>2021-04-22T12:47:17Z</time>
      </trkpt>
      <trkpt lat="49.71238" lon="4.76771">
        <ele>143.96483</ele>
        <time>2021-04-22T12:47:18Z</time>
      </trkpt>
      <trkpt lat="49.71241" lon="4.76771">
        <ele>143.8595</ele>
        <time>2021-04-22T12:47:19Z</time>
      </trkpt>
      <trkpt lat="49.71243" lon="4.76773">
        <ele>143.65938</ele>
        <time>2021-04-22T12:47:20Z</time>
      </trkpt>
      <trkpt lat="49.71245" lon="4.76775">
        <ele>143.86476</ele>
        <time>2021-04-22T12:47:21Z</time>
      </trkpt>
      <trkpt lat="49.71248" lon="4.76777">
        <ele>143.75945</ele>
        <time>2021-04-22T12:47:22Z</time>
      </trkpt>
      <trkpt lat="49.7125" lon="4.76779">
        <ele>143.7489</ele>
        <time>2021-04-22T12:47:23Z</time>
      </trkpt>
      <trkpt lat="49.71252" lon="4.76782">
        <ele>143.69098</ele>
        <time>2021-04-22T12:47:24Z</time>
      </trkpt>
      <trkpt lat="49.71254" lon="4.76785">
        <ele>143.78578</ele>
        <time>2021-04-22T12:47:25Z</time>
      </trkpt>
      <trkpt lat="49.71257" lon="4.76788">
        <ele>143.67517</ele>
        <time>2021-04-22T12:47:26Z</time>
      </trkpt>
      <trkpt lat="49.71259" lon="4.76791">
        <ele>143.98062</ele>
        <time>2021-04-22T12:47:27Z</time>
      </trkpt>
      <trkpt lat="49.71261" lon="4.76794">
        <ele>142.8905</ele>
        <time>2021-04-22T12:47:28Z</time>
      </trkpt>
      <trkpt lat="49.71262" lon="4.76797">
        <ele>144.38614</ele>
        <time>2021-04-22T12:47:29Z</time>
      </trkpt>
      <trkpt lat="49.71264" lon="4.768">
        <ele>143.8753</ele>
        <time>2021-04-22T12:47:30Z</time>
      </trkpt>
      <trkpt lat="49.71266" lon="4.76804">
        <ele>143.8911</ele>
        <time>2021-04-22T12:47:31Z</time>
      </trkpt>
      <trkpt lat="49.71268" lon="4.76807">
        <ele>143.9701</ele>
        <time>2021-04-22T12:47:32Z</time>
      </trkpt>
      <trkpt lat="49.7127" lon="4.7681">
        <ele>144.11754</ele>
        <time>2021-04-22T12:47:33Z</time>
      </trkpt>
      <trkpt lat="49.71272" lon="4.76813">
        <ele>144.18074</ele>
        <time>2021-04-22T12:47:34Z</time>
      </trkpt>
      <trkpt lat="49.71273" lon="4.76817">
        <ele>144.00696</ele>
        <time>2021-04-22T12:47:35Z</time>
      </trkpt>
      <trkpt lat="49.71276" lon="4.76821">
        <ele>143.9227</ele>
        <time>2021-04-22T12:47:36Z</time>
      </trkpt>
      <trkpt lat="49.71278" lon="4.76825">
        <ele>143.9543</ele>
        <time>2021-04-22T12:47:37Z</time>
      </trkpt>
      <trkpt lat="49.7128" lon="4.76829">
        <ele>144.02275</ele>
        <time>2021-04-22T12:47:38Z</time>
      </trkpt>
      <trkpt lat="49.71281" lon="4.76833">
        <ele>144.01222</ele>
        <time>2021-04-22T12:47:39Z</time>
      </trkpt>
      <trkpt lat="49.71284" lon="4.76838">
        <ele>144.06488</ele>
        <time>2021-04-22T12:47:40Z</time>
      </trkpt>
      <trkpt lat="49.71286" lon="4.76842">
        <ele>144.0017</ele>
        <time>2021-04-22T12:47:41Z</time>
      </trkpt>
      <trkpt lat="49.71287" lon="4.76846">
        <ele>143.94904</ele>
        <time>2021-04-22T12:47:42Z</time>
      </trkpt>
      <trkpt lat="49.71289" lon="4.7685">
        <ele>143.91217</ele>
        <time>2021-04-22T12:47:43Z</time>
      </trkpt>
      <trkpt lat="49.7129" lon="4.76854">
        <ele>143.74364</ele>
        <time>2021-04-22T12:47:44Z</time>
      </trkpt>
      <trkpt lat="49.71291" lon="4.76858">
        <ele>143.42766</ele>
        <time>2021-04-22T12:47:45Z</time>
      </trkpt>
      <trkpt lat="49.71293" lon="4.76862">
        <ele>143.53299</ele>
        <time>2021-04-22T12:47:46Z</time>
      </trkpt>
      <trkpt lat="49.71294" lon="4.76865">
        <ele>143.4066</ele>
        <time>2021-04-22T12:47:47Z</time>
      </trkpt>
      <trkpt lat="49.71296" lon="4.76869">
        <ele>143.33287</ele>
        <time>2021-04-22T12:47:48Z</time>
      </trkpt>
      <trkpt lat="49.71297" lon="4.76871">
        <ele>143.44873</ele>
        <time>2021-04-22T12:47:49Z</time>
      </trkpt>
      <trkpt lat="49.71298" lon="4.76874">
        <ele>143.19069</ele>
        <time>2021-04-22T12:47:50Z</time>
      </trkpt>
      <trkpt lat="49.71299" lon="4.76877">
        <ele>143.02216</ele>
        <time>2021-04-22T12:47:51Z</time>
      </trkpt>
      <trkpt lat="49.713" lon="4.7688">
        <ele>143.04323</ele>
        <time>2021-04-22T12:47:52Z</time>
      </trkpt>
      <trkpt lat="49.71301" lon="4.76883">
        <ele>143.0011</ele>
        <time>2021-04-22T12:47:53Z</time>
      </trkpt>
      <trkpt lat="49.71302" lon="4.76886">
        <ele>143.12222</ele>
        <time>2021-04-22T12:47:54Z</time>
      </trkpt>
      <trkpt lat="49.71304" lon="4.7689">
        <ele>143.45926</ele>
        <time>2021-04-22T12:47:55Z</time>
      </trkpt>
      <trkpt lat="49.71305" lon="4.76893">
        <ele>143.28548</ele>
        <time>2021-04-22T12:47:56Z</time>
      </trkpt>
      <trkpt lat="49.71306" lon="4.76896">
        <ele>142.95895</ele>
        <time>2021-04-22T12:47:57Z</time>
      </trkpt>
      <trkpt lat="49.71308" lon="4.76899">
        <ele>143.33287</ele>
        <time>2021-04-22T12:47:58Z</time>
      </trkpt>
      <trkpt lat="49.71309" lon="4.76902">
        <ele>143.11694</ele>
        <time>2021-04-22T12:47:59Z</time>
      </trkpt>
      <trkpt lat="49.7131" lon="4.76904">
        <ele>143.11694</ele>
        <time>2021-04-22T12:48:00Z</time>
      </trkpt>
      <trkpt lat="49.71311" lon="4.76907">
        <ele>142.91684</ele>
        <time>2021-04-22T12:48:01Z</time>
      </trkpt>
      <trkpt lat="49.71312" lon="4.7691">
        <ele>143.05902</ele>
        <time>2021-04-22T12:48:02Z</time>
      </trkpt>
      <trkpt lat="49.71314" lon="4.76913">
        <ele>143.20648</ele>
        <time>2021-04-22T12:48:03Z</time>
      </trkpt>
      <trkpt lat="49.71315" lon="4.76917">
        <ele>143.0485</ele>
        <time>2021-04-22T12:48:04Z</time>
      </trkpt>
      <trkpt lat="49.71316" lon="4.7692">
        <ele>143.24335</ele>
        <time>2021-04-22T12:48:05Z</time>
      </trkpt>
      <trkpt lat="49.71318" lon="4.76923">
        <ele>143.25388</ele>
        <time>2021-04-22T12:48:06Z</time>
      </trkpt>
      <trkpt lat="49.71319" lon="4.76926">
        <ele>143.24861</ele>
        <time>2021-04-22T12:48:07Z</time>
      </trkpt>
      <trkpt lat="49.7132" lon="4.7693">
        <ele>143.44873</ele>
        <time>2021-04-22T12:48:08Z</time>
      </trkpt>
      <trkpt lat="49.71322" lon="4.76933">
        <ele>143.25388</ele>
        <time>2021-04-22T12:48:09Z</time>
      </trkpt>
      <trkpt lat="49.71323" lon="4.76937">
        <ele>143.20122</ele>
        <time>2021-04-22T12:48:10Z</time>
      </trkpt>
      <trkpt lat="49.71324" lon="4.7694">
        <ele>143.35394</ele>
        <time>2021-04-22T12:48:11Z</time>
      </trkpt>
      <trkpt lat="49.71325" lon="4.76943">
        <ele>143.52773</ele>
        <time>2021-04-22T12:48:12Z</time>
      </trkpt>
      <trkpt lat="49.71326" lon="4.76946">
        <ele>143.60672</ele>
        <time>2021-04-22T12:48:13Z</time>
      </trkpt>
      <trkpt lat="49.71327" lon="4.7695">
        <ele>143.38553</ele>
        <time>2021-04-22T12:48:14Z</time>
      </trkpt>
      <trkpt lat="49.71328" lon="4.76953">
        <ele>143.19595</ele>
        <time>2021-04-22T12:48:15Z</time>
      </trkpt>
      <trkpt lat="49.7133" lon="4.76956">
        <ele>143.26967</ele>
        <time>2021-04-22T12:48:16Z</time>
      </trkpt>
      <trkpt lat="49.71331" lon="4.7696">
        <ele>143.41187</ele>
        <time>2021-04-22T12:48:17Z</time>
      </trkpt>
      <trkpt lat="49.71332" lon="4.76963">
        <ele>143.29074</ele>
        <time>2021-04-22T12:48:18Z</time>
      </trkpt>
      <trkpt lat="49.71333" lon="4.76967">
        <ele>143.39606</ele>
        <time>2021-04-22T12:48:19Z</time>
      </trkpt>
      <trkpt lat="49.71335" lon="4.7697">
        <ele>143.25388</ele>
        <time>2021-04-22T12:48:20Z</time>
      </trkpt>
      <trkpt lat="49.71336" lon="4.76973">
        <ele>143.55933</ele>
        <time>2021-04-22T12:48:21Z</time>
      </trkpt>
      <trkpt lat="49.71337" lon="4.76976">
        <ele>143.7489</ele>
        <time>2021-04-22T12:48:22Z</time>
      </trkpt>
      <trkpt lat="49.71339" lon="4.7698">
        <ele>143.24335</ele>
        <time>2021-04-22T12:48:23Z</time>
      </trkpt>
      <trkpt lat="49.71341" lon="4.76983">
        <ele>143.52246</ele>
        <time>2021-04-22T12:48:24Z</time>
      </trkpt>
      <trkpt lat="49.71343" lon="4.76987">
        <ele>143.57512</ele>
        <time>2021-04-22T12:48:25Z</time>
      </trkpt>
      <trkpt lat="49.71344" lon="4.76991">
        <ele>143.32234</ele>
        <time>2021-04-22T12:48:26Z</time>
      </trkpt>
      <trkpt lat="49.71346" lon="4.76995">
        <ele>143.22227</ele>
        <time>2021-04-22T12:48:27Z</time>
      </trkpt>
      <trkpt lat="49.71347" lon="4.76998">
        <ele>143.12222</ele>
        <time>2021-04-22T12:48:28Z</time>
      </trkpt>
      <trkpt lat="49.71349" lon="4.77002">
        <ele>142.90103</ele>
        <time>2021-04-22T12:48:29Z</time>
      </trkpt>
      <trkpt lat="49.71352" lon="4.77005">
        <ele>142.92209</ele>
        <time>2021-04-22T12:48:30Z</time>
      </trkpt>
      <trkpt lat="49.71354" lon="4.77008">
        <ele>143.19595</ele>
        <time>2021-04-22T12:48:31Z</time>
      </trkpt>
      <trkpt lat="49.71355" lon="4.77011">
        <ele>143.06429</ele>
        <time>2021-04-22T12:48:32Z</time>
      </trkpt>
      <trkpt lat="49.71358" lon="4.77013">
        <ele>143.08536</ele>
        <time>2021-04-22T12:48:33Z</time>
      </trkpt>
      <trkpt lat="49.7136" lon="4.77016">
        <ele>143.13275</ele>
        <time>2021-04-22T12:48:34Z</time>
      </trkpt>
      <trkpt lat="49.71362" lon="4.7702">
        <ele>142.93263</ele>
        <time>2021-04-22T12:48:35Z</time>
      </trkpt>
      <trkpt lat="49.71363" lon="4.77023">
        <ele>143.11168</ele>
        <time>2021-04-22T12:48:36Z</time>
      </trkpt>
      <trkpt lat="49.71365" lon="4.77026">
        <ele>143.296</ele>
        <time>2021-04-22T12:48:37Z</time>
      </trkpt>
      <trkpt lat="49.71367" lon="4.77028">
        <ele>143.4382</ele>
        <time>2021-04-22T12:48:38Z</time>
      </trkpt>
      <trkpt lat="49.71368" lon="4.77031">
        <ele>143.48033</ele>
        <time>2021-04-22T12:48:39Z</time>
      </trkpt>
      <trkpt lat="49.7137" lon="4.77034">
        <ele>143.60146</ele>
        <time>2021-04-22T12:48:40Z</time>
      </trkpt>
      <trkpt lat="49.71371" lon="4.77038">
        <ele>143.63832</ele>
        <time>2021-04-22T12:48:41Z</time>
      </trkpt>
      <trkpt lat="49.71373" lon="4.77041">
        <ele>143.4224</ele>
        <time>2021-04-22T12:48:42Z</time>
      </trkpt>
      <trkpt lat="49.71374" lon="4.77045">
        <ele>143.43292</ele>
        <time>2021-04-22T12:48:43Z</time>
      </trkpt>
      <trkpt lat="49.71375" lon="4.77049">
        <ele>143.28021</ele>
        <time>2021-04-22T12:48:44Z</time>
      </trkpt>
      <trkpt lat="49.71376" lon="4.77053">
        <ele>143.296</ele>
        <time>2021-04-22T12:48:45Z</time>
      </trkpt>
      <trkpt lat="49.71378" lon="4.77057">
        <ele>143.34868</ele>
        <time>2021-04-22T12:48:46Z</time>
      </trkpt>
      <trkpt lat="49.71379" lon="4.7706">
        <ele>143.21701</ele>
        <time>2021-04-22T12:48:47Z</time>
      </trkpt>
      <trkpt lat="49.7138" lon="4.77063">
        <ele>143.06429</ele>
        <time>2021-04-22T12:48:48Z</time>
      </trkpt>
      <trkpt lat="49.71382" lon="4.77066">
        <ele>143.36447</ele>
        <time>2021-04-22T12:48:49Z</time>
      </trkpt>
      <trkpt lat="49.71383" lon="4.7707">
        <ele>143.64359</ele>
        <time>2021-04-22T12:48:50Z</time>
      </trkpt>
      <trkpt lat="49.71385" lon="4.77074">
        <ele>143.3276</ele>
        <time>2021-04-22T12:48:51Z</time>
      </trkpt>
      <trkpt lat="49.71386" lon="4.77076">
        <ele>143.58565</ele>
        <time>2021-04-22T12:48:52Z</time>
      </trkpt>
      <trkpt lat="49.71387" lon="4.7708">
        <ele>143.76471</ele>
        <time>2021-04-22T12:48:53Z</time>
      </trkpt>
      <trkpt lat="49.71388" lon="4.77083">
        <ele>143.98589</ele>
        <time>2021-04-22T12:48:54Z</time>
      </trkpt>
      <trkpt lat="49.7139" lon="4.77087">
        <ele>143.80684</ele>
        <time>2021-04-22T12:48:55Z</time>
      </trkpt>
      <trkpt lat="49.71392" lon="4.77091">
        <ele>143.83844</ele>
        <time>2021-04-22T12:48:56Z</time>
      </trkpt>
      <trkpt lat="49.71394" lon="4.77094">
        <ele>143.91217</ele>
        <time>2021-04-22T12:48:57Z</time>
      </trkpt>
      <trkpt lat="49.71396" lon="4.77098">
        <ele>144.14388</ele>
        <time>2021-04-22T12:48:58Z</time>
      </trkpt>
      <trkpt lat="49.71398" lon="4.77102">
        <ele>144.0333</ele>
        <time>2021-04-22T12:48:59Z</time>
      </trkpt>
      <trkpt lat="49.714" lon="4.77105">
        <ele>144.30713</ele>
        <time>2021-04-22T12:49:00Z</time>
      </trkpt>
      <trkpt lat="49.71402" lon="4.77108">
        <ele>144.32294</ele>
        <time>2021-04-22T12:49:01Z</time>
      </trkpt>
      <trkpt lat="49.71403" lon="4.77111">
        <ele>143.96483</ele>
        <time>2021-04-22T12:49:02Z</time>
      </trkpt>
      <trkpt lat="49.71405" lon="4.77114">
        <ele>144.35454</ele>
        <time>2021-04-22T12:49:03Z</time>
      </trkpt>
      <trkpt lat="49.71407" lon="4.77117">
        <ele>144.32294</ele>
        <time>2021-04-22T12:49:04Z</time>
      </trkpt>
      <trkpt lat="49.71409" lon="4.77119">
        <ele>144.05962</ele>
        <time>2021-04-22T12:49:05Z</time>
      </trkpt>
      <trkpt lat="49.71411" lon="4.77121">
        <ele>144.21234</ele>
        <time>2021-04-22T12:49:06Z</time>
      </trkpt>
      <trkpt lat="49.71412" lon="4.77123">
        <ele>144.05962</ele>
        <time>2021-04-22T12:49:07Z</time>
      </trkpt>
      <trkpt lat="49.71414" lon="4.77124">
        <ele>143.98062</ele>
        <time>2021-04-22T12:49:08Z</time>
      </trkpt>
      <trkpt lat="49.71416" lon="4.77126">
        <ele>143.8595</ele>
        <time>2021-04-22T12:49:09Z</time>
      </trkpt>
      <trkpt lat="49.71418" lon="4.77127">
        <ele>144.00696</ele>
        <time>2021-04-22T12:49:10Z</time>
      </trkpt>
      <trkpt lat="49.7142" lon="4.77129">
        <ele>143.92796</ele>
        <time>2021-04-22T12:49:11Z</time>
      </trkpt>
      <trkpt lat="49.71421" lon="4.7713">
        <ele>144.05435</ele>
        <time>2021-04-22T12:49:12Z</time>
      </trkpt>
      <trkpt lat="49.71423" lon="4.77132">
        <ele>144.08595</ele>
        <time>2021-04-22T12:49:13Z</time>
      </trkpt>
      <trkpt lat="49.71425" lon="4.77134">
        <ele>144.05435</ele>
        <time>2021-04-22T12:49:14Z</time>
      </trkpt>
      <trkpt lat="49.71428" lon="4.77136">
        <ele>144.13861</ele>
        <time>2021-04-22T12:49:15Z</time>
      </trkpt>
      <trkpt lat="49.71429" lon="4.77138">
        <ele>144.02275</ele>
        <time>2021-04-22T12:49:16Z</time>
      </trkpt>
      <trkpt lat="49.71432" lon="4.7714">
        <ele>144.00696</ele>
        <time>2021-04-22T12:49:17Z</time>
      </trkpt>
      <trkpt lat="49.71434" lon="4.77141">
        <ele>144.17021</ele>
        <time>2021-04-22T12:49:18Z</time>
      </trkpt>
      <trkpt lat="49.71436" lon="4.77144">
        <ele>144.265</ele>
        <time>2021-04-22T12:49:19Z</time>
      </trkpt>
      <trkpt lat="49.71438" lon="4.77146">
        <ele>144.07016</ele>
        <time>2021-04-22T12:49:20Z</time>
      </trkpt>
      <trkpt lat="49.71439" lon="4.77148">
        <ele>143.97536</ele>
        <time>2021-04-22T12:49:21Z</time>
      </trkpt>
      <trkpt lat="49.71441" lon="4.7715">
        <ele>144.17548</ele>
        <time>2021-04-22T12:49:22Z</time>
      </trkpt>
      <trkpt lat="49.71443" lon="4.77153">
        <ele>144.11754</ele>
        <time>2021-04-22T12:49:23Z</time>
      </trkpt>
      <trkpt lat="49.71445" lon="4.77156">
        <ele>144.03856</ele>
        <time>2021-04-22T12:49:24Z</time>
      </trkpt>
      <trkpt lat="49.71447" lon="4.77159">
        <ele>144.17021</ele>
        <time>2021-04-22T12:49:25Z</time>
      </trkpt>
      <trkpt lat="49.71449" lon="4.77161">
        <ele>144.23868</ele>
        <time>2021-04-22T12:49:26Z</time>
      </trkpt>
      <trkpt lat="49.7145" lon="4.77164">
        <ele>144.15968</ele>
        <time>2021-04-22T12:49:27Z</time>
      </trkpt>
      <trkpt lat="49.71452" lon="4.77166">
        <ele>144.25975</ele>
        <time>2021-04-22T12:49:28Z</time>
      </trkpt>
      <trkpt lat="49.71454" lon="4.77169">
        <ele>144.12808</ele>
        <time>2021-04-22T12:49:29Z</time>
      </trkpt>
      <trkpt lat="49.71457" lon="4.77171">
        <ele>143.94904</ele>
        <time>2021-04-22T12:49:30Z</time>
      </trkpt>
      <trkpt lat="49.71459" lon="4.77173">
        <ele>144.2176</ele>
        <time>2021-04-22T12:49:31Z</time>
      </trkpt>
      <trkpt lat="49.71462" lon="4.77175">
        <ele>144.25975</ele>
        <time>2021-04-22T12:49:32Z</time>
      </trkpt>
      <trkpt lat="49.71463" lon="4.77176">
        <ele>144.08069</ele>
        <time>2021-04-22T12:49:33Z</time>
      </trkpt>
      <trkpt lat="49.71466" lon="4.77178">
        <ele>144.59679</ele>
        <time>2021-04-22T12:49:34Z</time>
      </trkpt>
      <trkpt lat="49.71468" lon="4.77179">
        <ele>144.7337</ele>
        <time>2021-04-22T12:49:35Z</time>
      </trkpt>
      <trkpt lat="49.7147" lon="4.7718">
        <ele>144.72844</ele>
        <time>2021-04-22T12:49:36Z</time>
      </trkpt>
      <trkpt lat="49.71472" lon="4.77182">
        <ele>144.72844</ele>
        <time>2021-04-22T12:49:37Z</time>
      </trkpt>
      <trkpt lat="49.71474" lon="4.77183">
        <ele>144.83377</ele>
        <time>2021-04-22T12:49:38Z</time>
      </trkpt>
      <trkpt lat="49.71476" lon="4.77185">
        <ele>144.8917</ele>
        <time>2021-04-22T12:49:39Z</time>
      </trkpt>
      <trkpt lat="49.71478" lon="4.77187">
        <ele>144.69157</ele>
        <time>2021-04-22T12:49:40Z</time>
      </trkpt>
      <trkpt lat="49.71481" lon="4.77189">
        <ele>145.2814</ele>
        <time>2021-04-22T12:49:41Z</time>
      </trkpt>
      <trkpt lat="49.71483" lon="4.7719">
        <ele>145.06548</ele>
        <time>2021-04-22T12:49:42Z</time>
      </trkpt>
      <trkpt lat="49.71485" lon="4.77191">
        <ele>144.88116</ele>
        <time>2021-04-22T12:49:43Z</time>
      </trkpt>
      <trkpt lat="49.71487" lon="4.77192">
        <ele>144.67052</ele>
        <time>2021-04-22T12:49:44Z</time>
      </trkpt>
      <trkpt lat="49.71489" lon="4.77194">
        <ele>144.31767</ele>
        <time>2021-04-22T12:49:45Z</time>
      </trkpt>
      <trkpt lat="49.71491" lon="4.77195">
        <ele>144.12282</ele>
        <time>2021-04-22T12:49:46Z</time>
      </trkpt>
      <trkpt lat="49.71492" lon="4.77196">
        <ele>144.34927</ele>
        <time>2021-04-22T12:49:47Z</time>
      </trkpt>
      <trkpt lat="49.71495" lon="4.77197">
        <ele>144.17021</ele>
        <time>2021-04-22T12:49:48Z</time>
      </trkpt>
      <trkpt lat="49.71497" lon="4.77199">
        <ele>144.15968</ele>
        <time>2021-04-22T12:49:49Z</time>
      </trkpt>
      <trkpt lat="49.71499" lon="4.77201">
        <ele>143.91217</ele>
        <time>2021-04-22T12:49:50Z</time>
      </trkpt>
      <trkpt lat="49.71501" lon="4.77203">
        <ele>143.57512</ele>
        <time>2021-04-22T12:49:51Z</time>
      </trkpt>
      <trkpt lat="49.71503" lon="4.77205">
        <ele>144.01222</ele>
        <time>2021-04-22T12:49:52Z</time>
      </trkpt>
      <trkpt lat="49.71506" lon="4.77206">
        <ele>143.8121</ele>
        <time>2021-04-22T12:49:53Z</time>
      </trkpt>
      <trkpt lat="49.71508" lon="4.77208">
        <ele>143.93849</ele>
        <time>2021-04-22T12:49:54Z</time>
      </trkpt>
      <trkpt lat="49.71511" lon="4.77209">
        <ele>144.06488</ele>
        <time>2021-04-22T12:49:55Z</time>
      </trkpt>
      <trkpt lat="49.71513" lon="4.7721">
        <ele>143.83316</ele>
        <time>2021-04-22T12:49:56Z</time>
      </trkpt>
      <trkpt lat="49.71516" lon="4.7721">
        <ele>144.07542</ele>
        <time>2021-04-22T12:49:57Z</time>
      </trkpt>
      <trkpt lat="49.71518" lon="4.77211">
        <ele>144.27026</ele>
        <time>2021-04-22T12:49:58Z</time>
      </trkpt>
      <trkpt lat="49.7152" lon="4.77212">
        <ele>144.186</ele>
        <time>2021-04-22T12:49:59Z</time>
      </trkpt>
      <trkpt lat="49.71523" lon="4.77212">
        <ele>144.22287</ele>
        <time>2021-04-22T12:50:00Z</time>
      </trkpt>
      <trkpt lat="49.71525" lon="4.77213">
        <ele>144.08069</ele>
        <time>2021-04-22T12:50:01Z</time>
      </trkpt>
      <trkpt lat="49.71528" lon="4.77214">
        <ele>144.0017</ele>
        <time>2021-04-22T12:50:02Z</time>
      </trkpt>
      <trkpt lat="49.7153" lon="4.77215">
        <ele>144.08069</ele>
        <time>2021-04-22T12:50:03Z</time>
      </trkpt>
      <trkpt lat="49.71532" lon="4.77217">
        <ele>144.04909</ele>
        <time>2021-04-22T12:50:04Z</time>
      </trkpt>
      <trkpt lat="49.71534" lon="4.77219">
        <ele>143.99115</ele>
        <time>2021-04-22T12:50:05Z</time>
      </trkpt>
      <trkpt lat="49.71537" lon="4.7722">
        <ele>143.77524</ele>
        <time>2021-04-22T12:50:06Z</time>
      </trkpt>
      <trkpt lat="49.71539" lon="4.77221">
        <ele>143.89636</ele>
        <time>2021-04-22T12:50:07Z</time>
      </trkpt>
      <trkpt lat="49.71541" lon="4.77222">
        <ele>143.9701</ele>
        <time>2021-04-22T12:50:08Z</time>
      </trkpt>
      <trkpt lat="49.71543" lon="4.77224">
        <ele>143.88057</ele>
        <time>2021-04-22T12:50:09Z</time>
      </trkpt>
      <trkpt lat="49.71545" lon="4.77226">
        <ele>143.9543</ele>
        <time>2021-04-22T12:50:10Z</time>
      </trkpt>
      <trkpt lat="49.71548" lon="4.77228">
        <ele>143.8437</ele>
        <time>2021-04-22T12:50:11Z</time>
      </trkpt>
      <trkpt lat="49.7155" lon="4.7723">
        <ele>143.87003</ele>
        <time>2021-04-22T12:50:12Z</time>
      </trkpt>
      <trkpt lat="49.71553" lon="4.77233">
        <ele>143.93323</ele>
        <time>2021-04-22T12:50:13Z</time>
      </trkpt>
      <trkpt lat="49.71556" lon="4.77235">
        <ele>143.86476</ele>
        <time>2021-04-22T12:50:14Z</time>
      </trkpt>
      <trkpt lat="49.71558" lon="4.77237">
        <ele>143.79631</ele>
        <time>2021-04-22T12:50:15Z</time>
      </trkpt>
      <trkpt lat="49.71561" lon="4.77238">
        <ele>143.8595</ele>
        <time>2021-04-22T12:50:16Z</time>
      </trkpt>
      <trkpt lat="49.71563" lon="4.7724">
        <ele>143.86476</ele>
        <time>2021-04-22T12:50:17Z</time>
      </trkpt>
      <trkpt lat="49.71565" lon="4.77241">
        <ele>143.88057</ele>
        <time>2021-04-22T12:50:18Z</time>
      </trkpt>
      <trkpt lat="49.71568" lon="4.77243">
        <ele>143.99115</ele>
        <time>2021-04-22T12:50:19Z</time>
      </trkpt>
      <trkpt lat="49.7157" lon="4.77244">
        <ele>143.76471</ele>
        <time>2021-04-22T12:50:20Z</time>
      </trkpt>
      <trkpt lat="49.71572" lon="4.77247">
        <ele>143.68571</ele>
        <time>2021-04-22T12:50:21Z</time>
      </trkpt>
      <trkpt lat="49.71575" lon="4.77248">
        <ele>143.7489</ele>
        <time>2021-04-22T12:50:22Z</time>
      </trkpt>
      <trkpt lat="49.71578" lon="4.7725">
        <ele>143.8279</ele>
        <time>2021-04-22T12:50:23Z</time>
      </trkpt>
      <trkpt lat="49.7158" lon="4.77252">
        <ele>143.7015</ele>
        <time>2021-04-22T12:50:24Z</time>
      </trkpt>
      <trkpt lat="49.71583" lon="4.77254">
        <ele>143.86476</ele>
        <time>2021-04-22T12:50:25Z</time>
      </trkpt>
      <trkpt lat="49.71586" lon="4.77255">
        <ele>143.79105</ele>
        <time>2021-04-22T12:50:26Z</time>
      </trkpt>
      <trkpt lat="49.71588" lon="4.77256">
        <ele>143.74364</ele>
        <time>2021-04-22T12:50:27Z</time>
      </trkpt>
      <trkpt lat="49.7159" lon="4.77257">
        <ele>143.73311</ele>
        <time>2021-04-22T12:50:28Z</time>
      </trkpt>
      <trkpt lat="49.71593" lon="4.77258">
        <ele>143.6699</ele>
        <time>2021-04-22T12:50:29Z</time>
      </trkpt>
      <trkpt lat="49.71596" lon="4.7726">
        <ele>143.59091</ele>
        <time>2021-04-22T12:50:30Z</time>
      </trkpt>
      <trkpt lat="49.71598" lon="4.77261">
        <ele>143.72784</ele>
        <time>2021-04-22T12:50:31Z</time>
      </trkpt>
      <trkpt lat="49.71601" lon="4.77263">
        <ele>143.82265</ele>
        <time>2021-04-22T12:50:32Z</time>
      </trkpt>
      <trkpt lat="49.71604" lon="4.77264">
        <ele>143.83844</ele>
        <time>2021-04-22T12:50:33Z</time>
      </trkpt>
      <trkpt lat="49.71606" lon="4.77266">
        <ele>143.97536</ele>
        <time>2021-04-22T12:50:34Z</time>
      </trkpt>
      <trkpt lat="49.71609" lon="4.77267">
        <ele>143.97536</ele>
        <time>2021-04-22T12:50:35Z</time>
      </trkpt>
      <trkpt lat="49.71611" lon="4.77269">
        <ele>144.09122</ele>
        <time>2021-04-22T12:50:36Z</time>
      </trkpt>
      <trkpt lat="49.71614" lon="4.7727">
        <ele>144.13335</ele>
        <time>2021-04-22T12:50:37Z</time>
      </trkpt>
      <trkpt lat="49.71617" lon="4.77271">
        <ele>143.9701</ele>
        <time>2021-04-22T12:50:38Z</time>
      </trkpt>
      <trkpt lat="49.71619" lon="4.77272">
        <ele>143.97536</ele>
        <time>2021-04-22T12:50:39Z</time>
      </trkpt>
      <trkpt lat="49.71622" lon="4.77273">
        <ele>143.98589</ele>
        <time>2021-04-22T12:50:40Z</time>
      </trkpt>
      <trkpt lat="49.71625" lon="4.77274">
        <ele>144.03856</ele>
        <time>2021-04-22T12:50:41Z</time>
      </trkpt>
      <trkpt lat="49.71627" lon="4.77274">
        <ele>144.02275</ele>
        <time>2021-04-22T12:50:42Z</time>
      </trkpt>
      <trkpt lat="49.7163" lon="4.77274">
        <ele>144.06488</ele>
        <time>2021-04-22T12:50:43Z</time>
      </trkpt>
      <trkpt lat="49.71632" lon="4.77275">
        <ele>143.92796</ele>
        <time>2021-04-22T12:50:44Z</time>
      </trkpt>
      <trkpt lat="49.71635" lon="4.77275">
        <ele>143.70677</ele>
        <time>2021-04-22T12:50:45Z</time>
      </trkpt>
      <trkpt lat="49.71638" lon="4.77275">
        <ele>144.0017</ele>
        <time>2021-04-22T12:50:46Z</time>
      </trkpt>
      <trkpt lat="49.7164" lon="4.77275">
        <ele>143.85423</ele>
        <time>2021-04-22T12:50:47Z</time>
      </trkpt>
      <trkpt lat="49.71643" lon="4.77276">
        <ele>144.10176</ele>
        <time>2021-04-22T12:50:48Z</time>
      </trkpt>
      <trkpt lat="49.71646" lon="4.77277">
        <ele>144.33347</ele>
        <time>2021-04-22T12:50:49Z</time>
      </trkpt>
      <trkpt lat="49.71648" lon="4.77279">
        <ele>144.36507</ele>
        <time>2021-04-22T12:50:50Z</time>
      </trkpt>
      <trkpt lat="49.71651" lon="4.7728">
        <ele>144.2808</ele>
        <time>2021-04-22T12:50:51Z</time>
      </trkpt>
      <trkpt lat="49.71653" lon="4.77282">
        <ele>144.41774</ele>
        <time>2021-04-22T12:50:52Z</time>
      </trkpt>
      <trkpt lat="49.71656" lon="4.77284">
        <ele>144.2808</ele>
        <time>2021-04-22T12:50:53Z</time>
      </trkpt>
      <trkpt lat="49.71658" lon="4.77287">
        <ele>144.16495</ele>
        <time>2021-04-22T12:50:54Z</time>
      </trkpt>
      <trkpt lat="49.7166" lon="4.77289">
        <ele>144.01222</ele>
        <time>2021-04-22T12:50:55Z</time>
      </trkpt>
      <trkpt lat="49.71662" lon="4.77293">
        <ele>144.09122</ele>
        <time>2021-04-22T12:50:56Z</time>
      </trkpt>
      <trkpt lat="49.71663" lon="4.77296">
        <ele>144.10176</ele>
        <time>2021-04-22T12:50:57Z</time>
      </trkpt>
      <trkpt lat="49.71664" lon="4.773">
        <ele>144.08069</ele>
        <time>2021-04-22T12:50:58Z</time>
      </trkpt>
      <trkpt lat="49.71664" lon="4.77304">
        <ele>144.06488</ele>
        <time>2021-04-22T12:50:59Z</time>
      </trkpt>
      <trkpt lat="49.71665" lon="4.77308">
        <ele>144.11754</ele>
        <time>2021-04-22T12:51:00Z</time>
      </trkpt>
      <trkpt lat="49.71665" lon="4.77312">
        <ele>143.80684</ele>
        <time>2021-04-22T12:51:01Z</time>
      </trkpt>
      <trkpt lat="49.71665" lon="4.77315">
        <ele>144.04909</ele>
        <time>2021-04-22T12:51:02Z</time>
      </trkpt>
      <trkpt lat="49.71666" lon="4.77319">
        <ele>144.186</ele>
        <time>2021-04-22T12:51:03Z</time>
      </trkpt>
      <trkpt lat="49.71666" lon="4.77323">
        <ele>143.99115</ele>
        <time>2021-04-22T12:51:04Z</time>
      </trkpt>
      <trkpt lat="49.71667" lon="4.77327">
        <ele>143.96483</ele>
        <time>2021-04-22T12:51:05Z</time>
      </trkpt>
      <trkpt lat="49.71667" lon="4.77331">
        <ele>143.73311</ele>
        <time>2021-04-22T12:51:06Z</time>
      </trkpt>
      <trkpt lat="49.71668" lon="4.77336">
        <ele>143.7489</ele>
        <time>2021-04-22T12:51:07Z</time>
      </trkpt>
      <trkpt lat="49.71669" lon="4.7734">
        <ele>143.73311</ele>
        <time>2021-04-22T12:51:08Z</time>
      </trkpt>
      <trkpt lat="49.71671" lon="4.77345">
        <ele>143.67517</ele>
        <time>2021-04-22T12:51:09Z</time>
      </trkpt>
      <trkpt lat="49.71671" lon="4.77348">
        <ele>143.52773</ele>
        <time>2021-04-22T12:51:10Z</time>
      </trkpt>
      <trkpt lat="49.71672" lon="4.77352">
        <ele>143.63832</ele>
        <time>2021-04-22T12:51:11Z</time>
      </trkpt>
      <trkpt lat="49.71672" lon="4.77356">
        <ele>143.56985</ele>
        <time>2021-04-22T12:51:12Z</time>
      </trkpt>
      <trkpt lat="49.71674" lon="4.7736">
        <ele>143.55405</ele>
        <time>2021-04-22T12:51:13Z</time>
      </trkpt>
      <trkpt lat="49.71674" lon="4.77364">
        <ele>143.58038</ele>
        <time>2021-04-22T12:51:14Z</time>
      </trkpt>
      <trkpt lat="49.71675" lon="4.77368">
        <ele>143.55405</ele>
        <time>2021-04-22T12:51:15Z</time>
      </trkpt>
      <trkpt lat="49.71676" lon="4.77371">
        <ele>143.49086</ele>
        <time>2021-04-22T12:51:16Z</time>
      </trkpt>
      <trkpt lat="49.71677" lon="4.77376">
        <ele>143.45926</ele>
        <time>2021-04-22T12:51:17Z</time>
      </trkpt>
      <trkpt lat="49.71678" lon="4.7738">
        <ele>143.29074</ele>
        <time>2021-04-22T12:51:18Z</time>
      </trkpt>
      <trkpt lat="49.71679" lon="4.77384">
        <ele>143.51718</ele>
        <time>2021-04-22T12:51:19Z</time>
      </trkpt>
      <trkpt lat="49.71681" lon="4.77389">
        <ele>143.43292</ele>
        <time>2021-04-22T12:51:20Z</time>
      </trkpt>
      <trkpt lat="49.71682" lon="4.77393">
        <ele>143.4224</ele>
        <time>2021-04-22T12:51:21Z</time>
      </trkpt>
      <trkpt lat="49.71683" lon="4.77397">
        <ele>143.48033</ele>
        <time>2021-04-22T12:51:22Z</time>
      </trkpt>
      <trkpt lat="49.71684" lon="4.77401">
        <ele>143.6699</ele>
        <time>2021-04-22T12:51:23Z</time>
      </trkpt>
      <trkpt lat="49.71686" lon="4.77406">
        <ele>143.454</ele>
        <time>2021-04-22T12:51:24Z</time>
      </trkpt>
      <trkpt lat="49.71687" lon="4.7741">
        <ele>143.55405</ele>
        <time>2021-04-22T12:51:25Z</time>
      </trkpt>
      <trkpt lat="49.71688" lon="4.77414">
        <ele>143.49612</ele>
        <time>2021-04-22T12:51:26Z</time>
      </trkpt>
      <trkpt lat="49.71689" lon="4.77419">
        <ele>143.48033</ele>
        <time>2021-04-22T12:51:27Z</time>
      </trkpt>
      <trkpt lat="49.7169" lon="4.77423">
        <ele>143.52773</ele>
        <time>2021-04-22T12:51:28Z</time>
      </trkpt>
      <trkpt lat="49.71691" lon="4.77428">
        <ele>143.49612</ele>
        <time>2021-04-22T12:51:29Z</time>
      </trkpt>
      <trkpt lat="49.71692" lon="4.77432">
        <ele>143.48033</ele>
        <time>2021-04-22T12:51:30Z</time>
      </trkpt>
      <trkpt lat="49.71693" lon="4.77436">
        <ele>143.58565</ele>
        <time>2021-04-22T12:51:31Z</time>
      </trkpt>
      <trkpt lat="49.71694" lon="4.7744">
        <ele>143.86476</ele>
        <time>2021-04-22T12:51:32Z</time>
      </trkpt>
      <trkpt lat="49.71695" lon="4.77443">
        <ele>143.8911</ele>
        <time>2021-04-22T12:51:33Z</time>
      </trkpt>
      <trkpt lat="49.71696" lon="4.77447">
        <ele>143.61198</ele>
        <time>2021-04-22T12:51:34Z</time>
      </trkpt>
      <trkpt lat="49.71697" lon="4.77451">
        <ele>143.75945</ele>
        <time>2021-04-22T12:51:35Z</time>
      </trkpt>
      <trkpt lat="49.71699" lon="4.77455">
        <ele>143.50139</ele>
        <time>2021-04-22T12:51:36Z</time>
      </trkpt>
      <trkpt lat="49.717" lon="4.7746">
        <ele>143.47507</ele>
        <time>2021-04-22T12:51:37Z</time>
      </trkpt>
      <trkpt lat="49.71701" lon="4.77464">
        <ele>143.33287</ele>
        <time>2021-04-22T12:51:38Z</time>
      </trkpt>
      <trkpt lat="49.71702" lon="4.77468">
        <ele>143.33287</ele>
        <time>2021-04-22T12:51:39Z</time>
      </trkpt>
      <trkpt lat="49.71703" lon="4.77473">
        <ele>143.33287</ele>
        <time>2021-04-22T12:51:40Z</time>
      </trkpt>
      <trkpt lat="49.71704" lon="4.77477">
        <ele>143.28021</ele>
        <time>2021-04-22T12:51:41Z</time>
      </trkpt>
      <trkpt lat="49.71705" lon="4.77481">
        <ele>143.33813</ele>
        <time>2021-04-22T12:51:42Z</time>
      </trkpt>
      <trkpt lat="49.71706" lon="4.77486">
        <ele>143.22227</ele>
        <time>2021-04-22T12:51:43Z</time>
      </trkpt>
      <trkpt lat="49.71707" lon="4.7749">
        <ele>143.03796</ele>
        <time>2021-04-22T12:51:44Z</time>
      </trkpt>
      <trkpt lat="49.71708" lon="4.77494">
        <ele>143.05376</ele>
        <time>2021-04-22T12:51:45Z</time>
      </trkpt>
      <trkpt lat="49.71709" lon="4.77499">
        <ele>143.01689</ele>
        <time>2021-04-22T12:51:46Z</time>
      </trkpt>
      <trkpt lat="49.71709" lon="4.77503">
        <ele>142.87471</ele>
        <time>2021-04-22T12:51:47Z</time>
      </trkpt>
      <trkpt lat="49.7171" lon="4.77507">
        <ele>143.09062</ele>
        <time>2021-04-22T12:51:48Z</time>
      </trkpt>
      <trkpt lat="49.71711" lon="4.77511">
        <ele>142.95369</ele>
        <time>2021-04-22T12:51:49Z</time>
      </trkpt>
      <trkpt lat="49.71711" lon="4.77516">
        <ele>143.04323</ele>
        <time>2021-04-22T12:51:50Z</time>
      </trkpt>
      <trkpt lat="49.71712" lon="4.7752">
        <ele>142.91684</ele>
        <time>2021-04-22T12:51:51Z</time>
      </trkpt>
      <trkpt lat="49.71713" lon="4.77525">
        <ele>142.88524</ele>
        <time>2021-04-22T12:51:52Z</time>
      </trkpt>
      <trkpt lat="49.71712" lon="4.7753">
        <ele>143.08536</ele>
        <time>2021-04-22T12:51:53Z</time>
      </trkpt>
      <trkpt lat="49.71712" lon="4.77535">
        <ele>142.92737</ele>
        <time>2021-04-22T12:51:54Z</time>
      </trkpt>
      <trkpt lat="49.7171" lon="4.77539">
        <ele>142.90103</ele>
        <time>2021-04-22T12:51:55Z</time>
      </trkpt>
      <trkpt lat="49.71709" lon="4.77544">
        <ele>143.06429</ele>
        <time>2021-04-22T12:51:56Z</time>
      </trkpt>
      <trkpt lat="49.71708" lon="4.77548">
        <ele>143.08008</ele>
        <time>2021-04-22T12:51:57Z</time>
      </trkpt>
      <trkpt lat="49.71706" lon="4.77552">
        <ele>143.10115</ele>
        <time>2021-04-22T12:51:58Z</time>
      </trkpt>
      <trkpt lat="49.71705" lon="4.77556">
        <ele>143.02216</ele>
        <time>2021-04-22T12:51:59Z</time>
      </trkpt>
      <trkpt lat="49.71704" lon="4.77559">
        <ele>143.16962</ele>
        <time>2021-04-22T12:52:00Z</time>
      </trkpt>
      <trkpt lat="49.71702" lon="4.77563">
        <ele>143.02216</ele>
        <time>2021-04-22T12:52:01Z</time>
      </trkpt>
      <trkpt lat="49.717" lon="4.77567">
        <ele>143.2328</ele>
        <time>2021-04-22T12:52:02Z</time>
      </trkpt>
      <trkpt lat="49.71698" lon="4.7757">
        <ele>143.22227</ele>
        <time>2021-04-22T12:52:03Z</time>
      </trkpt>
      <trkpt lat="49.71697" lon="4.77574">
        <ele>142.9379</ele>
        <time>2021-04-22T12:52:04Z</time>
      </trkpt>
      <trkpt lat="49.71695" lon="4.77577">
        <ele>142.67458</ele>
        <time>2021-04-22T12:52:05Z</time>
      </trkpt>
      <trkpt lat="49.71693" lon="4.7758">
        <ele>142.83257</ele>
        <time>2021-04-22T12:52:06Z</time>
      </trkpt>
      <trkpt lat="49.71691" lon="4.77583">
        <ele>143.0011</ele>
        <time>2021-04-22T12:52:07Z</time>
      </trkpt>
      <trkpt lat="49.71689" lon="4.77586">
        <ele>142.88524</ele>
        <time>2021-04-22T12:52:08Z</time>
      </trkpt>
      <trkpt lat="49.71687" lon="4.77588">
        <ele>142.8273</ele>
        <time>2021-04-22T12:52:09Z</time>
      </trkpt>
      <trkpt lat="49.71685" lon="4.77591">
        <ele>142.91158</ele>
        <time>2021-04-22T12:52:10Z</time>
      </trkpt>
      <trkpt lat="49.71683" lon="4.77595">
        <ele>142.7799</ele>
        <time>2021-04-22T12:52:11Z</time>
      </trkpt>
      <trkpt lat="49.71681" lon="4.77597">
        <ele>142.94316</ele>
        <time>2021-04-22T12:52:12Z</time>
      </trkpt>
      <trkpt lat="49.71678" lon="4.77598">
        <ele>142.77464</ele>
        <time>2021-04-22T12:52:13Z</time>
      </trkpt>
      <trkpt lat="49.71676" lon="4.776">
        <ele>142.8273</ele>
        <time>2021-04-22T12:52:14Z</time>
      </trkpt>
      <trkpt lat="49.71673" lon="4.77601">
        <ele>142.91684</ele>
        <time>2021-04-22T12:52:15Z</time>
      </trkpt>
      <trkpt lat="49.71671" lon="4.77603">
        <ele>142.7957</ele>
        <time>2021-04-22T12:52:16Z</time>
      </trkpt>
      <trkpt lat="49.71668" lon="4.77604">
        <ele>142.91684</ele>
        <time>2021-04-22T12:52:17Z</time>
      </trkpt>
      <trkpt lat="49.71666" lon="4.77605">
        <ele>142.9695</ele>
        <time>2021-04-22T12:52:18Z</time>
      </trkpt>
      <trkpt lat="49.71663" lon="4.77606">
        <ele>143.01689</ele>
        <time>2021-04-22T12:52:19Z</time>
      </trkpt>
      <trkpt lat="49.7166" lon="4.77607">
        <ele>143.07481</ele>
        <time>2021-04-22T12:52:20Z</time>
      </trkpt>
      <trkpt lat="49.71658" lon="4.77608">
        <ele>143.22227</ele>
        <time>2021-04-22T12:52:21Z</time>
      </trkpt>
      <trkpt lat="49.71655" lon="4.77608">
        <ele>143.12749</ele>
        <time>2021-04-22T12:52:22Z</time>
      </trkpt>
      <trkpt lat="49.71653" lon="4.77609">
        <ele>142.88524</ele>
        <time>2021-04-22T12:52:23Z</time>
      </trkpt>
      <trkpt lat="49.7165" lon="4.77609">
        <ele>142.98529</ele>
        <time>2021-04-22T12:52:24Z</time>
      </trkpt>
      <trkpt lat="49.71647" lon="4.7761">
        <ele>142.94843</ele>
        <time>2021-04-22T12:52:25Z</time>
      </trkpt>
      <trkpt lat="49.71645" lon="4.77611">
        <ele>142.87471</ele>
        <time>2021-04-22T12:52:26Z</time>
      </trkpt>
      <trkpt lat="49.71642" lon="4.77611">
        <ele>143.13275</ele>
        <time>2021-04-22T12:52:27Z</time>
      </trkpt>
      <trkpt lat="49.7164" lon="4.77612">
        <ele>143.20648</ele>
        <time>2021-04-22T12:52:28Z</time>
      </trkpt>
      <trkpt lat="49.71637" lon="4.77612">
        <ele>143.12222</ele>
        <time>2021-04-22T12:52:29Z</time>
      </trkpt>
      <trkpt lat="49.71634" lon="4.77613">
        <ele>143.19069</ele>
        <time>2021-04-22T12:52:30Z</time>
      </trkpt>
      <trkpt lat="49.71631" lon="4.77613">
        <ele>143.08536</ele>
        <time>2021-04-22T12:52:31Z</time>
      </trkpt>
      <trkpt lat="49.71629" lon="4.77613">
        <ele>143.16435</ele>
        <time>2021-04-22T12:52:32Z</time>
      </trkpt>
      <trkpt lat="49.71627" lon="4.77613">
        <ele>143.11168</ele>
        <time>2021-04-22T12:52:33Z</time>
      </trkpt>
      <trkpt lat="49.71625" lon="4.77614">
        <ele>143.12222</ele>
        <time>2021-04-22T12:52:34Z</time>
      </trkpt>
      <trkpt lat="49.71623" lon="4.77614">
        <ele>143.11694</ele>
        <time>2021-04-22T12:52:35Z</time>
      </trkpt>
      <trkpt lat="49.7162" lon="4.77613">
        <ele>143.14328</ele>
        <time>2021-04-22T12:52:36Z</time>
      </trkpt>
      <trkpt lat="49.71618" lon="4.77612">
        <ele>143.09589</ele>
        <time>2021-04-22T12:52:37Z</time>
      </trkpt>
      <trkpt lat="49.71614" lon="4.77612">
        <ele>143.0485</ele>
        <time>2021-04-22T12:52:38Z</time>
      </trkpt>
      <trkpt lat="49.71611" lon="4.77611">
        <ele>143.03796</ele>
        <time>2021-04-22T12:52:39Z</time>
      </trkpt>
      <trkpt lat="49.71607" lon="4.77611">
        <ele>143.05902</ele>
        <time>2021-04-22T12:52:40Z</time>
      </trkpt>
      <trkpt lat="49.71603" lon="4.7761">
        <ele>142.91158</ele>
        <time>2021-04-22T12:52:41Z</time>
      </trkpt>
      <trkpt lat="49.716" lon="4.77609">
        <ele>142.84837</ele>
        <time>2021-04-22T12:52:42Z</time>
      </trkpt>
      <trkpt lat="49.71597" lon="4.77609">
        <ele>142.84311</ele>
        <time>2021-04-22T12:52:43Z</time>
      </trkpt>
      <trkpt lat="49.71593" lon="4.77608">
        <ele>142.85364</ele>
        <time>2021-04-22T12:52:44Z</time>
      </trkpt>
      <trkpt lat="49.7159" lon="4.77608">
        <ele>142.8905</ele>
        <time>2021-04-22T12:52:45Z</time>
      </trkpt>
      <trkpt lat="49.71587" lon="4.77608">
        <ele>142.86417</ele>
        <time>2021-04-22T12:52:46Z</time>
      </trkpt>
      <trkpt lat="49.71584" lon="4.77608">
        <ele>142.91684</ele>
        <time>2021-04-22T12:52:47Z</time>
      </trkpt>
      <trkpt lat="49.71581" lon="4.77607">
        <ele>142.89577</ele>
        <time>2021-04-22T12:52:48Z</time>
      </trkpt>
      <trkpt lat="49.71578" lon="4.77607">
        <ele>142.83257</ele>
        <time>2021-04-22T12:52:49Z</time>
      </trkpt>
      <trkpt lat="49.71575" lon="4.77606">
        <ele>142.8589</ele>
        <time>2021-04-22T12:52:50Z</time>
      </trkpt>
      <trkpt lat="49.71571" lon="4.77606">
        <ele>142.83257</ele>
        <time>2021-04-22T12:52:51Z</time>
      </trkpt>
      <trkpt lat="49.71568" lon="4.77605">
        <ele>142.8273</ele>
        <time>2021-04-22T12:52:52Z</time>
      </trkpt>
      <trkpt lat="49.71565" lon="4.77605">
        <ele>142.85364</ele>
        <time>2021-04-22T12:52:53Z</time>
      </trkpt>
      <trkpt lat="49.71563" lon="4.77605">
        <ele>142.91158</ele>
        <time>2021-04-22T12:52:54Z</time>
      </trkpt>
      <trkpt lat="49.7156" lon="4.77605">
        <ele>142.89577</ele>
        <time>2021-04-22T12:52:55Z</time>
      </trkpt>
      <trkpt lat="49.71557" lon="4.77606">
        <ele>142.91684</ele>
        <time>2021-04-22T12:52:56Z</time>
      </trkpt>
      <trkpt lat="49.71555" lon="4.77608">
        <ele>142.89577</ele>
        <time>2021-04-22T12:52:57Z</time>
      </trkpt>
      <trkpt lat="49.71552" lon="4.77612">
        <ele>143.11694</ele>
        <time>2021-04-22T12:52:58Z</time>
      </trkpt>
      <trkpt lat="49.71552" lon="4.77616">
        <ele>143.49612</ele>
        <time>2021-04-22T12:52:59Z</time>
      </trkpt>
      <trkpt lat="49.71552" lon="4.77621">
        <ele>143.80684</ele>
        <time>2021-04-22T12:53:00Z</time>
      </trkpt>
      <trkpt lat="49.71552" lon="4.77627">
        <ele>143.78578</ele>
        <time>2021-04-22T12:53:01Z</time>
      </trkpt>
      <trkpt lat="49.71552" lon="4.77632">
        <ele>144.13335</ele>
        <time>2021-04-22T12:53:02Z</time>
      </trkpt>
      <trkpt lat="49.71553" lon="4.77637">
        <ele>144.16495</ele>
        <time>2021-04-22T12:53:03Z</time>
      </trkpt>
      <trkpt lat="49.71553" lon="4.77642">
        <ele>144.02275</ele>
        <time>2021-04-22T12:53:04Z</time>
      </trkpt>
      <trkpt lat="49.71553" lon="4.77647">
        <ele>144.01222</ele>
        <time>2021-04-22T12:53:05Z</time>
      </trkpt>
      <trkpt lat="49.71553" lon="4.7765">
        <ele>144.05962</ele>
        <time>2021-04-22T12:53:06Z</time>
      </trkpt>
      <trkpt lat="49.71553" lon="4.77653">
        <ele>143.79105</ele>
        <time>2021-04-22T12:53:07Z</time>
      </trkpt>
      <trkpt lat="49.71553" lon="4.77655">
        <ele>143.73311</ele>
        <time>2021-04-22T12:53:08Z</time>
      </trkpt>
      <trkpt lat="49.71553" lon="4.77657">
        <ele>143.70677</ele>
        <time>2021-04-22T12:53:09Z</time>
      </trkpt>
      <trkpt lat="49.71553" lon="4.77661">
        <ele>143.8437</ele>
        <time>2021-04-22T12:53:10Z</time>
      </trkpt>
      <trkpt lat="49.71552" lon="4.77664">
        <ele>143.72784</ele>
        <time>2021-04-22T12:53:11Z</time>
      </trkpt>
      <trkpt lat="49.71552" lon="4.77667">
        <ele>143.83844</ele>
        <time>2021-04-22T12:53:12Z</time>
      </trkpt>
      <trkpt lat="49.71552" lon="4.77672">
        <ele>143.91217</ele>
        <time>2021-04-22T12:53:13Z</time>
      </trkpt>
      <trkpt lat="49.71552" lon="4.77675">
        <ele>144.10176</ele>
        <time>2021-04-22T12:53:14Z</time>
      </trkpt>
      <trkpt lat="49.71553" lon="4.7768">
        <ele>144.01749</ele>
        <time>2021-04-22T12:53:15Z</time>
      </trkpt>
      <trkpt lat="49.71553" lon="4.77684">
        <ele>144.2966</ele>
        <time>2021-04-22T12:53:16Z</time>
      </trkpt>
      <trkpt lat="49.71553" lon="4.77689">
        <ele>144.2176</ele>
        <time>2021-04-22T12:53:17Z</time>
      </trkpt>
      <trkpt lat="49.71553" lon="4.77694">
        <ele>144.03856</ele>
        <time>2021-04-22T12:53:18Z</time>
      </trkpt>
      <trkpt lat="49.71553" lon="4.77698">
        <ele>144.07542</ele>
        <time>2021-04-22T12:53:19Z</time>
      </trkpt>
      <trkpt lat="49.71553" lon="4.77702">
        <ele>144.00696</ele>
        <time>2021-04-22T12:53:20Z</time>
      </trkpt>
      <trkpt lat="49.71553" lon="4.77707">
        <ele>143.95955</ele>
        <time>2021-04-22T12:53:21Z</time>
      </trkpt>
      <trkpt lat="49.71552" lon="4.77711">
        <ele>143.86476</ele>
        <time>2021-04-22T12:53:22Z</time>
      </trkpt>
      <trkpt lat="49.71551" lon="4.77715">
        <ele>144.05962</ele>
        <time>2021-04-22T12:53:23Z</time>
      </trkpt>
      <trkpt lat="49.71549" lon="4.77719">
        <ele>143.9701</ele>
        <time>2021-04-22T12:53:24Z</time>
      </trkpt>
      <trkpt lat="49.71547" lon="4.77722">
        <ele>143.80684</ele>
        <time>2021-04-22T12:53:25Z</time>
      </trkpt>
      <trkpt lat="49.71544" lon="4.77726">
        <ele>143.76997</ele>
        <time>2021-04-22T12:53:26Z</time>
      </trkpt>
      <trkpt lat="49.71541" lon="4.77727">
        <ele>143.84897</ele>
        <time>2021-04-22T12:53:27Z</time>
      </trkpt>
      <trkpt lat="49.71537" lon="4.77728">
        <ele>143.9543</ele>
        <time>2021-04-22T12:53:28Z</time>
      </trkpt>
      <trkpt lat="49.71534" lon="4.77729">
        <ele>144.04382</ele>
        <time>2021-04-22T12:53:29Z</time>
      </trkpt>
      <trkpt lat="49.7153" lon="4.77729">
        <ele>143.82265</ele>
        <time>2021-04-22T12:53:30Z</time>
      </trkpt>
      <trkpt lat="49.71526" lon="4.77729">
        <ele>143.72258</ele>
        <time>2021-04-22T12:53:31Z</time>
      </trkpt>
      <trkpt lat="49.71523" lon="4.77729">
        <ele>143.85423</ele>
        <time>2021-04-22T12:53:32Z</time>
      </trkpt>
      <trkpt lat="49.7152" lon="4.77728">
        <ele>143.83316</ele>
        <time>2021-04-22T12:53:33Z</time>
      </trkpt>
      <trkpt lat="49.71516" lon="4.77728">
        <ele>143.78578</ele>
        <time>2021-04-22T12:53:34Z</time>
      </trkpt>
      <trkpt lat="49.71513" lon="4.77728">
        <ele>143.66466</ele>
        <time>2021-04-22T12:53:35Z</time>
      </trkpt>
      <trkpt lat="49.71509" lon="4.77729">
        <ele>143.74364</ele>
        <time>2021-04-22T12:53:36Z</time>
      </trkpt>
      <trkpt lat="49.71506" lon="4.7773">
        <ele>143.80684</ele>
        <time>2021-04-22T12:53:37Z</time>
      </trkpt>
      <trkpt lat="49.71503" lon="4.77731">
        <ele>143.59091</ele>
        <time>2021-04-22T12:53:38Z</time>
      </trkpt>
      <trkpt lat="49.715" lon="4.77731">
        <ele>143.62251</ele>
        <time>2021-04-22T12:53:39Z</time>
      </trkpt>
      <trkpt lat="49.71497" lon="4.77732">
        <ele>143.52246</ele>
        <time>2021-04-22T12:53:40Z</time>
      </trkpt>
      <trkpt lat="49.71493" lon="4.77732">
        <ele>143.66466</ele>
        <time>2021-04-22T12:53:41Z</time>
      </trkpt>
      <trkpt lat="49.71489" lon="4.77733">
        <ele>143.63832</ele>
        <time>2021-04-22T12:53:42Z</time>
      </trkpt>
      <trkpt lat="49.71486" lon="4.77733">
        <ele>143.53299</ele>
        <time>2021-04-22T12:53:43Z</time>
      </trkpt>
      <trkpt lat="49.71482" lon="4.77733">
        <ele>143.51193</ele>
        <time>2021-04-22T12:53:44Z</time>
      </trkpt>
      <trkpt lat="49.71478" lon="4.77734">
        <ele>143.51718</ele>
        <time>2021-04-22T12:53:45Z</time>
      </trkpt>
      <trkpt lat="49.71475" lon="4.77735">
        <ele>143.4698</ele>
        <time>2021-04-22T12:53:46Z</time>
      </trkpt>
      <trkpt lat="49.71471" lon="4.77735">
        <ele>143.46452</ele>
        <time>2021-04-22T12:53:47Z</time>
      </trkpt>
      <trkpt lat="49.71468" lon="4.77736">
        <ele>143.58565</ele>
        <time>2021-04-22T12:53:48Z</time>
      </trkpt>
      <trkpt lat="49.71464" lon="4.77737">
        <ele>143.64885</ele>
        <time>2021-04-22T12:53:49Z</time>
      </trkpt>
      <trkpt lat="49.7146" lon="4.77737">
        <ele>143.60146</ele>
        <time>2021-04-22T12:53:50Z</time>
      </trkpt>
      <trkpt lat="49.71456" lon="4.77737">
        <ele>143.54352</ele>
        <time>2021-04-22T12:53:51Z</time>
      </trkpt>
      <trkpt lat="49.71452" lon="4.77738">
        <ele>143.62251</ele>
        <time>2021-04-22T12:53:52Z</time>
      </trkpt>
      <trkpt lat="49.71448" lon="4.77738">
        <ele>143.50667</ele>
        <time>2021-04-22T12:53:53Z</time>
      </trkpt>
      <trkpt lat="49.71445" lon="4.77738">
        <ele>143.47507</ele>
        <time>2021-04-22T12:53:54Z</time>
      </trkpt>
      <trkpt lat="49.71441" lon="4.77739">
        <ele>143.57512</ele>
        <time>2021-04-22T12:53:55Z</time>
      </trkpt>
      <trkpt lat="49.71438" lon="4.77739">
        <ele>143.62251</ele>
        <time>2021-04-22T12:53:56Z</time>
      </trkpt>
      <trkpt lat="49.71435" lon="4.77739">
        <ele>143.62251</ele>
        <time>2021-04-22T12:53:57Z</time>
      </trkpt>
      <trkpt lat="49.71431" lon="4.77739">
        <ele>143.35394</ele>
        <time>2021-04-22T12:53:58Z</time>
      </trkpt>
      <trkpt lat="49.71429" lon="4.7774">
        <ele>143.3276</ele>
        <time>2021-04-22T12:53:59Z</time>
      </trkpt>
      <trkpt lat="49.71426" lon="4.7774">
        <ele>143.34868</ele>
        <time>2021-04-22T12:54:00Z</time>
      </trkpt>
      <trkpt lat="49.71423" lon="4.7774">
        <ele>143.31181</ele>
        <time>2021-04-22T12:54:01Z</time>
      </trkpt>
      <trkpt lat="49.7142" lon="4.7774">
        <ele>143.25388</ele>
        <time>2021-04-22T12:54:02Z</time>
      </trkpt>
      <trkpt lat="49.71417" lon="4.77741">
        <ele>143.33813</ele>
        <time>2021-04-22T12:54:03Z</time>
      </trkpt>
      <trkpt lat="49.71414" lon="4.77741">
        <ele>143.3592</ele>
        <time>2021-04-22T12:54:04Z</time>
      </trkpt>
      <trkpt lat="49.71412" lon="4.77741">
        <ele>143.50139</ele>
        <time>2021-04-22T12:54:05Z</time>
      </trkpt>
      <trkpt lat="49.7141" lon="4.77742">
        <ele>143.44873</ele>
        <time>2021-04-22T12:54:06Z</time>
      </trkpt>
      <trkpt lat="49.71409" lon="4.77741">
        <ele>143.50139</ele>
        <time>2021-04-22T12:54:07Z</time>
      </trkpt>
      <trkpt lat="49.71409" lon="4.77741">
        <ele>143.87003</ele>
        <time>2021-04-22T12:54:08Z</time>
      </trkpt>
      <trkpt lat="49.71409" lon="4.77742">
        <ele>143.52773</ele>
        <time>2021-04-22T12:54:09Z</time>
      </trkpt>
      <trkpt lat="49.71409" lon="4.77742">
        <ele>143.49612</ele>
        <time>2021-04-22T12:54:10Z</time>
      </trkpt>
      <trkpt lat="49.71409" lon="4.77742">
        <ele>143.59619</ele>
        <time>2021-04-22T12:54:11Z</time>
      </trkpt>
      <trkpt lat="49.71409" lon="4.77742">
        <ele>143.59619</ele>
        <time>2021-04-22T12:54:11Z</time>
      </trkpt>
      <trkpt lat="49.71409" lon="4.77742">
        <ele>143.59619</ele>
        <time>2021-04-22T12:54:11Z</time>
      </trkpt>
      <trkpt lat="49.71391" lon="4.77741">
        <ele>143.63306</ele>
        <time>2021-04-22T12:55:35Z</time>
      </trkpt>
      <trkpt lat="49.71389" lon="4.77743">
        <ele>143.94904</ele>
        <time>2021-04-22T12:55:36Z</time>
      </trkpt>
      <trkpt lat="49.71387" lon="4.77744">
        <ele>143.87003</ele>
        <time>2021-04-22T12:55:37Z</time>
      </trkpt>
      <trkpt lat="49.71385" lon="4.77744">
        <ele>143.91217</ele>
        <time>2021-04-22T12:55:38Z</time>
      </trkpt>
      <trkpt lat="49.71383" lon="4.77745">
        <ele>144.13861</ele>
        <time>2021-04-22T12:55:39Z</time>
      </trkpt>
      <trkpt lat="49.71381" lon="4.77746">
        <ele>144.25975</ele>
        <time>2021-04-22T12:55:40Z</time>
      </trkpt>
      <trkpt lat="49.71379" lon="4.77746">
        <ele>144.13335</ele>
        <time>2021-04-22T12:55:41Z</time>
      </trkpt>
      <trkpt lat="49.71377" lon="4.77746">
        <ele>144.57571</ele>
        <time>2021-04-22T12:55:42Z</time>
      </trkpt>
      <trkpt lat="49.71375" lon="4.77746">
        <ele>144.84956</ele>
        <time>2021-04-22T12:55:43Z</time>
      </trkpt>
      <trkpt lat="49.71373" lon="4.77746">
        <ele>144.67052</ele>
        <time>2021-04-22T12:55:44Z</time>
      </trkpt>
      <trkpt lat="49.71371" lon="4.77747">
        <ele>145.00755</ele>
        <time>2021-04-22T12:55:45Z</time>
      </trkpt>
      <trkpt lat="49.71369" lon="4.77747">
        <ele>144.99174</ele>
        <time>2021-04-22T12:55:46Z</time>
      </trkpt>
      <trkpt lat="49.71367" lon="4.77747">
        <ele>145.00755</ele>
        <time>2021-04-22T12:55:47Z</time>
      </trkpt>
      <trkpt lat="49.71365" lon="4.77747">
        <ele>145.17607</ele>
        <time>2021-04-22T12:55:48Z</time>
      </trkpt>
      <trkpt lat="49.71363" lon="4.77746">
        <ele>145.13922</ele>
        <time>2021-04-22T12:55:49Z</time>
      </trkpt>
      <trkpt lat="49.71361" lon="4.77745">
        <ele>145.29721</ele>
        <time>2021-04-22T12:55:50Z</time>
      </trkpt>
      <trkpt lat="49.71359" lon="4.77744">
        <ele>145.1708</ele>
        <time>2021-04-22T12:55:51Z</time>
      </trkpt>
      <trkpt lat="49.71357" lon="4.77744">
        <ele>145.19188</ele>
        <time>2021-04-22T12:55:52Z</time>
      </trkpt>
      <trkpt lat="49.71355" lon="4.77742">
        <ele>145.08128</ele>
        <time>2021-04-22T12:55:53Z</time>
      </trkpt>
      <trkpt lat="49.71352" lon="4.77742">
        <ele>145.34459</ele>
        <time>2021-04-22T12:55:54Z</time>
      </trkpt>
      <trkpt lat="49.71351" lon="4.77741">
        <ele>145.20767</ele>
        <time>2021-04-22T12:55:55Z</time>
      </trkpt>
      <trkpt lat="49.71348" lon="4.7774">
        <ele>144.99174</ele>
        <time>2021-04-22T12:55:56Z</time>
      </trkpt>
      <trkpt lat="49.71346" lon="4.77739">
        <ele>145.23927</ele>
        <time>2021-04-22T12:55:57Z</time>
      </trkpt>
      <trkpt lat="49.71343" lon="4.77738">
        <ele>145.15501</ele>
        <time>2021-04-22T12:55:58Z</time>
      </trkpt>
      <trkpt lat="49.71341" lon="4.77736">
        <ele>145.01808</ele>
        <time>2021-04-22T12:55:59Z</time>
      </trkpt>
      <trkpt lat="49.71338" lon="4.77735">
        <ele>145.03915</ele>
        <time>2021-04-22T12:56:00Z</time>
      </trkpt>
      <trkpt lat="49.71336" lon="4.77735">
        <ele>145.03915</ele>
        <time>2021-04-22T12:56:01Z</time>
      </trkpt>
      <trkpt lat="49.71333" lon="4.77734">
        <ele>145.1866</ele>
        <time>2021-04-22T12:56:02Z</time>
      </trkpt>
      <trkpt lat="49.7133" lon="4.77732">
        <ele>145.11815</ele>
        <time>2021-04-22T12:56:03Z</time>
      </trkpt>
      <trkpt lat="49.71327" lon="4.7773">
        <ele>145.20767</ele>
        <time>2021-04-22T12:56:04Z</time>
      </trkpt>
      <trkpt lat="49.71324" lon="4.77728">
        <ele>145.23401</ele>
        <time>2021-04-22T12:56:05Z</time>
      </trkpt>
      <trkpt lat="49.71322" lon="4.77726">
        <ele>145.12341</ele>
        <time>2021-04-22T12:56:06Z</time>
      </trkpt>
      <trkpt lat="49.71318" lon="4.77724">
        <ele>145.13922</ele>
        <time>2021-04-22T12:56:07Z</time>
      </trkpt>
      <trkpt lat="49.71315" lon="4.77721">
        <ele>145.3288</ele>
        <time>2021-04-22T12:56:08Z</time>
      </trkpt>
      <trkpt lat="49.71312" lon="4.77719">
        <ele>145.26561</ele>
        <time>2021-04-22T12:56:09Z</time>
      </trkpt>
      <trkpt lat="49.71309" lon="4.77717">
        <ele>145.20241</ele>
        <time>2021-04-22T12:56:10Z</time>
      </trkpt>
      <trkpt lat="49.71306" lon="4.77715">
        <ele>145.12341</ele>
        <time>2021-04-22T12:56:11Z</time>
      </trkpt>
      <trkpt lat="49.71303" lon="4.77713">
        <ele>145.08128</ele>
        <time>2021-04-22T12:56:12Z</time>
      </trkpt>
      <trkpt lat="49.713" lon="4.77713">
        <ele>145.21294</ele>
        <time>2021-04-22T12:56:13Z</time>
      </trkpt>
      <trkpt lat="49.71297" lon="4.77711">
        <ele>145.27614</ele>
        <time>2021-04-22T12:56:14Z</time>
      </trkpt>
      <trkpt lat="49.71294" lon="4.77709">
        <ele>145.22874</ele>
        <time>2021-04-22T12:56:15Z</time>
      </trkpt>
      <trkpt lat="49.71292" lon="4.77707">
        <ele>145.13394</ele>
        <time>2021-04-22T12:56:16Z</time>
      </trkpt>
      <trkpt lat="49.71289" lon="4.77706">
        <ele>145.18134</ele>
        <time>2021-04-22T12:56:17Z</time>
      </trkpt>
      <trkpt lat="49.71286" lon="4.77704">
        <ele>145.3288</ele>
        <time>2021-04-22T12:56:18Z</time>
      </trkpt>
      <trkpt lat="49.71283" lon="4.77702">
        <ele>145.19714</ele>
        <time>2021-04-22T12:56:19Z</time>
      </trkpt>
      <trkpt lat="49.7128" lon="4.77702">
        <ele>145.13394</ele>
        <time>2021-04-22T12:56:20Z</time>
      </trkpt>
      <trkpt lat="49.71278" lon="4.77701">
        <ele>145.21294</ele>
        <time>2021-04-22T12:56:21Z</time>
      </trkpt>
      <trkpt lat="49.71275" lon="4.777">
        <ele>145.30772</ele>
        <time>2021-04-22T12:56:22Z</time>
      </trkpt>
      <trkpt lat="49.71272" lon="4.77698">
        <ele>145.3288</ele>
        <time>2021-04-22T12:56:23Z</time>
      </trkpt>
      <trkpt lat="49.71269" lon="4.77697">
        <ele>145.27087</ele>
        <time>2021-04-22T12:56:24Z</time>
      </trkpt>
      <trkpt lat="49.71266" lon="4.77697">
        <ele>145.31827</ele>
        <time>2021-04-22T12:56:25Z</time>
      </trkpt>
      <trkpt lat="49.71262" lon="4.77697">
        <ele>145.32353</ele>
        <time>2021-04-22T12:56:26Z</time>
      </trkpt>
      <trkpt lat="49.71259" lon="4.77697">
        <ele>145.19714</ele>
        <time>2021-04-22T12:56:27Z</time>
      </trkpt>
      <trkpt lat="49.71255" lon="4.77698">
        <ele>145.35513</ele>
        <time>2021-04-22T12:56:28Z</time>
      </trkpt>
      <trkpt lat="49.7125" lon="4.77699">
        <ele>145.2814</ele>
        <time>2021-04-22T12:56:29Z</time>
      </trkpt>
      <trkpt lat="49.71247" lon="4.777">
        <ele>145.44992</ele>
        <time>2021-04-22T12:56:30Z</time>
      </trkpt>
      <trkpt lat="49.71244" lon="4.77701">
        <ele>145.41833</ele>
        <time>2021-04-22T12:56:31Z</time>
      </trkpt>
      <trkpt lat="49.71241" lon="4.77702">
        <ele>145.71324</ele>
        <time>2021-04-22T12:56:32Z</time>
      </trkpt>
      <trkpt lat="49.71238" lon="4.77704">
        <ele>145.95023</ele>
        <time>2021-04-22T12:56:33Z</time>
      </trkpt>
      <trkpt lat="49.71235" lon="4.77705">
        <ele>145.91862</ele>
        <time>2021-04-22T12:56:34Z</time>
      </trkpt>
      <trkpt lat="49.71232" lon="4.77707">
        <ele>145.93442</ele>
        <time>2021-04-22T12:56:35Z</time>
      </trkpt>
      <trkpt lat="49.7123" lon="4.77709">
        <ele>146.203</ele>
        <time>2021-04-22T12:56:36Z</time>
      </trkpt>
      <trkpt lat="49.71227" lon="4.7771">
        <ele>146.35573</ele>
        <time>2021-04-22T12:56:37Z</time>
      </trkpt>
      <trkpt lat="49.71224" lon="4.77711">
        <ele>146.30833</ele>
        <time>2021-04-22T12:56:38Z</time>
      </trkpt>
      <trkpt lat="49.71221" lon="4.77712">
        <ele>146.62958</ele>
        <time>2021-04-22T12:56:39Z</time>
      </trkpt>
      <trkpt lat="49.71218" lon="4.77713">
        <ele>146.70857</ele>
        <time>2021-04-22T12:56:40Z</time>
      </trkpt>
      <trkpt lat="49.71216" lon="4.77715">
        <ele>146.48738</ele>
        <time>2021-04-22T12:56:41Z</time>
      </trkpt>
      <trkpt lat="49.71213" lon="4.77716">
        <ele>146.30307</ele>
        <time>2021-04-22T12:56:42Z</time>
      </trkpt>
      <trkpt lat="49.71211" lon="4.77717">
        <ele>147.172</ele>
        <time>2021-04-22T12:56:43Z</time>
      </trkpt>
      <trkpt lat="49.71208" lon="4.77718">
        <ele>147.02455</ele>
        <time>2021-04-22T12:56:44Z</time>
      </trkpt>
      <trkpt lat="49.71205" lon="4.77719">
        <ele>146.86656</ele>
        <time>2021-04-22T12:56:45Z</time>
      </trkpt>
      <trkpt lat="49.71203" lon="4.7772">
        <ele>146.7981</ele>
        <time>2021-04-22T12:56:46Z</time>
      </trkpt>
      <trkpt lat="49.71199" lon="4.77722">
        <ele>146.78229</ele>
        <time>2021-04-22T12:56:47Z</time>
      </trkpt>
      <trkpt lat="49.71197" lon="4.77723">
        <ele>147.02982</ele>
        <time>2021-04-22T12:56:48Z</time>
      </trkpt>
      <trkpt lat="49.71194" lon="4.77724">
        <ele>146.8613</ele>
        <time>2021-04-22T12:56:49Z</time>
      </trkpt>
      <trkpt lat="49.71191" lon="4.77725">
        <ele>146.78229</ele>
        <time>2021-04-22T12:56:50Z</time>
      </trkpt>
      <trkpt lat="49.71189" lon="4.77726">
        <ele>146.58745</ele>
        <time>2021-04-22T12:56:51Z</time>
      </trkpt>
      <trkpt lat="49.71187" lon="4.77727">
        <ele>146.15561</ele>
        <time>2021-04-22T12:56:52Z</time>
      </trkpt>
      <trkpt lat="49.71184" lon="4.77727">
        <ele>146.35046</ele>
        <time>2021-04-22T12:56:53Z</time>
      </trkpt>
      <trkpt lat="49.71182" lon="4.77728">
        <ele>146.07661</ele>
        <time>2021-04-22T12:56:54Z</time>
      </trkpt>
      <trkpt lat="49.7118" lon="4.77729">
        <ele>145.98709</ele>
        <time>2021-04-22T12:56:55Z</time>
      </trkpt>
      <trkpt lat="49.71177" lon="4.7773">
        <ele>145.77643</ele>
        <time>2021-04-22T12:56:56Z</time>
      </trkpt>
      <trkpt lat="49.71175" lon="4.77732">
        <ele>145.81856</ele>
        <time>2021-04-22T12:56:57Z</time>
      </trkpt>
      <trkpt lat="49.71172" lon="4.77734">
        <ele>145.60265</ele>
        <time>2021-04-22T12:56:58Z</time>
      </trkpt>
      <trkpt lat="49.71169" lon="4.77735">
        <ele>145.53944</ele>
        <time>2021-04-22T12:56:59Z</time>
      </trkpt>
      <trkpt lat="49.71166" lon="4.77736">
        <ele>145.49205</ele>
        <time>2021-04-22T12:57:00Z</time>
      </trkpt>
      <trkpt lat="49.71164" lon="4.77738">
        <ele>145.50786</ele>
        <time>2021-04-22T12:57:01Z</time>
      </trkpt>
      <trkpt lat="49.71161" lon="4.77741">
        <ele>145.58159</ele>
        <time>2021-04-22T12:57:02Z</time>
      </trkpt>
      <trkpt lat="49.71158" lon="4.77742">
        <ele>145.48152</ele>
        <time>2021-04-22T12:57:03Z</time>
      </trkpt>
      <trkpt lat="49.71155" lon="4.77743">
        <ele>145.57104</ele>
        <time>2021-04-22T12:57:04Z</time>
      </trkpt>
      <trkpt lat="49.71152" lon="4.77744">
        <ele>145.56578</ele>
        <time>2021-04-22T12:57:05Z</time>
      </trkpt>
      <trkpt lat="49.71149" lon="4.77745">
        <ele>145.38145</ele>
        <time>2021-04-22T12:57:06Z</time>
      </trkpt>
      <trkpt lat="49.71147" lon="4.77747">
        <ele>145.53944</ele>
        <time>2021-04-22T12:57:07Z</time>
      </trkpt>
      <trkpt lat="49.71144" lon="4.77748">
        <ele>145.36566</ele>
        <time>2021-04-22T12:57:08Z</time>
      </trkpt>
      <trkpt lat="49.71142" lon="4.7775">
        <ele>145.29721</ele>
        <time>2021-04-22T12:57:09Z</time>
      </trkpt>
      <trkpt lat="49.7114" lon="4.7775">
        <ele>145.35513</ele>
        <time>2021-04-22T12:57:10Z</time>
      </trkpt>
      <trkpt lat="49.71138" lon="4.77751">
        <ele>145.23927</ele>
        <time>2021-04-22T12:57:11Z</time>
      </trkpt>
      <trkpt lat="49.71137" lon="4.77751">
        <ele>145.17607</ele>
        <time>2021-04-22T12:57:12Z</time>
      </trkpt>
      <trkpt lat="49.71135" lon="4.7775">
        <ele>144.97595</ele>
        <time>2021-04-22T12:57:13Z</time>
      </trkpt>
      <trkpt lat="49.71133" lon="4.7775">
        <ele>144.86536</ele>
        <time>2021-04-22T12:57:14Z</time>
      </trkpt>
      <trkpt lat="49.71132" lon="4.7775">
        <ele>145.15501</ele>
        <time>2021-04-22T12:57:15Z</time>
      </trkpt>
      <trkpt lat="49.71132" lon="4.77751">
        <ele>145.10762</ele>
        <time>2021-04-22T12:57:16Z</time>
      </trkpt>
      <trkpt lat="49.71131" lon="4.7775">
        <ele>145.12868</ele>
        <time>2021-04-22T12:57:17Z</time>
      </trkpt>
      <trkpt lat="49.71132" lon="4.7775">
        <ele>144.94963</ele>
        <time>2021-04-22T12:57:18Z</time>
      </trkpt>
      <trkpt lat="49.71132" lon="4.77751">
        <ele>144.92856</ele>
        <time>2021-04-22T12:57:19Z</time>
      </trkpt>
      <trkpt lat="49.71132" lon="4.77751">
        <ele>144.92856</ele>
        <time>2021-04-22T12:57:19Z</time>
      </trkpt>
      <trkpt lat="49.71132" lon="4.77751">
        <ele>144.92856</ele>
        <time>2021-04-22T12:57:19Z</time>
      </trkpt>
      <trkpt lat="49.71105" lon="4.7777">
        <ele>145.34987</ele>
        <time>2021-04-22T12:57:57Z</time>
      </trkpt>
      <trkpt lat="49.71103" lon="4.77771">
        <ele>145.33932</ele>
        <time>2021-04-22T12:57:58Z</time>
      </trkpt>
      <trkpt lat="49.711" lon="4.77773">
        <ele>145.26561</ele>
        <time>2021-04-22T12:57:59Z</time>
      </trkpt>
      <trkpt lat="49.71098" lon="4.77774">
        <ele>145.23401</ele>
        <time>2021-04-22T12:58:00Z</time>
      </trkpt>
      <trkpt lat="49.71095" lon="4.77776">
        <ele>145.22346</ele>
        <time>2021-04-22T12:58:01Z</time>
      </trkpt>
      <trkpt lat="49.71092" lon="4.77778">
        <ele>145.42886</ele>
        <time>2021-04-22T12:58:02Z</time>
      </trkpt>
      <trkpt lat="49.7109" lon="4.7778">
        <ele>145.49731</ele>
        <time>2021-04-22T12:58:03Z</time>
      </trkpt>
      <trkpt lat="49.71087" lon="4.77782">
        <ele>145.7817</ele>
        <time>2021-04-22T12:58:04Z</time>
      </trkpt>
      <trkpt lat="49.71084" lon="4.77783">
        <ele>146.04501</ele>
        <time>2021-04-22T12:58:05Z</time>
      </trkpt>
      <trkpt lat="49.71082" lon="4.77785">
        <ele>145.59738</ele>
        <time>2021-04-22T12:58:06Z</time>
      </trkpt>
      <trkpt lat="49.71079" lon="4.77786">
        <ele>145.70271</ele>
        <time>2021-04-22T12:58:07Z</time>
      </trkpt>
      <trkpt lat="49.71077" lon="4.77787">
        <ele>145.55525</ele>
        <time>2021-04-22T12:58:08Z</time>
      </trkpt>
      <trkpt lat="49.71074" lon="4.77787">
        <ele>145.34459</ele>
        <time>2021-04-22T12:58:09Z</time>
      </trkpt>
      <trkpt lat="49.71071" lon="4.77789">
        <ele>145.471</ele>
        <time>2021-04-22T12:58:10Z</time>
      </trkpt>
      <trkpt lat="49.71069" lon="4.77791">
        <ele>145.56052</ele>
        <time>2021-04-22T12:58:11Z</time>
      </trkpt>
      <trkpt lat="49.71066" lon="4.77792">
        <ele>145.34459</ele>
        <time>2021-04-22T12:58:12Z</time>
      </trkpt>
      <trkpt lat="49.71064" lon="4.77794">
        <ele>145.57632</ele>
        <time>2021-04-22T12:58:13Z</time>
      </trkpt>
      <trkpt lat="49.71061" lon="4.77795">
        <ele>145.75009</ele>
        <time>2021-04-22T12:58:14Z</time>
      </trkpt>
      <trkpt lat="49.71058" lon="4.77797">
        <ele>145.79224</ele>
        <time>2021-04-22T12:58:15Z</time>
      </trkpt>
      <trkpt lat="49.71056" lon="4.77798">
        <ele>145.6237</ele>
        <time>2021-04-22T12:58:16Z</time>
      </trkpt>
      <trkpt lat="49.71053" lon="4.77799">
        <ele>145.60791</ele>
        <time>2021-04-22T12:58:17Z</time>
      </trkpt>
      <trkpt lat="49.7105" lon="4.77801">
        <ele>145.5921</ele>
        <time>2021-04-22T12:58:18Z</time>
      </trkpt>
      <trkpt lat="49.71047" lon="4.77802">
        <ele>145.32353</ele>
        <time>2021-04-22T12:58:19Z</time>
      </trkpt>
      <trkpt lat="49.71044" lon="4.77803">
        <ele>145.49731</ele>
        <time>2021-04-22T12:58:20Z</time>
      </trkpt>
      <trkpt lat="49.71041" lon="4.77804">
        <ele>145.49731</ele>
        <time>2021-04-22T12:58:21Z</time>
      </trkpt>
      <trkpt lat="49.71038" lon="4.77806">
        <ele>145.46045</ele>
        <time>2021-04-22T12:58:22Z</time>
      </trkpt>
      <trkpt lat="49.71035" lon="4.77806">
        <ele>145.60791</ele>
        <time>2021-04-22T12:58:23Z</time>
      </trkpt>
      <trkpt lat="49.71032" lon="4.77808">
        <ele>145.6869</ele>
        <time>2021-04-22T12:58:24Z</time>
      </trkpt>
      <trkpt lat="49.71029" lon="4.77809">
        <ele>145.88176</ele>
        <time>2021-04-22T12:58:25Z</time>
      </trkpt>
      <trkpt lat="49.71027" lon="4.77811">
        <ele>145.70271</ele>
        <time>2021-04-22T12:58:26Z</time>
      </trkpt>
      <trkpt lat="49.71023" lon="4.77812">
        <ele>145.77116</ele>
        <time>2021-04-22T12:58:27Z</time>
      </trkpt>
      <trkpt lat="49.71019" lon="4.77814">
        <ele>145.92389</ele>
        <time>2021-04-22T12:58:28Z</time>
      </trkpt>
      <trkpt lat="49.71016" lon="4.77815">
        <ele>145.75009</ele>
        <time>2021-04-22T12:58:29Z</time>
      </trkpt>
      <trkpt lat="49.71013" lon="4.77817">
        <ele>145.65004</ele>
        <time>2021-04-22T12:58:30Z</time>
      </trkpt>
      <trkpt lat="49.7101" lon="4.7782">
        <ele>145.49731</ele>
        <time>2021-04-22T12:58:31Z</time>
      </trkpt>
      <trkpt lat="49.71007" lon="4.77821">
        <ele>145.46045</ele>
        <time>2021-04-22T12:58:32Z</time>
      </trkpt>
      <trkpt lat="49.71004" lon="4.77823">
        <ele>145.47626</ele>
        <time>2021-04-22T12:58:33Z</time>
      </trkpt>
      <trkpt lat="49.71001" lon="4.77824">
        <ele>145.471</ele>
        <time>2021-04-22T12:58:34Z</time>
      </trkpt>
      <trkpt lat="49.70998" lon="4.77824">
        <ele>145.44992</ele>
        <time>2021-04-22T12:58:35Z</time>
      </trkpt>
      <trkpt lat="49.70996" lon="4.77826">
        <ele>145.3604</ele>
        <time>2021-04-22T12:58:36Z</time>
      </trkpt>
      <trkpt lat="49.70993" lon="4.77827">
        <ele>145.6237</ele>
        <time>2021-04-22T12:58:37Z</time>
      </trkpt>
      <trkpt lat="49.7099" lon="4.77829">
        <ele>145.48152</ele>
        <time>2021-04-22T12:58:38Z</time>
      </trkpt>
      <trkpt lat="49.70988" lon="4.77831">
        <ele>145.313</ele>
        <time>2021-04-22T12:58:39Z</time>
      </trkpt>
      <trkpt lat="49.70985" lon="4.77832">
        <ele>145.57104</ele>
        <time>2021-04-22T12:58:40Z</time>
      </trkpt>
      <trkpt lat="49.70982" lon="4.77833">
        <ele>145.63425</ele>
        <time>2021-04-22T12:58:41Z</time>
      </trkpt>
      <trkpt lat="49.70979" lon="4.77833">
        <ele>145.73958</ele>
        <time>2021-04-22T12:58:42Z</time>
      </trkpt>
      <trkpt lat="49.70977" lon="4.77835">
        <ele>145.8291</ele>
        <time>2021-04-22T12:58:43Z</time>
      </trkpt>
      <trkpt lat="49.70974" lon="4.77836">
        <ele>145.67111</ele>
        <time>2021-04-22T12:58:44Z</time>
      </trkpt>
      <trkpt lat="49.70972" lon="4.77838">
        <ele>145.8133</ele>
        <time>2021-04-22T12:58:45Z</time>
      </trkpt>
      <trkpt lat="49.7097" lon="4.7784">
        <ele>145.76064</ele>
        <time>2021-04-22T12:58:46Z</time>
      </trkpt>
      <trkpt lat="49.70968" lon="4.77841">
        <ele>145.7659</ele>
        <time>2021-04-22T12:58:47Z</time>
      </trkpt>
      <trkpt lat="49.70966" lon="4.77842">
        <ele>145.98709</ele>
        <time>2021-04-22T12:58:48Z</time>
      </trkpt>
      <trkpt lat="49.70963" lon="4.77844">
        <ele>146.00288</ele>
        <time>2021-04-22T12:58:49Z</time>
      </trkpt>
      <trkpt lat="49.70961" lon="4.77845">
        <ele>145.75009</ele>
        <time>2021-04-22T12:58:50Z</time>
      </trkpt>
      <trkpt lat="49.70959" lon="4.77846">
        <ele>145.80803</ele>
        <time>2021-04-22T12:58:51Z</time>
      </trkpt>
      <trkpt lat="49.70956" lon="4.77848">
        <ele>145.6869</ele>
        <time>2021-04-22T12:58:52Z</time>
      </trkpt>
      <trkpt lat="49.70953" lon="4.77849">
        <ele>145.88176</ele>
        <time>2021-04-22T12:58:53Z</time>
      </trkpt>
      <trkpt lat="49.7095" lon="4.7785">
        <ele>145.90282</ele>
        <time>2021-04-22T12:58:54Z</time>
      </trkpt>
      <trkpt lat="49.70948" lon="4.77852">
        <ele>145.8449</ele>
        <time>2021-04-22T12:58:55Z</time>
      </trkpt>
      <trkpt lat="49.70946" lon="4.77853">
        <ele>145.97655</ele>
        <time>2021-04-22T12:58:56Z</time>
      </trkpt>
      <trkpt lat="49.70943" lon="4.77854">
        <ele>145.99236</ele>
        <time>2021-04-22T12:58:57Z</time>
      </trkpt>
      <trkpt lat="49.7094" lon="4.77855">
        <ele>145.76064</ele>
        <time>2021-04-22T12:58:58Z</time>
      </trkpt>
      <trkpt lat="49.70938" lon="4.77857">
        <ele>145.8449</ele>
        <time>2021-04-22T12:58:59Z</time>
      </trkpt>
      <trkpt lat="49.70935" lon="4.77859">
        <ele>145.98183</ele>
        <time>2021-04-22T12:59:00Z</time>
      </trkpt>
      <trkpt lat="49.70932" lon="4.7786">
        <ele>145.67638</ele>
        <time>2021-04-22T12:59:01Z</time>
      </trkpt>
      <trkpt lat="49.7093" lon="4.77862">
        <ele>145.58159</ele>
        <time>2021-04-22T12:59:02Z</time>
      </trkpt>
      <trkpt lat="49.70927" lon="4.77863">
        <ele>145.61317</ele>
        <time>2021-04-22T12:59:03Z</time>
      </trkpt>
      <trkpt lat="49.70924" lon="4.77865">
        <ele>145.54999</ele>
        <time>2021-04-22T12:59:04Z</time>
      </trkpt>
      <trkpt lat="49.70922" lon="4.77865">
        <ele>145.74483</ele>
        <time>2021-04-22T12:59:05Z</time>
      </trkpt>
      <trkpt lat="49.70919" lon="4.77866">
        <ele>145.53418</ele>
        <time>2021-04-22T12:59:06Z</time>
      </trkpt>
      <trkpt lat="49.70917" lon="4.77866">
        <ele>145.79224</ele>
        <time>2021-04-22T12:59:07Z</time>
      </trkpt>
      <trkpt lat="49.70915" lon="4.77867">
        <ele>145.87123</ele>
        <time>2021-04-22T12:59:08Z</time>
      </trkpt>
      <trkpt lat="49.70912" lon="4.77867">
        <ele>145.90808</ele>
        <time>2021-04-22T12:59:09Z</time>
      </trkpt>
      <trkpt lat="49.70909" lon="4.77868">
        <ele>145.56578</ele>
        <time>2021-04-22T12:59:10Z</time>
      </trkpt>
      <trkpt lat="49.70906" lon="4.77869">
        <ele>145.69743</ele>
        <time>2021-04-22T12:59:11Z</time>
      </trkpt>
      <trkpt lat="49.70903" lon="4.7787">
        <ele>145.6553</ele>
        <time>2021-04-22T12:59:12Z</time>
      </trkpt>
      <trkpt lat="49.709" lon="4.77871">
        <ele>145.66057</ele>
        <time>2021-04-22T12:59:13Z</time>
      </trkpt>
      <trkpt lat="49.70897" lon="4.77872">
        <ele>145.67638</ele>
        <time>2021-04-22T12:59:14Z</time>
      </trkpt>
      <trkpt lat="49.70895" lon="4.77873">
        <ele>145.71324</ele>
        <time>2021-04-22T12:59:15Z</time>
      </trkpt>
      <trkpt lat="49.70891" lon="4.77873">
        <ele>145.66057</ele>
        <time>2021-04-22T12:59:16Z</time>
      </trkpt>
      <trkpt lat="49.70889" lon="4.77875">
        <ele>145.72903</ele>
        <time>2021-04-22T12:59:17Z</time>
      </trkpt>
      <trkpt lat="49.70886" lon="4.77876">
        <ele>145.70798</ele>
        <time>2021-04-22T12:59:18Z</time>
      </trkpt>
      <trkpt lat="49.70882" lon="4.77877">
        <ele>145.93442</ele>
        <time>2021-04-22T12:59:19Z</time>
      </trkpt>
      <trkpt lat="49.7088" lon="4.77878">
        <ele>145.8765</ele>
        <time>2021-04-22T12:59:20Z</time>
      </trkpt>
      <trkpt lat="49.70878" lon="4.77878">
        <ele>145.77116</ele>
        <time>2021-04-22T12:59:21Z</time>
      </trkpt>
      <trkpt lat="49.70876" lon="4.77877">
        <ele>145.54999</ele>
        <time>2021-04-22T12:59:22Z</time>
      </trkpt>
      <trkpt lat="49.70874" lon="4.77877">
        <ele>145.6869</ele>
        <time>2021-04-22T12:59:23Z</time>
      </trkpt>
      <trkpt lat="49.70871" lon="4.77878">
        <ele>145.75537</ele>
        <time>2021-04-22T12:59:24Z</time>
      </trkpt>
      <trkpt lat="49.70868" lon="4.77879">
        <ele>145.77643</ele>
        <time>2021-04-22T12:59:25Z</time>
      </trkpt>
      <trkpt lat="49.70866" lon="4.77881">
        <ele>145.7817</ele>
        <time>2021-04-22T12:59:26Z</time>
      </trkpt>
      <trkpt lat="49.70863" lon="4.77883">
        <ele>145.89755</ele>
        <time>2021-04-22T12:59:27Z</time>
      </trkpt>
      <trkpt lat="49.70859" lon="4.77885">
        <ele>145.86597</ele>
        <time>2021-04-22T12:59:28Z</time>
      </trkpt>
      <trkpt lat="49.70857" lon="4.77886">
        <ele>145.95549</ele>
        <time>2021-04-22T12:59:29Z</time>
      </trkpt>
      <trkpt lat="49.70854" lon="4.77888">
        <ele>145.99236</ele>
        <time>2021-04-22T12:59:30Z</time>
      </trkpt>
      <trkpt lat="49.70851" lon="4.77889">
        <ele>145.93968</ele>
        <time>2021-04-22T12:59:31Z</time>
      </trkpt>
      <trkpt lat="49.70849" lon="4.7789">
        <ele>146.19247</ele>
        <time>2021-04-22T12:59:32Z</time>
      </trkpt>
      <trkpt lat="49.70846" lon="4.77892">
        <ele>146.33992</ele>
        <time>2021-04-22T12:59:33Z</time>
      </trkpt>
      <trkpt lat="49.70844" lon="4.77894">
        <ele>146.2188</ele>
        <time>2021-04-22T12:59:34Z</time>
      </trkpt>
      <trkpt lat="49.70841" lon="4.77896">
        <ele>145.99762</ele>
        <time>2021-04-22T12:59:35Z</time>
      </trkpt>
      <trkpt lat="49.70838" lon="4.77896">
        <ele>145.95023</ele>
        <time>2021-04-22T12:59:36Z</time>
      </trkpt>
      <trkpt lat="49.70835" lon="4.77897">
        <ele>146.03448</ele>
        <time>2021-04-22T12:59:37Z</time>
      </trkpt>
      <trkpt lat="49.70832" lon="4.77898">
        <ele>146.02396</ele>
        <time>2021-04-22T12:59:38Z</time>
      </trkpt>
      <trkpt lat="49.70829" lon="4.77898">
        <ele>146.00288</ele>
        <time>2021-04-22T12:59:39Z</time>
      </trkpt>
      <trkpt lat="49.70826" lon="4.77899">
        <ele>145.99236</ele>
        <time>2021-04-22T12:59:40Z</time>
      </trkpt>
      <trkpt lat="49.70823" lon="4.779">
        <ele>146.04501</ele>
        <time>2021-04-22T12:59:41Z</time>
      </trkpt>
      <trkpt lat="49.70821" lon="4.779">
        <ele>146.14508</ele>
        <time>2021-04-22T12:59:42Z</time>
      </trkpt>
      <trkpt lat="49.70818" lon="4.77901">
        <ele>146.18193</ele>
        <time>2021-04-22T12:59:43Z</time>
      </trkpt>
      <trkpt lat="49.70816" lon="4.77901">
        <ele>146.11874</ele>
        <time>2021-04-22T12:59:44Z</time>
      </trkpt>
      <trkpt lat="49.70814" lon="4.77901">
        <ele>145.91862</ele>
        <time>2021-04-22T12:59:45Z</time>
      </trkpt>
      <trkpt lat="49.70812" lon="4.77901">
        <ele>146.2346</ele>
        <time>2021-04-22T12:59:46Z</time>
      </trkpt>
      <trkpt lat="49.7081" lon="4.77901">
        <ele>146.0924</ele>
        <time>2021-04-22T12:59:47Z</time>
      </trkpt>
      <trkpt lat="49.70807" lon="4.77902">
        <ele>146.07661</ele>
        <time>2021-04-22T12:59:48Z</time>
      </trkpt>
      <trkpt lat="49.70804" lon="4.77903">
        <ele>146.03448</ele>
        <time>2021-04-22T12:59:49Z</time>
      </trkpt>
      <trkpt lat="49.70801" lon="4.77903">
        <ele>146.11874</ele>
        <time>2021-04-22T12:59:50Z</time>
      </trkpt>
      <trkpt lat="49.70799" lon="4.77904">
        <ele>145.99236</ele>
        <time>2021-04-22T12:59:51Z</time>
      </trkpt>
      <trkpt lat="49.70797" lon="4.77904">
        <ele>146.05028</ele>
        <time>2021-04-22T12:59:52Z</time>
      </trkpt>
      <trkpt lat="49.70794" lon="4.77904">
        <ele>145.96602</ele>
        <time>2021-04-22T12:59:53Z</time>
      </trkpt>
      <trkpt lat="49.70791" lon="4.77905">
        <ele>146.17668</ele>
        <time>2021-04-22T12:59:54Z</time>
      </trkpt>
      <trkpt lat="49.70789" lon="4.77906">
        <ele>146.19247</ele>
        <time>2021-04-22T12:59:55Z</time>
      </trkpt>
      <trkpt lat="49.70786" lon="4.77907">
        <ele>146.19774</ele>
        <time>2021-04-22T12:59:56Z</time>
      </trkpt>
      <trkpt lat="49.70783" lon="4.77908">
        <ele>146.19247</ele>
        <time>2021-04-22T12:59:57Z</time>
      </trkpt>
      <trkpt lat="49.70781" lon="4.77909">
        <ele>146.2504</ele>
        <time>2021-04-22T12:59:58Z</time>
      </trkpt>
      <trkpt lat="49.70778" lon="4.77909">
        <ele>146.23987</ele>
        <time>2021-04-22T12:59:59Z</time>
      </trkpt>
      <trkpt lat="49.70775" lon="4.7791">
        <ele>145.96075</ele>
        <time>2021-04-22T13:00:00Z</time>
      </trkpt>
      <trkpt lat="49.70772" lon="4.7791">
        <ele>146.0608</ele>
        <time>2021-04-22T13:00:01Z</time>
      </trkpt>
      <trkpt lat="49.7077" lon="4.77912">
        <ele>146.3136</ele>
        <time>2021-04-22T13:00:02Z</time>
      </trkpt>
      <trkpt lat="49.70767" lon="4.77913">
        <ele>145.89755</ele>
        <time>2021-04-22T13:00:03Z</time>
      </trkpt>
      <trkpt lat="49.70765" lon="4.77914">
        <ele>146.04501</ele>
        <time>2021-04-22T13:00:04Z</time>
      </trkpt>
      <trkpt lat="49.70762" lon="4.77915">
        <ele>146.13982</ele>
        <time>2021-04-22T13:00:05Z</time>
      </trkpt>
      <trkpt lat="49.7076" lon="4.77917">
        <ele>145.96602</ele>
        <time>2021-04-22T13:00:06Z</time>
      </trkpt>
      <trkpt lat="49.70757" lon="4.77919">
        <ele>146.01341</ele>
        <time>2021-04-22T13:00:07Z</time>
      </trkpt>
      <trkpt lat="49.70754" lon="4.77921">
        <ele>146.27147</ele>
        <time>2021-04-22T13:00:08Z</time>
      </trkpt>
      <trkpt lat="49.70751" lon="4.77923">
        <ele>146.09767</ele>
        <time>2021-04-22T13:00:09Z</time>
      </trkpt>
      <trkpt lat="49.70748" lon="4.77924">
        <ele>145.98183</ele>
        <time>2021-04-22T13:00:10Z</time>
      </trkpt>
      <trkpt lat="49.70745" lon="4.77925">
        <ele>145.85542</ele>
        <time>2021-04-22T13:00:11Z</time>
      </trkpt>
      <trkpt lat="49.70742" lon="4.77926">
        <ele>145.8449</ele>
        <time>2021-04-22T13:00:12Z</time>
      </trkpt>
      <trkpt lat="49.7074" lon="4.77927">
        <ele>145.94496</ele>
        <time>2021-04-22T13:00:13Z</time>
      </trkpt>
      <trkpt lat="49.70737" lon="4.77928">
        <ele>145.7975</ele>
        <time>2021-04-22T13:00:14Z</time>
      </trkpt>
      <trkpt lat="49.70734" lon="4.7793">
        <ele>145.82384</ele>
        <time>2021-04-22T13:00:15Z</time>
      </trkpt>
      <trkpt lat="49.70732" lon="4.77931">
        <ele>145.73431</ele>
        <time>2021-04-22T13:00:16Z</time>
      </trkpt>
      <trkpt lat="49.70729" lon="4.77933">
        <ele>145.75009</ele>
        <time>2021-04-22T13:00:17Z</time>
      </trkpt>
      <trkpt lat="49.70726" lon="4.77934">
        <ele>145.63425</ele>
        <time>2021-04-22T13:00:18Z</time>
      </trkpt>
      <trkpt lat="49.70723" lon="4.77935">
        <ele>145.45518</ele>
        <time>2021-04-22T13:00:19Z</time>
      </trkpt>
      <trkpt lat="49.7072" lon="4.77937">
        <ele>145.66585</ele>
        <time>2021-04-22T13:00:20Z</time>
      </trkpt>
      <trkpt lat="49.70718" lon="4.77939">
        <ele>145.52892</ele>
        <time>2021-04-22T13:00:21Z</time>
      </trkpt>
      <trkpt lat="49.70715" lon="4.7794">
        <ele>145.54999</ele>
        <time>2021-04-22T13:00:22Z</time>
      </trkpt>
      <trkpt lat="49.70712" lon="4.77941">
        <ele>145.79224</ele>
        <time>2021-04-22T13:00:23Z</time>
      </trkpt>
      <trkpt lat="49.70709" lon="4.77943">
        <ele>145.47626</ele>
        <time>2021-04-22T13:00:24Z</time>
      </trkpt>
      <trkpt lat="49.70707" lon="4.77945">
        <ele>145.42886</ele>
        <time>2021-04-22T13:00:25Z</time>
      </trkpt>
      <trkpt lat="49.70704" lon="4.77947">
        <ele>145.53944</ele>
        <time>2021-04-22T13:00:26Z</time>
      </trkpt>
      <trkpt lat="49.70702" lon="4.77949">
        <ele>145.45518</ele>
        <time>2021-04-22T13:00:27Z</time>
      </trkpt>
      <trkpt lat="49.70699" lon="4.77951">
        <ele>145.58684</ele>
        <time>2021-04-22T13:00:28Z</time>
      </trkpt>
      <trkpt lat="49.70697" lon="4.77953">
        <ele>145.60791</ele>
        <time>2021-04-22T13:00:29Z</time>
      </trkpt>
      <trkpt lat="49.70694" lon="4.77955">
        <ele>145.43411</ele>
        <time>2021-04-22T13:00:30Z</time>
      </trkpt>
      <trkpt lat="49.70691" lon="4.77958">
        <ele>145.60791</ele>
        <time>2021-04-22T13:00:31Z</time>
      </trkpt>
      <trkpt lat="49.70689" lon="4.7796">
        <ele>145.72903</ele>
        <time>2021-04-22T13:00:32Z</time>
      </trkpt>
      <trkpt lat="49.70686" lon="4.77963">
        <ele>145.72377</ele>
        <time>2021-04-22T13:00:33Z</time>
      </trkpt>
      <trkpt lat="49.70684" lon="4.77965">
        <ele>145.80276</ele>
        <time>2021-04-22T13:00:34Z</time>
      </trkpt>
      <trkpt lat="49.70681" lon="4.77967">
        <ele>145.80276</ele>
        <time>2021-04-22T13:00:35Z</time>
      </trkpt>
      <trkpt lat="49.70679" lon="4.7797">
        <ele>145.8607</ele>
        <time>2021-04-22T13:00:36Z</time>
      </trkpt>
      <trkpt lat="49.70676" lon="4.77973">
        <ele>145.88176</ele>
        <time>2021-04-22T13:00:37Z</time>
      </trkpt>
      <trkpt lat="49.70675" lon="4.77975">
        <ele>145.93968</ele>
        <time>2021-04-22T13:00:38Z</time>
      </trkpt>
      <trkpt lat="49.70672" lon="4.77978">
        <ele>146.00288</ele>
        <time>2021-04-22T13:00:39Z</time>
      </trkpt>
      <trkpt lat="49.7067" lon="4.77981">
        <ele>146.0292</ele>
        <time>2021-04-22T13:00:40Z</time>
      </trkpt>
      <trkpt lat="49.70668" lon="4.77985">
        <ele>145.81856</ele>
        <time>2021-04-22T13:00:41Z</time>
      </trkpt>
      <trkpt lat="49.70665" lon="4.77988">
        <ele>146.04501</ele>
        <time>2021-04-22T13:00:42Z</time>
      </trkpt>
      <trkpt lat="49.70663" lon="4.77992">
        <ele>146.0292</ele>
        <time>2021-04-22T13:00:43Z</time>
      </trkpt>
      <trkpt lat="49.7066" lon="4.77996">
        <ele>145.97655</ele>
        <time>2021-04-22T13:00:44Z</time>
      </trkpt>
      <trkpt lat="49.70657" lon="4.77998">
        <ele>145.95549</ele>
        <time>2021-04-22T13:00:45Z</time>
      </trkpt>
      <trkpt lat="49.70655" lon="4.78001">
        <ele>146.24513</ele>
        <time>2021-04-22T13:00:46Z</time>
      </trkpt>
      <trkpt lat="49.70653" lon="4.78005">
        <ele>146.30307</ele>
        <time>2021-04-22T13:00:47Z</time>
      </trkpt>
      <trkpt lat="49.70651" lon="4.78008">
        <ele>146.19247</ele>
        <time>2021-04-22T13:00:48Z</time>
      </trkpt>
      <trkpt lat="49.70649" lon="4.78011">
        <ele>146.0924</ele>
        <time>2021-04-22T13:00:49Z</time>
      </trkpt>
      <trkpt lat="49.70647" lon="4.78014">
        <ele>146.32939</ele>
        <time>2021-04-22T13:00:50Z</time>
      </trkpt>
      <trkpt lat="49.70644" lon="4.78018">
        <ele>146.1872</ele>
        <time>2021-04-22T13:00:51Z</time>
      </trkpt>
      <trkpt lat="49.70642" lon="4.78021">
        <ele>146.17668</ele>
        <time>2021-04-22T13:00:52Z</time>
      </trkpt>
      <trkpt lat="49.7064" lon="4.78024">
        <ele>146.25566</ele>
        <time>2021-04-22T13:00:53Z</time>
      </trkpt>
      <trkpt lat="49.70638" lon="4.78028">
        <ele>146.39786</ele>
        <time>2021-04-22T13:00:54Z</time>
      </trkpt>
      <trkpt lat="49.70636" lon="4.78031">
        <ele>146.32939</ele>
        <time>2021-04-22T13:00:55Z</time>
      </trkpt>
      <trkpt lat="49.70633" lon="4.78034">
        <ele>146.34518</ele>
        <time>2021-04-22T13:00:56Z</time>
      </trkpt>
      <trkpt lat="49.70631" lon="4.78037">
        <ele>146.64537</ele>
        <time>2021-04-22T13:00:57Z</time>
      </trkpt>
      <trkpt lat="49.70628" lon="4.7804">
        <ele>146.92976</ele>
        <time>2021-04-22T13:00:58Z</time>
      </trkpt>
      <trkpt lat="49.70626" lon="4.78042">
        <ele>146.61378</ele>
        <time>2021-04-22T13:00:59Z</time>
      </trkpt>
      <trkpt lat="49.70625" lon="4.78046">
        <ele>146.68224</ele>
        <time>2021-04-22T13:01:00Z</time>
      </trkpt>
      <trkpt lat="49.70623" lon="4.78048">
        <ele>146.80336</ele>
        <time>2021-04-22T13:01:01Z</time>
      </trkpt>
      <trkpt lat="49.70621" lon="4.78052">
        <ele>146.78229</ele>
        <time>2021-04-22T13:01:02Z</time>
      </trkpt>
      <trkpt lat="49.70619" lon="4.78056">
        <ele>146.58745</ele>
        <time>2021-04-22T13:01:03Z</time>
      </trkpt>
      <trkpt lat="49.70616" lon="4.78059">
        <ele>146.68224</ele>
        <time>2021-04-22T13:01:04Z</time>
      </trkpt>
      <trkpt lat="49.70614" lon="4.78062">
        <ele>146.79283</ele>
        <time>2021-04-22T13:01:05Z</time>
      </trkpt>
      <trkpt lat="49.70612" lon="4.78064">
        <ele>146.83496</ele>
        <time>2021-04-22T13:01:06Z</time>
      </trkpt>
      <trkpt lat="49.70609" lon="4.78067">
        <ele>146.69276</ele>
        <time>2021-04-22T13:01:07Z</time>
      </trkpt>
      <trkpt lat="49.70607" lon="4.7807">
        <ele>146.7507</ele>
        <time>2021-04-22T13:01:08Z</time>
      </trkpt>
      <trkpt lat="49.70605" lon="4.78073">
        <ele>146.72963</ele>
        <time>2021-04-22T13:01:09Z</time>
      </trkpt>
      <trkpt lat="49.70602" lon="4.78077">
        <ele>146.72963</ele>
        <time>2021-04-22T13:01:10Z</time>
      </trkpt>
      <trkpt lat="49.70601" lon="4.7808">
        <ele>146.7191</ele>
        <time>2021-04-22T13:01:11Z</time>
      </trkpt>
      <trkpt lat="49.70598" lon="4.78083">
        <ele>146.81915</ele>
        <time>2021-04-22T13:01:12Z</time>
      </trkpt>
      <trkpt lat="49.70596" lon="4.78086">
        <ele>146.8613</ele>
        <time>2021-04-22T13:01:13Z</time>
      </trkpt>
      <trkpt lat="49.70594" lon="4.78089">
        <ele>147.014</ele>
        <time>2021-04-22T13:01:14Z</time>
      </trkpt>
      <trkpt lat="49.70591" lon="4.78093">
        <ele>147.13513</ele>
        <time>2021-04-22T13:01:15Z</time>
      </trkpt>
      <trkpt lat="49.70589" lon="4.78096">
        <ele>146.75597</ele>
        <time>2021-04-22T13:01:16Z</time>
      </trkpt>
      <trkpt lat="49.70586" lon="4.781">
        <ele>146.80862</ele>
        <time>2021-04-22T13:01:17Z</time>
      </trkpt>
      <trkpt lat="49.70584" lon="4.78103">
        <ele>146.77702</ele>
        <time>2021-04-22T13:01:18Z</time>
      </trkpt>
      <trkpt lat="49.70582" lon="4.78106">
        <ele>146.67697</ele>
        <time>2021-04-22T13:01:19Z</time>
      </trkpt>
      <trkpt lat="49.70579" lon="4.78109">
        <ele>146.56111</ele>
        <time>2021-04-22T13:01:20Z</time>
      </trkpt>
      <trkpt lat="49.70577" lon="4.78113">
        <ele>146.43999</ele>
        <time>2021-04-22T13:01:21Z</time>
      </trkpt>
      <trkpt lat="49.70574" lon="4.78116">
        <ele>146.44525</ele>
        <time>2021-04-22T13:01:22Z</time>
      </trkpt>
      <trkpt lat="49.70572" lon="4.7812">
        <ele>146.30833</ele>
        <time>2021-04-22T13:01:23Z</time>
      </trkpt>
      <trkpt lat="49.7057" lon="4.78123">
        <ele>146.37679</ele>
        <time>2021-04-22T13:01:24Z</time>
      </trkpt>
      <trkpt lat="49.70568" lon="4.78128">
        <ele>146.41365</ele>
        <time>2021-04-22T13:01:25Z</time>
      </trkpt>
      <trkpt lat="49.70565" lon="4.78131">
        <ele>146.27673</ele>
        <time>2021-04-22T13:01:26Z</time>
      </trkpt>
      <trkpt lat="49.70562" lon="4.78135">
        <ele>146.11874</ele>
        <time>2021-04-22T13:01:27Z</time>
      </trkpt>
      <trkpt lat="49.7056" lon="4.78138">
        <ele>146.18193</ele>
        <time>2021-04-22T13:01:28Z</time>
      </trkpt>
      <trkpt lat="49.70558" lon="4.78141">
        <ele>145.99236</ele>
        <time>2021-04-22T13:01:29Z</time>
      </trkpt>
      <trkpt lat="49.70556" lon="4.78144">
        <ele>146.1872</ele>
        <time>2021-04-22T13:01:30Z</time>
      </trkpt>
      <trkpt lat="49.70554" lon="4.78148">
        <ele>146.10822</ele>
        <time>2021-04-22T13:01:31Z</time>
      </trkpt>
      <trkpt lat="49.70552" lon="4.78151">
        <ele>145.97655</ele>
        <time>2021-04-22T13:01:32Z</time>
      </trkpt>
      <trkpt lat="49.7055" lon="4.78155">
        <ele>146.0924</ele>
        <time>2021-04-22T13:01:33Z</time>
      </trkpt>
      <trkpt lat="49.70548" lon="4.78158">
        <ele>146.3136</ele>
        <time>2021-04-22T13:01:34Z</time>
      </trkpt>
      <trkpt lat="49.70545" lon="4.78161">
        <ele>146.13454</ele>
        <time>2021-04-22T13:01:35Z</time>
      </trkpt>
      <trkpt lat="49.70543" lon="4.78164">
        <ele>146.04501</ele>
        <time>2021-04-22T13:01:36Z</time>
      </trkpt>
      <trkpt lat="49.70541" lon="4.78167">
        <ele>146.09767</ele>
        <time>2021-04-22T13:01:37Z</time>
      </trkpt>
      <trkpt lat="49.70539" lon="4.78169">
        <ele>146.32939</ele>
        <time>2021-04-22T13:01:38Z</time>
      </trkpt>
      <trkpt lat="49.70537" lon="4.78171">
        <ele>146.15561</ele>
        <time>2021-04-22T13:01:39Z</time>
      </trkpt>
      <trkpt lat="49.70535" lon="4.78174">
        <ele>146.30833</ele>
        <time>2021-04-22T13:01:40Z</time>
      </trkpt>
      <trkpt lat="49.70532" lon="4.78177">
        <ele>146.1872</ele>
        <time>2021-04-22T13:01:41Z</time>
      </trkpt>
      <trkpt lat="49.7053" lon="4.7818">
        <ele>146.20827</ele>
        <time>2021-04-22T13:01:42Z</time>
      </trkpt>
      <trkpt lat="49.70527" lon="4.78184">
        <ele>146.13982</ele>
        <time>2021-04-22T13:01:43Z</time>
      </trkpt>
      <trkpt lat="49.70526" lon="4.78186">
        <ele>146.11348</ele>
        <time>2021-04-22T13:01:44Z</time>
      </trkpt>
      <trkpt lat="49.70524" lon="4.78189">
        <ele>145.99762</ele>
        <time>2021-04-22T13:01:45Z</time>
      </trkpt>
      <trkpt lat="49.70521" lon="4.78192">
        <ele>145.79224</ele>
        <time>2021-04-22T13:01:46Z</time>
      </trkpt>
      <trkpt lat="49.70519" lon="4.78195">
        <ele>145.96075</ele>
        <time>2021-04-22T13:01:47Z</time>
      </trkpt>
      <trkpt lat="49.70517" lon="4.78198">
        <ele>145.98183</ele>
        <time>2021-04-22T13:01:48Z</time>
      </trkpt>
      <trkpt lat="49.70515" lon="4.78202">
        <ele>145.85016</ele>
        <time>2021-04-22T13:01:49Z</time>
      </trkpt>
      <trkpt lat="49.70512" lon="4.78205">
        <ele>145.93442</ele>
        <time>2021-04-22T13:01:50Z</time>
      </trkpt>
      <trkpt lat="49.70511" lon="4.78208">
        <ele>145.7659</ele>
        <time>2021-04-22T13:01:51Z</time>
      </trkpt>
      <trkpt lat="49.70508" lon="4.78211">
        <ele>145.73958</ele>
        <time>2021-04-22T13:01:52Z</time>
      </trkpt>
      <trkpt lat="49.70506" lon="4.78214">
        <ele>145.51312</ele>
        <time>2021-04-22T13:01:53Z</time>
      </trkpt>
      <trkpt lat="49.70504" lon="4.78218">
        <ele>145.75537</ele>
        <time>2021-04-22T13:01:54Z</time>
      </trkpt>
      <trkpt lat="49.70501" lon="4.78221">
        <ele>145.97655</ele>
        <time>2021-04-22T13:01:55Z</time>
      </trkpt>
      <trkpt lat="49.70499" lon="4.78224">
        <ele>146.00815</ele>
        <time>2021-04-22T13:01:56Z</time>
      </trkpt>
      <trkpt lat="49.70497" lon="4.78226">
        <ele>145.92915</ele>
        <time>2021-04-22T13:01:57Z</time>
      </trkpt>
      <trkpt lat="49.70495" lon="4.78228">
        <ele>145.90808</ele>
        <time>2021-04-22T13:01:58Z</time>
      </trkpt>
      <trkpt lat="49.70493" lon="4.78231">
        <ele>146.02396</ele>
        <time>2021-04-22T13:01:59Z</time>
      </trkpt>
      <trkpt lat="49.70491" lon="4.78233">
        <ele>146.11348</ele>
        <time>2021-04-22T13:02:00Z</time>
      </trkpt>
      <trkpt lat="49.70488" lon="4.78234">
        <ele>146.13982</ele>
        <time>2021-04-22T13:02:01Z</time>
      </trkpt>
      <trkpt lat="49.70486" lon="4.78236">
        <ele>146.04501</ele>
        <time>2021-04-22T13:02:02Z</time>
      </trkpt>
      <trkpt lat="49.70484" lon="4.78237">
        <ele>145.80803</ele>
        <time>2021-04-22T13:02:03Z</time>
      </trkpt>
      <trkpt lat="49.70482" lon="4.78239">
        <ele>145.24454</ele>
        <time>2021-04-22T13:02:04Z</time>
      </trkpt>
      <trkpt lat="49.7048" lon="4.78241">
        <ele>145.80276</ele>
        <time>2021-04-22T13:02:05Z</time>
      </trkpt>
      <trkpt lat="49.70477" lon="4.78243">
        <ele>145.57104</ele>
        <time>2021-04-22T13:02:06Z</time>
      </trkpt>
      <trkpt lat="49.70475" lon="4.78245">
        <ele>145.70271</ele>
        <time>2021-04-22T13:02:07Z</time>
      </trkpt>
      <trkpt lat="49.70472" lon="4.78248">
        <ele>145.7185</ele>
        <time>2021-04-22T13:02:08Z</time>
      </trkpt>
      <trkpt lat="49.70469" lon="4.7825">
        <ele>145.52892</ele>
        <time>2021-04-22T13:02:09Z</time>
      </trkpt>
      <trkpt lat="49.70467" lon="4.78252">
        <ele>145.72377</ele>
        <time>2021-04-22T13:02:10Z</time>
      </trkpt>
      <trkpt lat="49.70464" lon="4.78253">
        <ele>145.471</ele>
        <time>2021-04-22T13:02:11Z</time>
      </trkpt>
      <trkpt lat="49.70462" lon="4.78254">
        <ele>145.51839</ele>
        <time>2021-04-22T13:02:12Z</time>
      </trkpt>
      <trkpt lat="49.7046" lon="4.78256">
        <ele>145.57104</ele>
        <time>2021-04-22T13:02:13Z</time>
      </trkpt>
      <trkpt lat="49.70459" lon="4.78257">
        <ele>145.82384</ele>
        <time>2021-04-22T13:02:14Z</time>
      </trkpt>
      <trkpt lat="49.70456" lon="4.78258">
        <ele>145.54999</ele>
        <time>2021-04-22T13:02:15Z</time>
      </trkpt>
      <trkpt lat="49.70455" lon="4.7826">
        <ele>145.7659</ele>
        <time>2021-04-22T13:02:16Z</time>
      </trkpt>
      <trkpt lat="49.70452" lon="4.78261">
        <ele>144.88643</ele>
        <time>2021-04-22T13:02:17Z</time>
      </trkpt>
      <trkpt lat="49.7045" lon="4.78263">
        <ele>146.07661</ele>
        <time>2021-04-22T13:02:18Z</time>
      </trkpt>
      <trkpt lat="49.70448" lon="4.78265">
        <ele>145.91336</ele>
        <time>2021-04-22T13:02:19Z</time>
      </trkpt>
      <trkpt lat="49.70445" lon="4.78267">
        <ele>145.7817</ele>
        <time>2021-04-22T13:02:20Z</time>
      </trkpt>
      <trkpt lat="49.70443" lon="4.78269">
        <ele>145.91336</ele>
        <time>2021-04-22T13:02:21Z</time>
      </trkpt>
      <trkpt lat="49.7044" lon="4.78271">
        <ele>145.97655</ele>
        <time>2021-04-22T13:02:22Z</time>
      </trkpt>
      <trkpt lat="49.70438" lon="4.78273">
        <ele>145.7659</ele>
        <time>2021-04-22T13:02:23Z</time>
      </trkpt>
      <trkpt lat="49.70436" lon="4.78275">
        <ele>145.8923</ele>
        <time>2021-04-22T13:02:24Z</time>
      </trkpt>
      <trkpt lat="49.70433" lon="4.78277">
        <ele>145.89755</ele>
        <time>2021-04-22T13:02:25Z</time>
      </trkpt>
      <trkpt lat="49.70432" lon="4.7828">
        <ele>145.86597</ele>
        <time>2021-04-22T13:02:26Z</time>
      </trkpt>
      <trkpt lat="49.70429" lon="4.78282">
        <ele>145.90808</ele>
        <time>2021-04-22T13:02:27Z</time>
      </trkpt>
      <trkpt lat="49.70426" lon="4.78284">
        <ele>145.8291</ele>
        <time>2021-04-22T13:02:28Z</time>
      </trkpt>
      <trkpt lat="49.70424" lon="4.78285">
        <ele>145.90808</ele>
        <time>2021-04-22T13:02:29Z</time>
      </trkpt>
      <trkpt lat="49.70421" lon="4.78287">
        <ele>145.96075</ele>
        <time>2021-04-22T13:02:30Z</time>
      </trkpt>
      <trkpt lat="49.70419" lon="4.78289">
        <ele>145.95549</ele>
        <time>2021-04-22T13:02:31Z</time>
      </trkpt>
      <trkpt lat="49.70416" lon="4.78291">
        <ele>145.91336</ele>
        <time>2021-04-22T13:02:32Z</time>
      </trkpt>
      <trkpt lat="49.70414" lon="4.78292">
        <ele>145.99762</ele>
        <time>2021-04-22T13:02:33Z</time>
      </trkpt>
      <trkpt lat="49.70411" lon="4.78294">
        <ele>145.88702</ele>
        <time>2021-04-22T13:02:34Z</time>
      </trkpt>
      <trkpt lat="49.70408" lon="4.78296">
        <ele>145.98183</ele>
        <time>2021-04-22T13:02:35Z</time>
      </trkpt>
      <trkpt lat="49.70405" lon="4.78297">
        <ele>146.00815</ele>
        <time>2021-04-22T13:02:36Z</time>
      </trkpt>
      <trkpt lat="49.70402" lon="4.78298">
        <ele>145.93442</ele>
        <time>2021-04-22T13:02:37Z</time>
      </trkpt>
      <trkpt lat="49.704" lon="4.78299">
        <ele>145.8765</ele>
        <time>2021-04-22T13:02:38Z</time>
      </trkpt>
      <trkpt lat="49.70397" lon="4.783">
        <ele>145.88176</ele>
        <time>2021-04-22T13:02:39Z</time>
      </trkpt>
      <trkpt lat="49.70395" lon="4.78301">
        <ele>145.69217</ele>
        <time>2021-04-22T13:02:40Z</time>
      </trkpt>
      <trkpt lat="49.70392" lon="4.78301">
        <ele>145.82384</ele>
        <time>2021-04-22T13:02:41Z</time>
      </trkpt>
      <trkpt lat="49.7039" lon="4.78302">
        <ele>145.7817</ele>
        <time>2021-04-22T13:02:42Z</time>
      </trkpt>
      <trkpt lat="49.70387" lon="4.78303">
        <ele>145.68164</ele>
        <time>2021-04-22T13:02:43Z</time>
      </trkpt>
      <trkpt lat="49.70384" lon="4.78303">
        <ele>145.73431</ele>
        <time>2021-04-22T13:02:44Z</time>
      </trkpt>
      <trkpt lat="49.70381" lon="4.78304">
        <ele>145.65004</ele>
        <time>2021-04-22T13:02:45Z</time>
      </trkpt>
      <trkpt lat="49.70379" lon="4.78305">
        <ele>145.63951</ele>
        <time>2021-04-22T13:02:46Z</time>
      </trkpt>
      <trkpt lat="49.70377" lon="4.78305">
        <ele>145.61844</ele>
        <time>2021-04-22T13:02:47Z</time>
      </trkpt>
      <trkpt lat="49.70375" lon="4.78305">
        <ele>145.77116</ele>
        <time>2021-04-22T13:02:48Z</time>
      </trkpt>
      <trkpt lat="49.70373" lon="4.78306">
        <ele>145.57104</ele>
        <time>2021-04-22T13:02:49Z</time>
      </trkpt>
      <trkpt lat="49.7037" lon="4.78307">
        <ele>145.66585</ele>
        <time>2021-04-22T13:02:50Z</time>
      </trkpt>
      <trkpt lat="49.70368" lon="4.78307">
        <ele>145.64478</ele>
        <time>2021-04-22T13:02:51Z</time>
      </trkpt>
      <trkpt lat="49.70366" lon="4.78308">
        <ele>145.56578</ele>
        <time>2021-04-22T13:02:52Z</time>
      </trkpt>
      <trkpt lat="49.70363" lon="4.78308">
        <ele>145.43939</ele>
        <time>2021-04-22T13:02:53Z</time>
      </trkpt>
      <trkpt lat="49.70359" lon="4.78308">
        <ele>145.66057</ele>
        <time>2021-04-22T13:02:54Z</time>
      </trkpt>
      <trkpt lat="49.70355" lon="4.78309">
        <ele>145.57632</ele>
        <time>2021-04-22T13:02:55Z</time>
      </trkpt>
      <trkpt lat="49.70351" lon="4.7831">
        <ele>145.67638</ele>
        <time>2021-04-22T13:02:56Z</time>
      </trkpt>
      <trkpt lat="49.70348" lon="4.78311">
        <ele>145.67638</ele>
        <time>2021-04-22T13:02:57Z</time>
      </trkpt>
      <trkpt lat="49.70345" lon="4.78312">
        <ele>145.75009</ele>
        <time>2021-04-22T13:02:58Z</time>
      </trkpt>
      <trkpt lat="49.70342" lon="4.78313">
        <ele>145.79224</ele>
        <time>2021-04-22T13:02:59Z</time>
      </trkpt>
      <trkpt lat="49.70339" lon="4.78314">
        <ele>145.5921</ele>
        <time>2021-04-22T13:03:00Z</time>
      </trkpt>
      <trkpt lat="49.70337" lon="4.78315">
        <ele>145.61844</ele>
        <time>2021-04-22T13:03:01Z</time>
      </trkpt>
      <trkpt lat="49.70334" lon="4.78316">
        <ele>145.67111</ele>
        <time>2021-04-22T13:03:02Z</time>
      </trkpt>
      <trkpt lat="49.70331" lon="4.78318">
        <ele>145.73431</ele>
        <time>2021-04-22T13:03:03Z</time>
      </trkpt>
      <trkpt lat="49.70328" lon="4.78319">
        <ele>145.80803</ele>
        <time>2021-04-22T13:03:04Z</time>
      </trkpt>
      <trkpt lat="49.70325" lon="4.7832">
        <ele>145.83437</ele>
        <time>2021-04-22T13:03:05Z</time>
      </trkpt>
      <trkpt lat="49.70322" lon="4.78322">
        <ele>145.88176</ele>
        <time>2021-04-22T13:03:06Z</time>
      </trkpt>
      <trkpt lat="49.70319" lon="4.78324">
        <ele>145.98183</ele>
        <time>2021-04-22T13:03:07Z</time>
      </trkpt>
      <trkpt lat="49.70317" lon="4.78325">
        <ele>145.96602</ele>
        <time>2021-04-22T13:03:08Z</time>
      </trkpt>
      <trkpt lat="49.70314" lon="4.78325">
        <ele>145.99762</ele>
        <time>2021-04-22T13:03:09Z</time>
      </trkpt>
      <trkpt lat="49.70311" lon="4.78326">
        <ele>145.99762</ele>
        <time>2021-04-22T13:03:10Z</time>
      </trkpt>
      <trkpt lat="49.70308" lon="4.78327">
        <ele>146.03975</ele>
        <time>2021-04-22T13:03:11Z</time>
      </trkpt>
      <trkpt lat="49.70306" lon="4.78329">
        <ele>145.95023</ele>
        <time>2021-04-22T13:03:12Z</time>
      </trkpt>
      <trkpt lat="49.70303" lon="4.78331">
        <ele>145.98183</ele>
        <time>2021-04-22T13:03:13Z</time>
      </trkpt>
      <trkpt lat="49.703" lon="4.78331">
        <ele>146.02396</ele>
        <time>2021-04-22T13:03:14Z</time>
      </trkpt>
      <trkpt lat="49.70298" lon="4.78332">
        <ele>146.16614</ele>
        <time>2021-04-22T13:03:15Z</time>
      </trkpt>
      <trkpt lat="49.70295" lon="4.78333">
        <ele>145.8923</ele>
        <time>2021-04-22T13:03:16Z</time>
      </trkpt>
      <trkpt lat="49.70292" lon="4.78334">
        <ele>146.13454</ele>
        <time>2021-04-22T13:03:17Z</time>
      </trkpt>
      <trkpt lat="49.70289" lon="4.78334">
        <ele>146.07135</ele>
        <time>2021-04-22T13:03:18Z</time>
      </trkpt>
      <trkpt lat="49.70286" lon="4.78334">
        <ele>145.98183</ele>
        <time>2021-04-22T13:03:19Z</time>
      </trkpt>
      <trkpt lat="49.70283" lon="4.78335">
        <ele>146.03448</ele>
        <time>2021-04-22T13:03:20Z</time>
      </trkpt>
      <trkpt lat="49.70281" lon="4.78336">
        <ele>146.08188</ele>
        <time>2021-04-22T13:03:21Z</time>
      </trkpt>
      <trkpt lat="49.70277" lon="4.78335">
        <ele>146.03975</ele>
        <time>2021-04-22T13:03:22Z</time>
      </trkpt>
      <trkpt lat="49.70274" lon="4.78335">
        <ele>145.95023</ele>
        <time>2021-04-22T13:03:23Z</time>
      </trkpt>
      <trkpt lat="49.70272" lon="4.78336">
        <ele>146.12927</ele>
        <time>2021-04-22T13:03:24Z</time>
      </trkpt>
      <trkpt lat="49.70268" lon="4.78336">
        <ele>146.17668</ele>
        <time>2021-04-22T13:03:25Z</time>
      </trkpt>
      <trkpt lat="49.70266" lon="4.78337">
        <ele>146.19247</ele>
        <time>2021-04-22T13:03:26Z</time>
      </trkpt>
      <trkpt lat="49.70263" lon="4.78338">
        <ele>146.2504</ele>
        <time>2021-04-22T13:03:27Z</time>
      </trkpt>
      <trkpt lat="49.7026" lon="4.78339">
        <ele>146.54532</ele>
        <time>2021-04-22T13:03:28Z</time>
      </trkpt>
      <trkpt lat="49.70257" lon="4.78341">
        <ele>146.61378</ele>
        <time>2021-04-22T13:03:29Z</time>
      </trkpt>
      <trkpt lat="49.70254" lon="4.78342">
        <ele>146.8297</ele>
        <time>2021-04-22T13:03:30Z</time>
      </trkpt>
      <trkpt lat="49.70252" lon="4.78342">
        <ele>146.87709</ele>
        <time>2021-04-22T13:03:31Z</time>
      </trkpt>
      <trkpt lat="49.70249" lon="4.78343">
        <ele>146.89816</ele>
        <time>2021-04-22T13:03:32Z</time>
      </trkpt>
      <trkpt lat="49.70247" lon="4.78344">
        <ele>147.46165</ele>
        <time>2021-04-22T13:03:33Z</time>
      </trkpt>
      <trkpt lat="49.70245" lon="4.78344">
        <ele>147.27733</ele>
        <time>2021-04-22T13:03:34Z</time>
      </trkpt>
      <trkpt lat="49.70242" lon="4.78344">
        <ele>147.66704</ele>
        <time>2021-04-22T13:03:35Z</time>
      </trkpt>
      <trkpt lat="49.7024" lon="4.78345">
        <ele>147.54591</ele>
        <time>2021-04-22T13:03:36Z</time>
      </trkpt>
      <trkpt lat="49.70237" lon="4.78345">
        <ele>147.87769</ele>
        <time>2021-04-22T13:03:37Z</time>
      </trkpt>
      <trkpt lat="49.70235" lon="4.78346">
        <ele>147.56697</ele>
        <time>2021-04-22T13:03:38Z</time>
      </trkpt>
      <trkpt lat="49.70232" lon="4.78347">
        <ele>147.79869</ele>
        <time>2021-04-22T13:03:39Z</time>
      </trkpt>
      <trkpt lat="49.7023" lon="4.78347">
        <ele>147.74077</ele>
        <time>2021-04-22T13:03:40Z</time>
      </trkpt>
      <trkpt lat="49.70227" lon="4.78349">
        <ele>147.97774</ele>
        <time>2021-04-22T13:03:41Z</time>
      </trkpt>
      <trkpt lat="49.70224" lon="4.78349">
        <ele>147.58278</ele>
        <time>2021-04-22T13:03:42Z</time>
      </trkpt>
      <trkpt lat="49.70221" lon="4.7835">
        <ele>147.95142</ele>
        <time>2021-04-22T13:03:43Z</time>
      </trkpt>
      <trkpt lat="49.70218" lon="4.7835">
        <ele>147.58278</ele>
        <time>2021-04-22T13:03:44Z</time>
      </trkpt>
      <trkpt lat="49.70215" lon="4.78351">
        <ele>147.50905</ele>
        <time>2021-04-22T13:03:45Z</time>
      </trkpt>
      <trkpt lat="49.70212" lon="4.78352">
        <ele>147.49326</ele>
        <time>2021-04-22T13:03:46Z</time>
      </trkpt>
      <trkpt lat="49.70208" lon="4.78353">
        <ele>147.65651</ele>
        <time>2021-04-22T13:03:47Z</time>
      </trkpt>
      <trkpt lat="49.70205" lon="4.78354">
        <ele>147.53537</ele>
        <time>2021-04-22T13:03:48Z</time>
      </trkpt>
      <trkpt lat="49.70202" lon="4.78355">
        <ele>147.39845</ele>
        <time>2021-04-22T13:03:49Z</time>
      </trkpt>
      <trkpt lat="49.70197" lon="4.78357">
        <ele>147.16147</ele>
        <time>2021-04-22T13:03:50Z</time>
      </trkpt>
      <trkpt lat="49.70193" lon="4.78359">
        <ele>146.99295</ele>
        <time>2021-04-22T13:03:51Z</time>
      </trkpt>
      <trkpt lat="49.70189" lon="4.78362">
        <ele>146.73491</ele>
        <time>2021-04-22T13:03:52Z</time>
      </trkpt>
      <trkpt lat="49.70184" lon="4.78365">
        <ele>146.61378</ele>
        <time>2021-04-22T13:03:53Z</time>
      </trkpt>
      <trkpt lat="49.70179" lon="4.78368">
        <ele>146.52951</ele>
        <time>2021-04-22T13:03:54Z</time>
      </trkpt>
      <trkpt lat="49.70175" lon="4.7837">
        <ele>146.71384</ele>
        <time>2021-04-22T13:03:55Z</time>
      </trkpt>
      <trkpt lat="49.7017" lon="4.78373">
        <ele>146.60324</ele>
        <time>2021-04-22T13:03:56Z</time>
      </trkpt>
      <trkpt lat="49.70166" lon="4.78376">
        <ele>146.53477</ele>
        <time>2021-04-22T13:03:57Z</time>
      </trkpt>
      <trkpt lat="49.70161" lon="4.78378">
        <ele>146.51898</ele>
        <time>2021-04-22T13:03:58Z</time>
      </trkpt>
      <trkpt lat="49.70158" lon="4.78382">
        <ele>146.55058</ele>
        <time>2021-04-22T13:03:59Z</time>
      </trkpt>
      <trkpt lat="49.70155" lon="4.78385">
        <ele>146.46632</ele>
        <time>2021-04-22T13:04:00Z</time>
      </trkpt>
      <trkpt lat="49.70151" lon="4.78388">
        <ele>146.37679</ele>
        <time>2021-04-22T13:04:01Z</time>
      </trkpt>
      <trkpt lat="49.70148" lon="4.7839">
        <ele>146.23987</ele>
        <time>2021-04-22T13:04:02Z</time>
      </trkpt>
      <trkpt lat="49.70144" lon="4.78393">
        <ele>146.24513</ele>
        <time>2021-04-22T13:04:03Z</time>
      </trkpt>
      <trkpt lat="49.70141" lon="4.78396">
        <ele>146.33992</ele>
        <time>2021-04-22T13:04:04Z</time>
      </trkpt>
      <trkpt lat="49.70139" lon="4.78399">
        <ele>146.3926</ele>
        <time>2021-04-22T13:04:05Z</time>
      </trkpt>
      <trkpt lat="49.70136" lon="4.78401">
        <ele>146.34518</ele>
        <time>2021-04-22T13:04:06Z</time>
      </trkpt>
      <trkpt lat="49.70133" lon="4.78404">
        <ele>146.33467</ele>
        <time>2021-04-22T13:04:07Z</time>
      </trkpt>
      <trkpt lat="49.7013" lon="4.78406">
        <ele>146.30833</ele>
        <time>2021-04-22T13:04:08Z</time>
      </trkpt>
      <trkpt lat="49.70128" lon="4.78408">
        <ele>146.39786</ele>
        <time>2021-04-22T13:04:09Z</time>
      </trkpt>
      <trkpt lat="49.70124" lon="4.7841">
        <ele>146.06607</ele>
        <time>2021-04-22T13:04:10Z</time>
      </trkpt>
      <trkpt lat="49.70121" lon="4.78412">
        <ele>145.86597</ele>
        <time>2021-04-22T13:04:11Z</time>
      </trkpt>
      <trkpt lat="49.70119" lon="4.78414">
        <ele>146.08714</ele>
        <time>2021-04-22T13:04:12Z</time>
      </trkpt>
      <trkpt lat="49.70116" lon="4.78416">
        <ele>146.07135</ele>
        <time>2021-04-22T13:04:13Z</time>
      </trkpt>
      <trkpt lat="49.70114" lon="4.78419">
        <ele>145.392</ele>
        <time>2021-04-22T13:04:14Z</time>
      </trkpt>
      <trkpt lat="49.70112" lon="4.78422">
        <ele>145.91862</ele>
        <time>2021-04-22T13:04:15Z</time>
      </trkpt>
      <trkpt lat="49.70109" lon="4.78424">
        <ele>145.99236</ele>
        <time>2021-04-22T13:04:16Z</time>
      </trkpt>
      <trkpt lat="49.70107" lon="4.78427">
        <ele>146.06607</ele>
        <time>2021-04-22T13:04:17Z</time>
      </trkpt>
      <trkpt lat="49.70104" lon="4.78431">
        <ele>146.10295</ele>
        <time>2021-04-22T13:04:18Z</time>
      </trkpt>
      <trkpt lat="49.70101" lon="4.78434">
        <ele>146.0608</ele>
        <time>2021-04-22T13:04:19Z</time>
      </trkpt>
      <trkpt lat="49.70098" lon="4.78437">
        <ele>146.11874</ele>
        <time>2021-04-22T13:04:20Z</time>
      </trkpt>
      <trkpt lat="49.70095" lon="4.7844">
        <ele>146.21353</ele>
        <time>2021-04-22T13:04:21Z</time>
      </trkpt>
      <trkpt lat="49.70092" lon="4.78443">
        <ele>146.1714</ele>
        <time>2021-04-22T13:04:22Z</time>
      </trkpt>
      <trkpt lat="49.7009" lon="4.78446">
        <ele>146.12401</ele>
        <time>2021-04-22T13:04:23Z</time>
      </trkpt>
      <trkpt lat="49.70087" lon="4.78451">
        <ele>146.24513</ele>
        <time>2021-04-22T13:04:24Z</time>
      </trkpt>
      <trkpt lat="49.70084" lon="4.78454">
        <ele>146.03975</ele>
        <time>2021-04-22T13:04:25Z</time>
      </trkpt>
      <trkpt lat="49.70082" lon="4.78457">
        <ele>146.17668</ele>
        <time>2021-04-22T13:04:26Z</time>
      </trkpt>
      <trkpt lat="49.70079" lon="4.7846">
        <ele>146.15561</ele>
        <time>2021-04-22T13:04:27Z</time>
      </trkpt>
      <trkpt lat="49.70076" lon="4.78462">
        <ele>146.16614</ele>
        <time>2021-04-22T13:04:28Z</time>
      </trkpt>
      <trkpt lat="49.70073" lon="4.78465">
        <ele>146.10822</ele>
        <time>2021-04-22T13:04:29Z</time>
      </trkpt>
      <trkpt lat="49.7007" lon="4.78468">
        <ele>146.18193</ele>
        <time>2021-04-22T13:04:30Z</time>
      </trkpt>
      <trkpt lat="49.70067" lon="4.7847">
        <ele>146.22934</ele>
        <time>2021-04-22T13:04:31Z</time>
      </trkpt>
      <trkpt lat="49.70064" lon="4.78473">
        <ele>146.13982</ele>
        <time>2021-04-22T13:04:32Z</time>
      </trkpt>
      <trkpt lat="49.70061" lon="4.78475">
        <ele>146.15561</ele>
        <time>2021-04-22T13:04:33Z</time>
      </trkpt>
      <trkpt lat="49.70058" lon="4.78478">
        <ele>146.30833</ele>
        <time>2021-04-22T13:04:34Z</time>
      </trkpt>
      <trkpt lat="49.70055" lon="4.78481">
        <ele>146.36626</ele>
        <time>2021-04-22T13:04:35Z</time>
      </trkpt>
      <trkpt lat="49.70052" lon="4.78484">
        <ele>146.48212</ele>
        <time>2021-04-22T13:04:36Z</time>
      </trkpt>
      <trkpt lat="49.7005" lon="4.78486">
        <ele>146.45052</ele>
        <time>2021-04-22T13:04:37Z</time>
      </trkpt>
      <trkpt lat="49.70048" lon="4.78489">
        <ele>146.60324</ele>
        <time>2021-04-22T13:04:38Z</time>
      </trkpt>
      <trkpt lat="49.70046" lon="4.78492">
        <ele>146.38733</ele>
        <time>2021-04-22T13:04:39Z</time>
      </trkpt>
      <trkpt lat="49.70044" lon="4.78495">
        <ele>146.50845</ele>
        <time>2021-04-22T13:04:40Z</time>
      </trkpt>
      <trkpt lat="49.70042" lon="4.78497">
        <ele>146.6559</ele>
        <time>2021-04-22T13:04:41Z</time>
      </trkpt>
      <trkpt lat="49.7004" lon="4.78499">
        <ele>146.53477</ele>
        <time>2021-04-22T13:04:42Z</time>
      </trkpt>
      <trkpt lat="49.70038" lon="4.78502">
        <ele>146.69803</ele>
        <time>2021-04-22T13:04:43Z</time>
      </trkpt>
      <trkpt lat="49.70036" lon="4.78504">
        <ele>146.84023</ele>
        <time>2021-04-22T13:04:44Z</time>
      </trkpt>
      <trkpt lat="49.70033" lon="4.78506">
        <ele>146.64537</ele>
        <time>2021-04-22T13:04:45Z</time>
      </trkpt>
      <trkpt lat="49.70031" lon="4.78508">
        <ele>146.84549</ele>
        <time>2021-04-22T13:04:46Z</time>
      </trkpt>
      <trkpt lat="49.70029" lon="4.7851">
        <ele>146.83496</ele>
        <time>2021-04-22T13:04:47Z</time>
      </trkpt>
      <trkpt lat="49.70027" lon="4.78512">
        <ele>146.93501</ele>
        <time>2021-04-22T13:04:48Z</time>
      </trkpt>
      <trkpt lat="49.70025" lon="4.78513">
        <ele>146.68224</ele>
        <time>2021-04-22T13:04:49Z</time>
      </trkpt>
      <trkpt lat="49.70024" lon="4.78515">
        <ele>147.08247</ele>
        <time>2021-04-22T13:04:50Z</time>
      </trkpt>
      <trkpt lat="49.70022" lon="4.78517">
        <ele>146.86656</ele>
        <time>2021-04-22T13:04:51Z</time>
      </trkpt>
      <trkpt lat="49.7002" lon="4.78518">
        <ele>146.95609</ele>
        <time>2021-04-22T13:04:52Z</time>
      </trkpt>
      <trkpt lat="49.70017" lon="4.78519">
        <ele>147.07195</ele>
        <time>2021-04-22T13:04:53Z</time>
      </trkpt>
      <trkpt lat="49.70015" lon="4.78521">
        <ele>146.78229</ele>
        <time>2021-04-22T13:04:54Z</time>
      </trkpt>
      <trkpt lat="49.70012" lon="4.78523">
        <ele>147.08774</ele>
        <time>2021-04-22T13:04:55Z</time>
      </trkpt>
      <trkpt lat="49.70009" lon="4.78525">
        <ele>147.07195</ele>
        <time>2021-04-22T13:04:56Z</time>
      </trkpt>
      <trkpt lat="49.70007" lon="4.78527">
        <ele>146.84023</ele>
        <time>2021-04-22T13:04:57Z</time>
      </trkpt>
      <trkpt lat="49.70005" lon="4.7853">
        <ele>147.08247</ele>
        <time>2021-04-22T13:04:58Z</time>
      </trkpt>
      <trkpt lat="49.70002" lon="4.78532">
        <ele>147.05615</ele>
        <time>2021-04-22T13:04:59Z</time>
      </trkpt>
      <trkpt lat="49.7" lon="4.78534">
        <ele>146.98242</ele>
        <time>2021-04-22T13:05:00Z</time>
      </trkpt>
      <trkpt lat="49.69997" lon="4.78536">
        <ele>147.11934</ele>
        <time>2021-04-22T13:05:01Z</time>
      </trkpt>
      <trkpt lat="49.69995" lon="4.78539">
        <ele>147.19307</ele>
        <time>2021-04-22T13:05:02Z</time>
      </trkpt>
      <trkpt lat="49.69993" lon="4.78541">
        <ele>147.24573</ele>
        <time>2021-04-22T13:05:03Z</time>
      </trkpt>
      <trkpt lat="49.69991" lon="4.78543">
        <ele>147.24046</ele>
        <time>2021-04-22T13:05:04Z</time>
      </trkpt>
      <trkpt lat="49.69988" lon="4.78545">
        <ele>147.11934</ele>
        <time>2021-04-22T13:05:05Z</time>
      </trkpt>
      <trkpt lat="49.69986" lon="4.78547">
        <ele>146.99821</ele>
        <time>2021-04-22T13:05:06Z</time>
      </trkpt>
      <trkpt lat="49.69984" lon="4.78548">
        <ele>147.05615</ele>
        <time>2021-04-22T13:05:07Z</time>
      </trkpt>
      <trkpt lat="49.69982" lon="4.78551">
        <ele>146.93501</ele>
        <time>2021-04-22T13:05:08Z</time>
      </trkpt>
      <trkpt lat="49.69979" lon="4.78553">
        <ele>146.89816</ele>
        <time>2021-04-22T13:05:09Z</time>
      </trkpt>
      <trkpt lat="49.69977" lon="4.78555">
        <ele>146.82443</ele>
        <time>2021-04-22T13:05:10Z</time>
      </trkpt>
      <trkpt lat="49.69974" lon="4.78558">
        <ele>146.8929</ele>
        <time>2021-04-22T13:05:11Z</time>
      </trkpt>
      <trkpt lat="49.69972" lon="4.7856">
        <ele>146.78229</ele>
        <time>2021-04-22T13:05:12Z</time>
      </trkpt>
      <trkpt lat="49.69969" lon="4.78563">
        <ele>146.73491</ele>
        <time>2021-04-22T13:05:13Z</time>
      </trkpt>
      <trkpt lat="49.69966" lon="4.78566">
        <ele>146.62958</ele>
        <time>2021-04-22T13:05:14Z</time>
      </trkpt>
      <trkpt lat="49.69964" lon="4.78569">
        <ele>146.47159</ele>
        <time>2021-04-22T13:05:15Z</time>
      </trkpt>
      <trkpt lat="49.69961" lon="4.78572">
        <ele>146.42946</ele>
        <time>2021-04-22T13:05:16Z</time>
      </trkpt>
      <trkpt lat="49.69958" lon="4.78575">
        <ele>146.37679</ele>
        <time>2021-04-22T13:05:17Z</time>
      </trkpt>
      <trkpt lat="49.69955" lon="4.78578">
        <ele>146.27673</ele>
        <time>2021-04-22T13:05:18Z</time>
      </trkpt>
      <trkpt lat="49.69953" lon="4.78581">
        <ele>146.2662</ele>
        <time>2021-04-22T13:05:19Z</time>
      </trkpt>
      <trkpt lat="49.6995" lon="4.78585">
        <ele>146.3136</ele>
        <time>2021-04-22T13:05:20Z</time>
      </trkpt>
      <trkpt lat="49.69947" lon="4.78588">
        <ele>146.1714</ele>
        <time>2021-04-22T13:05:21Z</time>
      </trkpt>
      <trkpt lat="49.69945" lon="4.78592">
        <ele>146.11348</ele>
        <time>2021-04-22T13:05:22Z</time>
      </trkpt>
      <trkpt lat="49.69943" lon="4.78596">
        <ele>146.09767</ele>
        <time>2021-04-22T13:05:23Z</time>
      </trkpt>
      <trkpt lat="49.69941" lon="4.786">
        <ele>146.06607</ele>
        <time>2021-04-22T13:05:24Z</time>
      </trkpt>
      <trkpt lat="49.69939" lon="4.78603">
        <ele>146.0924</ele>
        <time>2021-04-22T13:05:25Z</time>
      </trkpt>
      <trkpt lat="49.69936" lon="4.78605">
        <ele>146.11874</ele>
        <time>2021-04-22T13:05:26Z</time>
      </trkpt>
      <trkpt lat="49.69934" lon="4.78608">
        <ele>146.08188</ele>
        <time>2021-04-22T13:05:27Z</time>
      </trkpt>
      <trkpt lat="49.69932" lon="4.78611">
        <ele>146.13454</ele>
        <time>2021-04-22T13:05:28Z</time>
      </trkpt>
      <trkpt lat="49.6993" lon="4.78614">
        <ele>146.203</ele>
        <time>2021-04-22T13:05:29Z</time>
      </trkpt>
      <trkpt lat="49.69928" lon="4.78617">
        <ele>145.92915</ele>
        <time>2021-04-22T13:05:30Z</time>
      </trkpt>
      <trkpt lat="49.69926" lon="4.7862">
        <ele>146.203</ele>
        <time>2021-04-22T13:05:31Z</time>
      </trkpt>
      <trkpt lat="49.69924" lon="4.78622">
        <ele>146.16614</ele>
        <time>2021-04-22T13:05:32Z</time>
      </trkpt>
      <trkpt lat="49.69921" lon="4.78625">
        <ele>146.16087</ele>
        <time>2021-04-22T13:05:33Z</time>
      </trkpt>
      <trkpt lat="49.69919" lon="4.78627">
        <ele>146.07135</ele>
        <time>2021-04-22T13:05:34Z</time>
      </trkpt>
      <trkpt lat="49.69917" lon="4.7863">
        <ele>146.2188</ele>
        <time>2021-04-22T13:05:35Z</time>
      </trkpt>
      <trkpt lat="49.69914" lon="4.78633">
        <ele>146.10295</ele>
        <time>2021-04-22T13:05:36Z</time>
      </trkpt>
      <trkpt lat="49.69912" lon="4.78637">
        <ele>146.2662</ele>
        <time>2021-04-22T13:05:37Z</time>
      </trkpt>
      <trkpt lat="49.69909" lon="4.78641">
        <ele>146.2662</ele>
        <time>2021-04-22T13:05:38Z</time>
      </trkpt>
      <trkpt lat="49.69907" lon="4.78644">
        <ele>146.1714</ele>
        <time>2021-04-22T13:05:39Z</time>
      </trkpt>
      <trkpt lat="49.69905" lon="4.78647">
        <ele>146.2346</ele>
        <time>2021-04-22T13:05:40Z</time>
      </trkpt>
      <trkpt lat="49.69902" lon="4.7865">
        <ele>146.19247</ele>
        <time>2021-04-22T13:05:41Z</time>
      </trkpt>
      <trkpt lat="49.69901" lon="4.78653">
        <ele>146.11348</ele>
        <time>2021-04-22T13:05:42Z</time>
      </trkpt>
      <trkpt lat="49.69899" lon="4.78657">
        <ele>146.13454</ele>
        <time>2021-04-22T13:05:43Z</time>
      </trkpt>
      <trkpt lat="49.69897" lon="4.78661">
        <ele>146.03975</ele>
        <time>2021-04-22T13:05:44Z</time>
      </trkpt>
      <trkpt lat="49.69895" lon="4.78665">
        <ele>146.13454</ele>
        <time>2021-04-22T13:05:45Z</time>
      </trkpt>
      <trkpt lat="49.69893" lon="4.78669">
        <ele>145.88176</ele>
        <time>2021-04-22T13:05:46Z</time>
      </trkpt>
      <trkpt lat="49.69891" lon="4.78672">
        <ele>146.55585</ele>
        <time>2021-04-22T13:05:47Z</time>
      </trkpt>
      <trkpt lat="49.6989" lon="4.78676">
        <ele>146.24513</ele>
        <time>2021-04-22T13:05:48Z</time>
      </trkpt>
      <trkpt lat="49.69888" lon="4.78679">
        <ele>146.2346</ele>
        <time>2021-04-22T13:05:49Z</time>
      </trkpt>
      <trkpt lat="49.69886" lon="4.78682">
        <ele>146.203</ele>
        <time>2021-04-22T13:05:50Z</time>
      </trkpt>
      <trkpt lat="49.69885" lon="4.78686">
        <ele>146.08188</ele>
        <time>2021-04-22T13:05:51Z</time>
      </trkpt>
      <trkpt lat="49.69883" lon="4.7869">
        <ele>146.0608</ele>
        <time>2021-04-22T13:05:52Z</time>
      </trkpt>
      <trkpt lat="49.69881" lon="4.78694">
        <ele>146.12927</ele>
        <time>2021-04-22T13:05:53Z</time>
      </trkpt>
      <trkpt lat="49.6988" lon="4.78698">
        <ele>146.10822</ele>
        <time>2021-04-22T13:05:54Z</time>
      </trkpt>
      <trkpt lat="49.69879" lon="4.78702">
        <ele>145.98709</ele>
        <time>2021-04-22T13:05:55Z</time>
      </trkpt>
      <trkpt lat="49.69878" lon="4.78707">
        <ele>146.01869</ele>
        <time>2021-04-22T13:05:56Z</time>
      </trkpt>
      <trkpt lat="49.69877" lon="4.78711">
        <ele>145.81856</ele>
        <time>2021-04-22T13:05:57Z</time>
      </trkpt>
      <trkpt lat="49.69877" lon="4.78716">
        <ele>146.0924</ele>
        <time>2021-04-22T13:05:58Z</time>
      </trkpt>
      <trkpt lat="49.69875" lon="4.7872">
        <ele>146.16614</ele>
        <time>2021-04-22T13:05:59Z</time>
      </trkpt>
      <trkpt lat="49.69875" lon="4.78724">
        <ele>146.2188</ele>
        <time>2021-04-22T13:06:00Z</time>
      </trkpt>
      <trkpt lat="49.69873" lon="4.78728">
        <ele>146.37679</ele>
        <time>2021-04-22T13:06:01Z</time>
      </trkpt>
      <trkpt lat="49.69873" lon="4.78731">
        <ele>146.282</ele>
        <time>2021-04-22T13:06:02Z</time>
      </trkpt>
      <trkpt lat="49.69873" lon="4.78734">
        <ele>146.21353</ele>
        <time>2021-04-22T13:06:03Z</time>
      </trkpt>
      <trkpt lat="49.69872" lon="4.78737">
        <ele>146.30833</ele>
        <time>2021-04-22T13:06:04Z</time>
      </trkpt>
      <trkpt lat="49.69871" lon="4.78741">
        <ele>146.19247</ele>
        <time>2021-04-22T13:06:05Z</time>
      </trkpt>
      <trkpt lat="49.69871" lon="4.78745">
        <ele>145.96602</ele>
        <time>2021-04-22T13:06:06Z</time>
      </trkpt>
      <trkpt lat="49.6987" lon="4.78748">
        <ele>146.26094</ele>
        <time>2021-04-22T13:06:07Z</time>
      </trkpt>
      <trkpt lat="49.69869" lon="4.78753">
        <ele>146.2978</ele>
        <time>2021-04-22T13:06:08Z</time>
      </trkpt>
      <trkpt lat="49.69869" lon="4.78758">
        <ele>146.0924</ele>
        <time>2021-04-22T13:06:09Z</time>
      </trkpt>
      <trkpt lat="49.69868" lon="4.78763">
        <ele>146.4242</ele>
        <time>2021-04-22T13:06:10Z</time>
      </trkpt>
      <trkpt lat="49.69866" lon="4.78769">
        <ele>146.08188</ele>
        <time>2021-04-22T13:06:11Z</time>
      </trkpt>
      <trkpt lat="49.69864" lon="4.78774">
        <ele>146.05554</ele>
        <time>2021-04-22T13:06:12Z</time>
      </trkpt>
      <trkpt lat="49.69863" lon="4.78778">
        <ele>146.3926</ele>
        <time>2021-04-22T13:06:13Z</time>
      </trkpt>
      <trkpt lat="49.69861" lon="4.78783">
        <ele>146.39786</ele>
        <time>2021-04-22T13:06:14Z</time>
      </trkpt>
      <trkpt lat="49.6986" lon="4.78788">
        <ele>146.33992</ele>
        <time>2021-04-22T13:06:15Z</time>
      </trkpt>
      <trkpt lat="49.69859" lon="4.78794">
        <ele>146.45052</ele>
        <time>2021-04-22T13:06:16Z</time>
      </trkpt>
      <trkpt lat="49.69858" lon="4.788">
        <ele>146.56111</ele>
        <time>2021-04-22T13:06:17Z</time>
      </trkpt>
      <trkpt lat="49.69857" lon="4.78806">
        <ele>146.64537</ele>
        <time>2021-04-22T13:06:18Z</time>
      </trkpt>
      <trkpt lat="49.69856" lon="4.7881">
        <ele>146.7191</ele>
        <time>2021-04-22T13:06:19Z</time>
      </trkpt>
      <trkpt lat="49.69855" lon="4.78815">
        <ele>146.70331</ele>
        <time>2021-04-22T13:06:20Z</time>
      </trkpt>
      <trkpt lat="49.69854" lon="4.7882">
        <ele>146.6243</ele>
        <time>2021-04-22T13:06:21Z</time>
      </trkpt>
      <trkpt lat="49.69853" lon="4.78825">
        <ele>146.6401</ele>
        <time>2021-04-22T13:06:22Z</time>
      </trkpt>
      <trkpt lat="49.69852" lon="4.78829">
        <ele>146.54004</ele>
        <time>2021-04-22T13:06:23Z</time>
      </trkpt>
      <trkpt lat="49.69851" lon="4.78834">
        <ele>146.54004</ele>
        <time>2021-04-22T13:06:24Z</time>
      </trkpt>
      <trkpt lat="49.6985" lon="4.78839">
        <ele>146.59798</ele>
        <time>2021-04-22T13:06:25Z</time>
      </trkpt>
      <trkpt lat="49.69849" lon="4.78844">
        <ele>146.44525</ele>
        <time>2021-04-22T13:06:26Z</time>
      </trkpt>
      <trkpt lat="49.69848" lon="4.78849">
        <ele>146.56638</ele>
        <time>2021-04-22T13:06:27Z</time>
      </trkpt>
      <trkpt lat="49.69846" lon="4.78854">
        <ele>146.47685</ele>
        <time>2021-04-22T13:06:28Z</time>
      </trkpt>
      <trkpt lat="49.69845" lon="4.7886">
        <ele>146.48738</ele>
        <time>2021-04-22T13:06:29Z</time>
      </trkpt>
      <trkpt lat="49.69843" lon="4.78865">
        <ele>146.54532</ele>
        <time>2021-04-22T13:06:30Z</time>
      </trkpt>
      <trkpt lat="49.69842" lon="4.7887">
        <ele>146.52951</ele>
        <time>2021-04-22T13:06:31Z</time>
      </trkpt>
      <trkpt lat="49.69841" lon="4.78875">
        <ele>146.48738</ele>
        <time>2021-04-22T13:06:32Z</time>
      </trkpt>
      <trkpt lat="49.6984" lon="4.7888">
        <ele>146.46632</ele>
        <time>2021-04-22T13:06:33Z</time>
      </trkpt>
      <trkpt lat="49.69838" lon="4.78885">
        <ele>146.57692</ele>
        <time>2021-04-22T13:06:34Z</time>
      </trkpt>
      <trkpt lat="49.69837" lon="4.7889">
        <ele>146.47159</ele>
        <time>2021-04-22T13:06:35Z</time>
      </trkpt>
      <trkpt lat="49.69836" lon="4.78895">
        <ele>146.40839</ele>
        <time>2021-04-22T13:06:36Z</time>
      </trkpt>
      <trkpt lat="49.69836" lon="4.78901">
        <ele>146.3136</ele>
        <time>2021-04-22T13:06:37Z</time>
      </trkpt>
      <trkpt lat="49.69834" lon="4.78906">
        <ele>146.47159</ele>
        <time>2021-04-22T13:06:38Z</time>
      </trkpt>
      <trkpt lat="49.69833" lon="4.78912">
        <ele>146.361</ele>
        <time>2021-04-22T13:06:39Z</time>
      </trkpt>
      <trkpt lat="49.69832" lon="4.78917">
        <ele>146.27673</ele>
        <time>2021-04-22T13:06:40Z</time>
      </trkpt>
      <trkpt lat="49.69831" lon="4.78923">
        <ele>146.282</ele>
        <time>2021-04-22T13:06:41Z</time>
      </trkpt>
      <trkpt lat="49.6983" lon="4.78928">
        <ele>146.01341</ele>
        <time>2021-04-22T13:06:42Z</time>
      </trkpt>
      <trkpt lat="49.6983" lon="4.78932">
        <ele>145.97128</ele>
        <time>2021-04-22T13:06:43Z</time>
      </trkpt>
      <trkpt lat="49.69828" lon="4.78936">
        <ele>146.00288</ele>
        <time>2021-04-22T13:06:44Z</time>
      </trkpt>
      <trkpt lat="49.69827" lon="4.78939">
        <ele>146.03448</ele>
        <time>2021-04-22T13:06:45Z</time>
      </trkpt>
      <trkpt lat="49.69827" lon="4.78943">
        <ele>146.1872</ele>
        <time>2021-04-22T13:06:46Z</time>
      </trkpt>
      <trkpt lat="49.69825" lon="4.78947">
        <ele>146.22406</ele>
        <time>2021-04-22T13:06:47Z</time>
      </trkpt>
      <trkpt lat="49.69825" lon="4.78951">
        <ele>146.3136</ele>
        <time>2021-04-22T13:06:48Z</time>
      </trkpt>
      <trkpt lat="49.69824" lon="4.78956">
        <ele>146.48738</ele>
        <time>2021-04-22T13:06:49Z</time>
      </trkpt>
      <trkpt lat="49.69823" lon="4.78961">
        <ele>146.38205</ele>
        <time>2021-04-22T13:06:50Z</time>
      </trkpt>
      <trkpt lat="49.69822" lon="4.78967">
        <ele>146.37152</ele>
        <time>2021-04-22T13:06:51Z</time>
      </trkpt>
      <trkpt lat="49.69821" lon="4.78973">
        <ele>146.32413</ele>
        <time>2021-04-22T13:06:52Z</time>
      </trkpt>
      <trkpt lat="49.6982" lon="4.78979">
        <ele>146.30833</ele>
        <time>2021-04-22T13:06:53Z</time>
      </trkpt>
      <trkpt lat="49.69819" lon="4.78984">
        <ele>146.33992</ele>
        <time>2021-04-22T13:06:54Z</time>
      </trkpt>
      <trkpt lat="49.69818" lon="4.7899">
        <ele>146.3926</ele>
        <time>2021-04-22T13:06:55Z</time>
      </trkpt>
      <trkpt lat="49.69817" lon="4.78995">
        <ele>146.28726</ele>
        <time>2021-04-22T13:06:56Z</time>
      </trkpt>
      <trkpt lat="49.69815" lon="4.78999">
        <ele>146.30833</ele>
        <time>2021-04-22T13:06:57Z</time>
      </trkpt>
      <trkpt lat="49.69814" lon="4.79003">
        <ele>146.3136</ele>
        <time>2021-04-22T13:06:58Z</time>
      </trkpt>
      <trkpt lat="49.69813" lon="4.79007">
        <ele>146.4242</ele>
        <time>2021-04-22T13:06:59Z</time>
      </trkpt>
      <trkpt lat="49.69812" lon="4.7901">
        <ele>146.37152</ele>
        <time>2021-04-22T13:07:00Z</time>
      </trkpt>
      <trkpt lat="49.69811" lon="4.79014">
        <ele>146.47159</ele>
        <time>2021-04-22T13:07:01Z</time>
      </trkpt>
      <trkpt lat="49.6981" lon="4.79018">
        <ele>146.55058</ele>
        <time>2021-04-22T13:07:02Z</time>
      </trkpt>
      <trkpt lat="49.69809" lon="4.79022">
        <ele>146.56638</ele>
        <time>2021-04-22T13:07:03Z</time>
      </trkpt>
      <trkpt lat="49.69808" lon="4.79027">
        <ele>146.39786</ele>
        <time>2021-04-22T13:07:04Z</time>
      </trkpt>
      <trkpt lat="49.69807" lon="4.79032">
        <ele>146.33992</ele>
        <time>2021-04-22T13:07:05Z</time>
      </trkpt>
      <trkpt lat="49.69806" lon="4.79036">
        <ele>146.50317</ele>
        <time>2021-04-22T13:07:06Z</time>
      </trkpt>
      <trkpt lat="49.69805" lon="4.79041">
        <ele>146.56638</ele>
        <time>2021-04-22T13:07:07Z</time>
      </trkpt>
      <trkpt lat="49.69804" lon="4.79045">
        <ele>146.71384</ele>
        <time>2021-04-22T13:07:08Z</time>
      </trkpt>
      <trkpt lat="49.69804" lon="4.79049">
        <ele>146.70857</ele>
        <time>2021-04-22T13:07:09Z</time>
      </trkpt>
      <trkpt lat="49.69803" lon="4.79053">
        <ele>146.85075</ele>
        <time>2021-04-22T13:07:10Z</time>
      </trkpt>
      <trkpt lat="49.69802" lon="4.79057">
        <ele>147.06667</ele>
        <time>2021-04-22T13:07:11Z</time>
      </trkpt>
      <trkpt lat="49.69801" lon="4.7906">
        <ele>147.16673</ele>
        <time>2021-04-22T13:07:12Z</time>
      </trkpt>
      <trkpt lat="49.69801" lon="4.79064">
        <ele>147.32999</ele>
        <time>2021-04-22T13:07:13Z</time>
      </trkpt>
      <trkpt lat="49.698" lon="4.79068">
        <ele>147.42479</ele>
        <time>2021-04-22T13:07:14Z</time>
      </trkpt>
      <trkpt lat="49.69799" lon="4.79072">
        <ele>147.57224</ele>
        <time>2021-04-22T13:07:15Z</time>
      </trkpt>
      <trkpt lat="49.69798" lon="4.79075">
        <ele>148.10414</ele>
        <time>2021-04-22T13:07:16Z</time>
      </trkpt>
      <trkpt lat="49.69796" lon="4.79079">
        <ele>148.0146</ele>
        <time>2021-04-22T13:07:17Z</time>
      </trkpt>
      <trkpt lat="49.69795" lon="4.79083">
        <ele>147.96721</ele>
        <time>2021-04-22T13:07:18Z</time>
      </trkpt>
      <trkpt lat="49.69794" lon="4.79086">
        <ele>148.32005</ele>
        <time>2021-04-22T13:07:19Z</time>
      </trkpt>
      <trkpt lat="49.69794" lon="4.7909">
        <ele>148.40433</ele>
        <time>2021-04-22T13:07:20Z</time>
      </trkpt>
      <trkpt lat="49.69793" lon="4.79093">
        <ele>148.33586</ele>
        <time>2021-04-22T13:07:21Z</time>
      </trkpt>
      <trkpt lat="49.69791" lon="4.79097">
        <ele>148.85194</ele>
        <time>2021-04-22T13:07:22Z</time>
      </trkpt>
      <trkpt lat="49.6979" lon="4.79101">
        <ele>149.14687</ele>
        <time>2021-04-22T13:07:23Z</time>
      </trkpt>
      <trkpt lat="49.69789" lon="4.79104">
        <ele>149.15213</ele>
        <time>2021-04-22T13:07:24Z</time>
      </trkpt>
      <trkpt lat="49.69787" lon="4.79107">
        <ele>149.33646</ele>
        <time>2021-04-22T13:07:25Z</time>
      </trkpt>
      <trkpt lat="49.69787" lon="4.79111">
        <ele>149.65244</ele>
        <time>2021-04-22T13:07:26Z</time>
      </trkpt>
      <trkpt lat="49.69785" lon="4.79114">
        <ele>149.9526</ele>
        <time>2021-04-22T13:07:27Z</time>
      </trkpt>
      <trkpt lat="49.69783" lon="4.79118">
        <ele>150.19485</ele>
        <time>2021-04-22T13:07:28Z</time>
      </trkpt>
      <trkpt lat="49.69782" lon="4.79121">
        <ele>150.31071</ele>
        <time>2021-04-22T13:07:29Z</time>
      </trkpt>
      <trkpt lat="49.69781" lon="4.79125">
        <ele>150.46344</ele>
        <time>2021-04-22T13:07:30Z</time>
      </trkpt>
      <trkpt lat="49.6978" lon="4.79128">
        <ele>150.6267</ele>
        <time>2021-04-22T13:07:31Z</time>
      </trkpt>
      <trkpt lat="49.69778" lon="4.79131">
        <ele>150.76888</ele>
        <time>2021-04-22T13:07:32Z</time>
      </trkpt>
      <trkpt lat="49.69777" lon="4.79134">
        <ele>151.07959</ele>
        <time>2021-04-22T13:07:33Z</time>
      </trkpt>
      <trkpt lat="49.69775" lon="4.79138">
        <ele>151.20598</ele>
        <time>2021-04-22T13:07:34Z</time>
      </trkpt>
      <trkpt lat="49.69774" lon="4.79141">
        <ele>151.31131</ele>
        <time>2021-04-22T13:07:35Z</time>
      </trkpt>
      <trkpt lat="49.69772" lon="4.79144">
        <ele>151.75368</ele>
        <time>2021-04-22T13:07:36Z</time>
      </trkpt>
      <trkpt lat="49.69771" lon="4.79147">
        <ele>152.18025</ele>
        <time>2021-04-22T13:07:37Z</time>
      </trkpt>
      <trkpt lat="49.69769" lon="4.79151">
        <ele>152.26451</ele>
        <time>2021-04-22T13:07:38Z</time>
      </trkpt>
      <trkpt lat="49.69768" lon="4.79155">
        <ele>152.33824</ele>
        <time>2021-04-22T13:07:39Z</time>
      </trkpt>
      <trkpt lat="49.69766" lon="4.79159">
        <ele>152.63316</ele>
        <time>2021-04-22T13:07:40Z</time>
      </trkpt>
      <trkpt lat="49.69765" lon="4.79162">
        <ele>152.79115</ele>
        <time>2021-04-22T13:07:41Z</time>
      </trkpt>
      <trkpt lat="49.69763" lon="4.79165">
        <ele>153.29144</ele>
        <time>2021-04-22T13:07:42Z</time>
      </trkpt>
      <trkpt lat="49.69762" lon="4.79168">
        <ele>153.79175</ele>
        <time>2021-04-22T13:07:43Z</time>
      </trkpt>
      <trkpt lat="49.69762" lon="4.79172">
        <ele>154.18672</ele>
        <time>2021-04-22T13:07:44Z</time>
      </trkpt>
      <trkpt lat="49.69762" lon="4.79174">
        <ele>154.49742</ele>
        <time>2021-04-22T13:07:45Z</time>
      </trkpt>
      <trkpt lat="49.69762" lon="4.79177">
        <ele>154.75021</ele>
        <time>2021-04-22T13:07:46Z</time>
      </trkpt>
      <trkpt lat="49.69762" lon="4.7918">
        <ele>155.01352</ele>
        <time>2021-04-22T13:07:47Z</time>
      </trkpt>
      <trkpt lat="49.69764" lon="4.79182">
        <ele>154.99773</ele>
        <time>2021-04-22T13:07:48Z</time>
      </trkpt>
      <trkpt lat="49.69765" lon="4.79183">
        <ele>155.13992</ele>
        <time>2021-04-22T13:07:49Z</time>
      </trkpt>
      <trkpt lat="49.69766" lon="4.79184">
        <ele>155.56122</ele>
        <time>2021-04-22T13:07:50Z</time>
      </trkpt>
      <trkpt lat="49.69766" lon="4.79185">
        <ele>155.14519</ele>
        <time>2021-04-22T13:07:51Z</time>
      </trkpt>
      <trkpt lat="49.69766" lon="4.79185">
        <ele>155.2347</ele>
        <time>2021-04-22T13:07:52Z</time>
      </trkpt>
      <trkpt lat="49.69766" lon="4.79185">
        <ele>155.2821</ele>
        <time>2021-04-22T13:07:53Z</time>
      </trkpt>
      <trkpt lat="49.69766" lon="4.79185">
        <ele>155.33476</ele>
        <time>2021-04-22T13:07:54Z</time>
      </trkpt>
      <trkpt lat="49.69766" lon="4.79185">
        <ele>155.33476</ele>
        <time>2021-04-22T13:07:54Z</time>
      </trkpt>
      <trkpt lat="49.69766" lon="4.79185">
        <ele>155.33476</ele>
        <time>2021-04-22T13:07:54Z</time>
      </trkpt>
      <trkpt lat="49.69782" lon="4.79211">
        <ele>156.64609</ele>
        <time>2021-04-22T13:08:34Z</time>
      </trkpt>
      <trkpt lat="49.69784" lon="4.79213">
        <ele>156.704</ele>
        <time>2021-04-22T13:08:35Z</time>
      </trkpt>
      <trkpt lat="49.69785" lon="4.79215">
        <ele>156.46175</ele>
        <time>2021-04-22T13:08:36Z</time>
      </trkpt>
      <trkpt lat="49.69787" lon="4.79216">
        <ele>156.58815</ele>
        <time>2021-04-22T13:08:37Z</time>
      </trkpt>
      <trkpt lat="49.69788" lon="4.79218">
        <ele>156.38802</ele>
        <time>2021-04-22T13:08:38Z</time>
      </trkpt>
      <trkpt lat="49.6979" lon="4.79219">
        <ele>156.48808</ele>
        <time>2021-04-22T13:08:39Z</time>
      </trkpt>
      <trkpt lat="49.69792" lon="4.79221">
        <ele>156.58289</ele>
        <time>2021-04-22T13:08:40Z</time>
      </trkpt>
      <trkpt lat="49.69794" lon="4.79224">
        <ele>156.81459</ele>
        <time>2021-04-22T13:08:41Z</time>
      </trkpt>
      <trkpt lat="49.69796" lon="4.79226">
        <ele>156.41435</ele>
        <time>2021-04-22T13:08:42Z</time>
      </trkpt>
      <trkpt lat="49.69798" lon="4.79228">
        <ele>156.24057</ele>
        <time>2021-04-22T13:08:43Z</time>
      </trkpt>
      <trkpt lat="49.69801" lon="4.79229">
        <ele>156.22478</ele>
        <time>2021-04-22T13:08:44Z</time>
      </trkpt>
      <trkpt lat="49.69804" lon="4.79231">
        <ele>156.12997</ele>
        <time>2021-04-22T13:08:45Z</time>
      </trkpt>
      <trkpt lat="49.69807" lon="4.79234">
        <ele>155.92459</ele>
        <time>2021-04-22T13:08:46Z</time>
      </trkpt>
      <trkpt lat="49.6981" lon="4.79236">
        <ele>155.60335</ele>
        <time>2021-04-22T13:08:47Z</time>
      </trkpt>
      <trkpt lat="49.69813" lon="4.79238">
        <ele>155.63495</ele>
        <time>2021-04-22T13:08:48Z</time>
      </trkpt>
      <trkpt lat="49.69817" lon="4.7924">
        <ele>155.29263</ele>
        <time>2021-04-22T13:08:49Z</time>
      </trkpt>
      <trkpt lat="49.69821" lon="4.79243">
        <ele>155.06091</ele>
        <time>2021-04-22T13:08:50Z</time>
      </trkpt>
      <trkpt lat="49.69825" lon="4.79246">
        <ele>154.8134</ele>
        <time>2021-04-22T13:08:51Z</time>
      </trkpt>
      <trkpt lat="49.69829" lon="4.79248">
        <ele>154.53429</ele>
        <time>2021-04-22T13:08:52Z</time>
      </trkpt>
      <trkpt lat="49.69834" lon="4.79252">
        <ele>154.46056</ele>
        <time>2021-04-22T13:08:53Z</time>
      </trkpt>
      <trkpt lat="49.69838" lon="4.79254">
        <ele>154.24991</ele>
        <time>2021-04-22T13:08:54Z</time>
      </trkpt>
      <trkpt lat="49.69842" lon="4.79258">
        <ele>153.56529</ele>
        <time>2021-04-22T13:08:55Z</time>
      </trkpt>
      <trkpt lat="49.69846" lon="4.79261">
        <ele>152.9702</ele>
        <time>2021-04-22T13:08:56Z</time>
      </trkpt>
      <trkpt lat="49.69851" lon="4.79266">
        <ele>152.67003</ele>
        <time>2021-04-22T13:08:57Z</time>
      </trkpt>
      <trkpt lat="49.69855" lon="4.79269">
        <ele>152.44884</ele>
        <time>2021-04-22T13:08:58Z</time>
      </trkpt>
      <trkpt lat="49.6986" lon="4.79271">
        <ele>152.43303</ele>
        <time>2021-04-22T13:08:59Z</time>
      </trkpt>
      <trkpt lat="49.69865" lon="4.79274">
        <ele>152.5647</ele>
        <time>2021-04-22T13:09:00Z</time>
      </trkpt>
      <trkpt lat="49.69869" lon="4.79275">
        <ele>152.51204</ele>
        <time>2021-04-22T13:09:01Z</time>
      </trkpt>
      <trkpt lat="49.69874" lon="4.79277">
        <ele>152.07494</ele>
        <time>2021-04-22T13:09:02Z</time>
      </trkpt>
      <trkpt lat="49.69878" lon="4.79279">
        <ele>151.6115</ele>
        <time>2021-04-22T13:09:03Z</time>
      </trkpt>
      <trkpt lat="49.69882" lon="4.79282">
        <ele>151.66415</ele>
        <time>2021-04-22T13:09:04Z</time>
      </trkpt>
      <trkpt lat="49.69885" lon="4.79286">
        <ele>151.55356</ele>
        <time>2021-04-22T13:09:05Z</time>
      </trkpt>
      <trkpt lat="49.69888" lon="4.79292">
        <ele>151.29552</ele>
        <time>2021-04-22T13:09:06Z</time>
      </trkpt>
      <trkpt lat="49.69891" lon="4.79297">
        <ele>151.18492</ele>
        <time>2021-04-22T13:09:07Z</time>
      </trkpt>
    </trkseg>
  </trk>
</gpx>